[[{"header":{"parameterUnit":"m.s-1","parameterCategory":1,"la1":30.6,"la2":28.766,"lo1":-90.7593,"lo2":-88.6598,"dy":0.0162,"dx":0.0183,"nx":116,"ny":114,"refTime":"2023-11-01T06:00:00:Z","depth":0,"parameterNumber":2,"parameterNumberName":"U-component_of_WINDS"},"data":[0.0,0.0,0.0,0.0,0.0,0.0,0.0,0.0,0.0,0.0,0.0,0.0,0.0,0.0,0.0,0.0,0.0,0.0,0.0,0.0,0.0,0.0,0.0,0.0,0.0,0.0,0.0,0.0,0.0,0.0,0.0,0.0,0.0,0.0,0.0,0.0,0.0,0.0,0.0,0.0,0.0,0.0,0.0,0.0,0.0,0.0,0.0,0.0,0.0,0.0,0.0,0.0,0.0,0.0,0.0,0.0,0.0,0.0,0.0,0.0,0.0,0.0,0.0,0.0,0.0,0.0,0.0,0.0,0.0,0.0,0.0,0.0,0.0,0.0,0.0,0.0,0.0,0.0,0.0,0.0,0.0,0.0,0.0,0.0,0.0,0.0,0.0,0.0,0.0,0.0,0.0,0.0,0.0,0.0,0.0,0.0,0.0,0.0,0.0,0.0,0.0,0.0,0.0,0.0,0.0,0.0,0.0,0.0,0.0,0.0,0.0,0.0,0.0,0.0,0.0,0.0,0.0,0.0,0.0,0.0,0.0,0.0,0.0,0.0,0.0,0.0,0.0,0.0,0.0,0.0,0.0,0.0,0.0,0.0,0.0,0.0,0.0,0.0,0.0,0.0,0.0,0.0,0.0,0.0,0.0,0.0,0.0,0.0,0.0,0.0,0.0,0.0,0.0,0.0,0.0,0.0,0.0,0.0,0.0,0.0,0.0,0.0,0.0,0.0,0.0,0.0,0.0,0.0,0.0,0.0,0.0,0.0,0.0,0.0,0.0,0.0,0.0,0.0,0.0,0.0,0.0,0.0,0.0,0.0,0.0,0.0,0.0,0.0,0.0,0.0,0.0,0.0,0.0,0.0,0.0,0.0,0.0,0.0,0.0,0.0,0.0,0.0,0.0,0.0,0.0,0.0,0.0,0.0,0.0,0.0,0.0,0.0,0.0,0.0,0.0,0.0,0.0,0.0,0.0,0.0,0.0,0.0,0.0,0.0,0.0,0.0,0.0,0.0,0.0,0.0,0.0,0.0,0.0,0.0,0.0,0.0,0.0,0.0,0.0,0.0,0.0,0.0,0.0,0.0,0.0,0.0,0.0,0.0,0.0,0.0,0.0,0.0,0.0,0.0,0.0,0.0,0.0,0.0,0.0,0.0,0.0,0.0,0.0,0.0,0.0,0.0,0.0,0.0,0.0,0.0,0.0,0.0,0.0,0.0,0.0,0.0,0.0,0.0,0.0,0.0,0.0,0.0,0.0,0.0,0.0,0.0,0.0,0.0,0.0,0.0,0.0,0.0,0.0,0.0,0.0,0.0,0.0,0.0,0.0,0.0,0.0,0.0,0.0,0.0,0.0,0.0,0.0,0.0,0.0,0.0,0.0,0.0,0.0,0.0,0.0,0.0,0.0,0.0,0.0,0.0,0.0,0.0,0.0,0.0,0.0,0.0,0.0,0.0,0.0,0.0,0.0,0.0,0.0,0.0,0.0,0.0,0.0,0.0,0.0,0.0,0.0,0.0,0.0,0.0,0.0,0.0,0.0,0.0,0.0,0.0,0.0,0.0,0.0,0.0,0.0,0.0,0.0,0.0,0.0,0.0,0.0,0.0,0.0,0.0,0.0,0.0,0.0,0.0,0.0,0.0,0.0,0.0,0.0,0.0,0.0,0.0,0.0,0.0,0.0,0.0,0.0,0.0,0.0,0.0,0.0,0.0,0.0,0.0,0.0,0.0,0.0,0.0,0.0,0.0,0.0,0.0,0.0,0.0,0.0,0.0,0.0,0.0,0.0,0.0,0.0,0.0,0.0,0.0,0.0,0.0,0.0,0.0,0.0,0.0,0.0,0.0,0.0,0.0,0.0,0.0,0.0,0.0,0.0,0.0,0.0,0.0,0.0,0.0,0.0,0.0,0.0,0.0,0.0,0.0,0.0,0.0,0.0,0.0,0.0,0.0,0.0,0.0,0.0,0.0,0.0,0.0,0.0,0.0,0.0,0.0,0.0,0.0,0.0,0.0,0.0,0.0,0.0,0.0,0.0,0.0,0.0,0.0,0.0,0.0,0.0,0.0,0.0,0.0,0.0,0.0,0.0,0.0,0.0,0.0,0.0,0.0,0.0,0.0,0.0,0.0,0.0,0.0,0.0,0.0,0.0,0.0,0.0,0.0,0.0,0.0,0.0,0.0,0.0,0.0,0.0,0.0,0.0,0.0,0.0,0.0,0.0,0.0,0.0,0.0,0.0,0.0,0.0,0.0,0.0,0.0,0.0,0.0,0.0,0.0,0.0,0.0,0.0,0.0,0.0,0.0,0.0,0.0,0.0,0.0,0.0,0.0,0.0,0.0,0.0,0.0,0.0,0.0,0.0,0.0,0.0,0.0,0.0,0.0,0.0,0.0,0.0,0.0,0.0,0.0,0.0,0.0,0.0,0.0,0.0,0.0,0.0,0.0,0.0,0.0,0.0,0.0,0.0,0.0,0.0,0.0,0.0,0.0,0.0,0.0,0.0,0.0,0.0,0.0,0.0,0.0,0.0,0.0,0.0,0.0,0.0,0.0,0.0,0.0,0.0,0.0,0.0,0.0,0.0,0.0,0.0,0.0,0.0,0.0,0.0,0.0,0.0,0.0,0.0,0.0,0.0,0.0,0.0,0.0,0.0,0.0,0.0,0.0,0.0,0.0,0.0,0.0,0.0,0.0,0.0,0.0,0.0,0.0,0.0,0.0,0.0,0.0,0.0,0.0,0.0,0.0,0.0,0.0,0.0,0.0,0.0,0.0,0.0,0.0,0.0,0.0,0.0,0.0,0.0,0.0,0.0,0.0,0.0,0.0,0.0,0.0,0.0,0.0,0.0,0.0,0.0,0.0,0.0,0.0,0.0,0.0,0.0,0.0,0.0,0.0,0.0,0.0,0.0,0.0,0.0,0.0,0.0,0.0,0.0,0.0,0.0,0.0,0.0,0.0,0.0,0.0,0.0,0.0,0.0,0.0,0.0,0.0,0.0,0.0,0.0,0.0,0.0,0.0,0.0,0.0,0.0,0.0,0.0,0.0,0.0,0.0,0.0,0.0,0.0,0.0,0.0,0.0,0.0,0.0,0.0,0.0,0.0,0.0,0.0,0.0,0.0,0.0,0.0,0.0,0.0,0.0,0.0,0.0,0.0,0.0,0.0,0.0,0.0,0.0,0.0,0.0,0.0,0.0,0.0,0.0,0.0,0.0,0.0,0.0,0.0,0.0,0.0,0.0,0.0,0.0,0.0,0.0,0.0,0.0,0.0,0.0,0.0,0.0,0.0,0.0,0.0,0.0,0.0,0.0,0.0,0.0,0.0,0.0,0.0,0.0,0.0,0.0,0.0,0.0,0.0,0.0,0.0,0.0,0.0,0.0,0.0,0.0,0.0,0.0,0.0,0.0,0.0,0.0,0.0,0.0,0.0,0.0,0.0,0.0,0.0,0.0,0.0,0.0,0.0,0.0,0.0,0.0,0.0,0.0,0.0,0.0,0.0,0.0,0.0,0.0,0.0,0.0,0.0,0.0,0.0,0.0,0.0,0.0,0.0,0.0,0.0,0.0,0.0,0.0,0.0,0.0,0.0,0.0,0.0,0.0,0.0,0.0,0.0,0.0,0.0,0.0,0.0,0.0,0.0,0.0,0.0,0.0,0.0,0.0,0.0,0.0,0.0,0.0,0.0,0.0,0.0,0.0,0.0,0.0,0.0,0.0,0.0,0.0,0.0,0.0,0.0,0.0,0.0,0.0,0.0,0.0,0.0,0.0,0.0,0.0,0.0,0.0,0.0,0.0,0.0,0.0,0.0,0.0,0.0,0.0,0.0,0.0,0.0,0.0,0.0,0.0,0.0,0.0,0.0,0.0,0.0,0.0,0.0,0.0,0.0,0.0,0.0,0.0,0.0,0.0,0.0,0.0,0.0,0.0,0.0,0.0,0.0,0.0,0.0,0.0,0.0,0.0,0.0,0.0,0.0,0.0,0.0,0.0,0.0,0.0,0.0,0.0,0.0,0.0,0.0,0.0,0.0,0.0,0.0,0.0,0.0,0.0,0.0,0.0,0.0,0.0,0.0,0.0,0.0,0.0,0.0,0.0,0.0,0.0,0.0,0.0,0.0,0.0,0.0,0.0,0.0,0.0,0.0,0.0,0.0,0.0,0.0,0.0,0.0,0.0,0.0,0.0,0.0,0.0,0.0,0.0,0.0,0.0,0.0,0.0,0.0,0.0,0.0,0.0,0.0,0.0,0.0,0.0,0.0,0.0,0.0,0.0,0.0,0.0,0.0,0.0,0.0,0.0,0.0,0.0,0.0,0.0,0.0,0.0,0.0,0.0,0.0,0.0,0.0,0.0,0.0,0.0,0.0,0.0,0.0,0.0,0.0,0.0,0.0,0.0,0.0,0.0,0.0,0.0,0.0,0.0,0.0,0.0,0.0,0.0,0.0,0.0,0.0,0.0,0.0,0.0,0.0,0.0,0.0,0.0,0.0,0.0,0.0,0.0,0.0,0.0,0.0,0.0,0.0,0.0,0.0,0.0,0.0,0.0,0.0,0.0,0.0,0.0,0.0,0.0,0.0,0.0,0.0,0.0,0.0,0.0,0.0,0.0,0.0,0.0,0.0,0.0,0.0,0.0,0.0,0.0,0.0,0.0,0.0,0.0,0.0,0.0,0.0,0.0,0.0,0.0,0.0,0.0,0.0,0.0,0.0,0.0,0.0,0.0,0.0,0.0,0.0,0.0,0.0,0.0,0.0,0.0,0.0,0.0,0.0,0.0,0.0,0.0,0.0,0.0,0.0,0.0,0.0,0.0,0.0,0.0,0.0,0.0,0.0,0.0,0.0,0.0,0.0,0.0,0.0,0.0,0.0,0.0,0.0,0.0,0.0,0.0,0.0,0.0,0.0,0.0,0.0,0.0,0.0,0.0,0.0,0.0,0.0,0.0,0.0,0.0,0.0,0.0,0.0,0.0,0.0,0.0,0.0,0.0,0.0,0.0,0.0,0.0,0.0,0.0,0.0,0.0,0.0,0.0,0.0,0.0,0.0,0.0,0.0,0.0,0.0,0.0,0.0,0.0,0.0,0.0,0.0,0.0,0.0,0.0,0.0,0.0,0.0,0.0,0.0,0.0,0.0,0.0,0.0,0.0,0.0,0.0,0.0,0.0,0.0,0.0,0.0,0.0,0.0,0.0,0.0,0.0,0.0,0.0,0.0,0.0,0.0,0.0,0.0,0.0,0.0,0.0,0.0,0.0,0.0,0.0,0.0,0.0,0.0,0.0,0.0,0.0,0.0,0.0,0.0,0.0,0.0,0.0,0.0,0.0,0.0,0.0,0.0,0.0,0.0,0.0,0.0,0.0,0.0,0.0,0.0,0.0,0.0,0.0,0.0,0.0,0.0,0.0,0.0,0.0,0.0,0.0,0.0,0.0,0.0,0.0,0.0,0.0,0.0,0.0,0.0,0.0,0.0,0.0,0.0,0.0,0.0,0.0,0.0,0.0,0.0,0.0,0.0,0.0,0.0,0.0,0.0,0.0,0.0,0.0,0.0,0.0,0.0,0.0,0.0,0.0,0.0,0.0,0.0,0.0,0.0,0.0,0.0,0.0,0.0,0.0,0.0,0.0,0.0,0.0,0.0,0.0,0.0,0.0,0.0,0.0,0.0,0.0,0.0,0.0,0.0,0.0,0.0,0.0,0.0,0.0,0.0,0.0,0.0,0.0,0.0,0.0,0.0,0.0,0.0,0.0,0.0,0.0,0.0,0.0,0.0,0.0,0.0,0.0,0.0,0.0,0.0,0.0,0.0,0.0,0.0,0.0,0.0,0.0,0.0,0.0,0.0,0.0,0.0,0.0,0.0,0.0,0.0,0.0,0.0,0.0,0.0,0.0,0.0,0.0,0.0,0.0,0.0,0.0,0.0,0.0,0.0,0.0,0.0,0.0,0.0,0.0,0.0,0.0,0.0,0.0,0.0,0.0,0.0,0.0,0.0,0.0,0.0,0.0,0.0,0.0,0.0,0.0,0.0,0.0,0.0,0.0,0.0,0.0,0.0,0.0,0.0,0.0,0.0,0.0,0.0,0.0,0.0,0.0,0.0,0.0,3.87,3.7488,0.0,0.0,0.0,0.0,0.0,0.0,0.0,0.0,0.0,0.0,0.0,0.0,0.0,0.0,0.0,0.0,0.0,0.0,0.0,0.0,0.0,0.0,0.0,0.0,0.0,0.0,0.0,0.0,0.0,0.0,0.0,0.0,0.0,0.0,0.0,0.0,0.0,0.0,0.0,0.0,0.0,0.0,0.0,0.0,0.0,0.0,0.0,0.0,0.0,0.0,0.0,0.0,0.0,0.0,0.0,0.0,0.0,0.0,0.0,0.0,0.0,0.0,0.0,0.0,0.0,0.0,0.0,0.0,0.0,0.0,0.0,0.0,0.0,0.0,0.0,0.0,0.0,0.0,0.0,0.0,0.0,0.0,0.0,0.0,0.0,0.0,0.0,0.0,0.0,0.0,0.0,0.0,0.0,0.0,0.0,0.0,0.0,0.0,0.0,0.0,0.0,0.0,0.0,0.0,0.0,0.0,0.0,0.0,0.0,0.0,0.0,0.0,0.0,0.0,4.2294,4.0209,0.0,0.0,0.0,0.0,0.0,0.0,0.0,0.0,0.0,0.0,0.0,0.0,0.0,0.0,0.0,0.0,0.0,0.0,0.0,0.0,0.0,0.0,0.0,0.0,0.0,0.0,0.0,0.0,0.0,0.0,0.0,0.0,0.0,0.0,0.0,0.0,0.0,0.0,0.0,0.0,0.0,0.0,0.0,0.0,0.0,0.0,0.0,0.0,0.0,0.0,0.0,0.0,0.0,0.0,0.0,0.0,0.0,0.0,0.0,0.0,0.0,0.0,0.0,0.0,0.0,0.0,0.0,0.0,0.0,0.0,0.0,0.0,0.0,0.0,0.0,0.0,0.0,0.0,0.0,0.0,0.0,0.0,0.0,0.0,0.0,0.0,0.0,0.0,0.0,0.0,0.0,0.0,0.0,0.0,0.0,0.0,0.0,0.0,0.0,0.0,0.0,0.0,0.0,0.0,0.0,0.0,0.0,0.0,4.9514,5.0857,5.2041,5.1726,5.1789,5.1947,4.7828,4.4866,4.2961,4.3037,0.0,0.0,0.0,0.0,0.0,0.0,0.0,0.0,0.0,0.0,0.0,0.0,0.0,0.0,0.0,0.0,0.0,0.0,0.0,0.0,0.0,0.0,0.0,0.0,0.0,0.0,0.0,0.0,0.0,0.0,0.0,0.0,0.0,0.0,0.0,0.0,0.0,0.0,3.4045,3.5159,3.533,3.4735,3.412,0.0,0.0,0.0,0.0,0.0,0.0,0.0,0.0,0.0,0.0,0.0,0.0,0.0,0.0,0.0,0.0,0.0,0.0,0.0,0.0,0.0,0.0,0.0,0.0,0.0,0.0,0.0,0.0,0.0,0.0,0.0,0.0,0.0,0.0,0.0,0.0,0.0,0.0,0.0,0.0,0.0,0.0,0.0,3.8316,3.8229,0.0,0.0,0.0,0.0,0.0,0.0,0.0,0.0,0.0,0.0,0.0,0.0,0.0,4.8494,5.0437,5.2534,5.3597,5.3753,5.5607,5.7003,5.7837,5.6207,5.6708,5.868,5.6335,0.0,4.5868,4.485,0.0,0.0,0.0,0.0,0.0,0.0,0.0,0.0,0.0,0.0,0.0,0.0,0.0,0.0,0.0,0.0,0.0,0.0,0.0,0.0,0.0,0.0,0.0,0.0,0.0,0.0,0.0,0.0,0.0,0.0,0.0,0.0,0.0,0.0,0.0,0.0,3.4627,3.6261,3.7203,3.7895,3.7908,3.7356,3.7155,3.6645,3.5901,3.5464,0.0,0.0,0.0,0.0,0.0,0.0,0.0,0.0,0.0,0.0,0.0,0.0,0.0,0.0,0.0,0.0,0.0,0.0,0.0,0.0,0.0,0.0,0.0,0.0,0.0,0.0,0.0,0.0,0.0,0.0,0.0,0.0,0.0,0.0,0.0,0.0,0.0,0.0,0.0,3.9623,4.0658,3.8281,4.0309,4.0824,0.0,0.0,0.0,0.0,0.0,0.0,0.0,0.0,0.0,5.1053,5.1951,5.3529,5.5945,5.7218,5.8563,5.9984,6.1227,6.2605,6.4031,6.3193,6.3457,6.4471,6.3208,5.9834,5.498,5.1086,4.7896,4.531,0.0,0.0,0.0,0.0,4.566,4.6943,0.0,0.0,0.0,0.0,0.0,0.0,0.0,0.0,0.0,0.0,0.0,0.0,0.0,0.0,0.0,2.8169,0.0,0.0,0.0,0.0,0.0,0.0,0.0,0.0,0.0,0.0,0.0,0.0,3.943,4.0964,4.1299,4.1511,4.1304,4.0805,4.0811,3.9236,3.6517,3.5814,3.5252,0.0,0.0,0.0,0.0,0.0,0.0,0.0,0.0,0.0,0.0,0.0,0.0,0.0,0.0,0.0,0.0,0.0,0.0,0.0,0.0,0.0,0.0,0.0,0.0,0.0,0.0,0.0,0.0,0.0,0.0,0.0,0.0,0.0,0.0,0.0,0.0,0.0,0.0,4.1735,4.2506,3.8927,4.227,4.3277,0.0,0.0,0.0,0.0,0.0,0.0,4.9462,5.1361,5.3821,5.6965,5.7682,5.9266,6.1832,6.2188,6.3452,6.5533,6.6026,6.7223,6.9005,6.881,6.8856,6.8975,6.8301,6.652,6.3617,5.7137,5.2657,4.9682,4.7784,4.7545,4.8309,4.8509,4.9582,5.1173,0.0,0.0,0.0,0.0,0.0,0.0,0.0,0.0,0.0,0.0,0.0,0.0,0.0,0.0,3.0185,3.2913,3.274,3.3237,0.0,0.0,0.0,0.0,0.0,0.0,0.0,0.0,0.0,4.1461,4.3399,4.5139,4.6708,4.6712,4.6436,4.5874,4.4838,4.2911,4.0345,3.773,3.6793,3.6874,0.0,0.0,0.0,0.0,0.0,0.0,0.0,0.0,0.0,0.0,0.0,0.0,0.0,0.0,0.0,0.0,0.0,0.0,0.0,0.0,0.0,0.0,0.0,0.0,0.0,0.0,0.0,0.0,0.0,0.0,0.0,0.0,0.0,0.0,0.0,0.0,0.0,0.0,0.0,4.1456,4.5269,0.0,0.0,0.0,0.0,4.7215,5.1537,5.4358,5.4904,5.8045,6.0993,6.3462,6.4783,6.6461,6.8513,6.8556,6.896,6.9708,6.9676,7.0364,7.1683,7.1038,7.1098,7.1653,7.0979,7.029,6.899,6.109,5.6286,5.374,5.1894,5.1599,5.2294,5.3128,5.3774,5.4264,0.0,0.0,0.0,0.0,0.0,0.0,0.0,0.0,0.0,0.0,0.0,0.0,0.0,3.299,3.5403,3.7794,3.8479,3.8376,3.7465,0.0,0.0,0.0,0.0,0.0,0.0,0.0,4.0809,4.4184,4.6602,4.8134,4.872,4.9072,4.8946,4.8385,4.7214,4.5839,4.4068,3.9895,3.7475,3.6342,3.46,3.4257,0.0,0.0,0.0,0.0,0.0,0.0,0.0,0.0,0.0,0.0,0.0,0.0,0.0,0.0,0.0,0.0,0.0,0.0,0.0,0.0,0.0,0.0,0.0,0.0,0.0,0.0,0.0,0.0,0.0,0.0,0.0,0.0,0.0,0.0,0.0,0.0,0.0,4.8386,5.166,0.0,4.8766,4.9875,5.147,5.3034,5.6261,5.9352,6.2045,6.417,6.6643,6.9632,7.0185,7.1411,7.3432,7.3013,7.2676,7.2385,7.1919,7.1286,7.0478,7.0233,7.0531,7.1247,7.0996,7.1032,7.0965,6.7687,6.4022,6.0277,5.7953,5.6919,5.6793,5.7104,5.8139,5.9338,0.0,0.0,0.0,0.0,0.0,0.0,0.0,0.0,0.0,0.0,0.0,3.056,3.413,3.7562,4.0376,4.2288,4.2448,4.1874,4.0431,0.0,0.0,0.0,0.0,0.0,0.0,4.1057,4.3336,4.5589,4.8509,4.9938,4.9955,5.0655,5.0779,5.0393,4.9264,4.8243,4.7179,4.3503,4.0032,3.6925,3.5457,3.5507,3.6165,0.0,0.0,0.0,0.0,0.0,0.0,0.0,0.0,0.0,0.0,0.0,0.0,0.0,0.0,0.0,0.0,0.0,0.0,0.0,0.0,0.0,0.0,0.0,0.0,0.0,0.0,0.0,0.0,0.0,0.0,0.0,0.0,0.0,0.0,5.0596,5.394,5.4149,5.7483,5.8381,5.488,5.6137,5.7826,5.9382,6.2345,6.5113,6.7441,6.9018,7.0619,7.232,7.2558,7.3303,7.4649,7.4213,7.3615,7.2887,7.2433,7.1447,6.9971,6.9971,7.0248,7.0795,7.1284,7.1761,7.2162,7.197,6.9961,6.6729,6.3871,6.2375,6.1762,6.1762,6.26,6.3647,0.0,0.0,0.0,0.0,0.0,0.0,0.0,0.0,0.0,0.0,2.9646,3.3801,3.7947,4.1892,4.4843,4.6336,4.4382,4.3312,4.3846,3.8238,0.0,0.0,0.0,0.0,3.9692,4.3078,4.5171,4.5926,4.9047,5.0558,5.0565,5.1588,5.2074,5.2016,5.0938,5.0167,4.9565,4.846,4.4568,3.9095,3.7838,3.7567,3.7632,0.0,0.0,0.0,0.0,0.0,0.0,0.0,0.0,0.0,0.0,0.0,0.0,0.0,0.0,0.0,0.0,0.0,0.0,0.0,0.0,0.0,0.0,0.0,0.0,0.0,0.0,0.0,0.0,0.0,0.0,0.0,0.0,0.0,4.9449,5.5162,5.9085,5.8563,6.2482,6.3738,5.9937,6.2977,6.5472,6.6144,6.9741,7.1588,7.0825,7.2525,7.2868,7.1474,7.1981,7.2291,7.2291,7.2264,7.1941,7.127,7.127,7.0967,7.0363,7.0363,7.0374,7.0493,7.1913,7.2569,7.2654,7.3445,7.3367,7.2428,6.9267,6.7625,6.7012,6.695,6.6966,6.6862,0.0,0.0,0.0,0.0,0.0,0.0,0.0,0.0,0.0,0.0,3.1667,3.6282,4.0249,4.4775,4.8172,4.9773,4.6793,4.4526,4.388,0.0,0.0,0.0,0.0,0.0,4.5487,4.5074,4.6043,4.8573,4.9454,4.9734,4.9465,5.0888,5.1327,5.1024,5.1447,5.1322,5.0787,5.0026,4.8309,4.5728,4.1768,3.9943,3.9366,0.0,0.0,0.0,0.0,0.0,0.0,0.0,0.0,0.0,0.0,0.0,0.0,0.0,0.0,0.0,0.0,0.0,0.0,0.0,0.0,0.0,0.0,0.0,0.0,0.0,0.0,0.0,0.0,0.0,0.0,0.0,5.0833,5.3594,5.4788,5.9803,6.4381,6.7043,6.9347,7.0484,6.9901,6.9759,7.0002,7.0674,7.152,7.2108,7.24,7.3714,7.4307,7.3988,7.4133,7.4243,7.4243,7.3795,7.2723,7.1074,7.1074,6.976,6.7306,6.7306,6.7662,6.8352,6.8738,6.9543,7.0529,7.0762,7.024,6.9235,6.8808,6.8244,6.7497,6.6026,6.5824,6.6384,0.0,0.0,0.0,0.0,0.0,0.0,0.0,0.0,0.0,0.0,3.3658,3.8616,4.2432,4.7041,4.9974,5.0225,4.7346,4.4532,4.2233,0.0,0.0,0.0,0.0,4.395,4.6452,4.6267,4.6743,4.7972,4.8609,4.8704,4.8326,5.0809,5.1821,5.1642,5.3133,5.3507,5.2997,5.2653,5.185,5.0535,4.6954,4.4687,4.3195,4.0529,4.0005,4.0452,3.8695,3.9246,4.048,3.8675,0.0,0.0,0.0,0.0,0.0,0.0,0.0,0.0,0.0,0.0,0.0,0.0,0.0,0.0,0.0,0.0,0.0,0.0,0.0,0.0,0.0,0.0,0.0,0.0,5.5601,5.8961,6.1102,6.4621,6.8552,7.2866,7.369,7.418,7.4826,7.3417,7.2751,7.3428,7.3289,7.3097,7.2914,7.3728,7.3843,7.3057,7.3253,7.3385,7.3385,7.3014,7.2125,7.0708,7.0708,6.9469,6.7144,6.7144,6.7202,6.7318,6.7919,6.8512,6.9151,6.9799,6.9621,6.8962,0.0,0.0,0.0,0.0,6.7267,6.7798,0.0,0.0,0.0,0.0,0.0,0.0,0.0,0.0,0.0,0.0,0.0,4.0338,4.3947,4.8335,5.041,4.8944,4.6667,4.3765,0.0,0.0,0.0,4.0863,4.3818,4.5315,4.5132,4.6927,4.7223,4.592,4.7284,4.7714,4.7319,5.0838,5.2604,5.2901,5.4767,5.5586,5.5548,5.5313,5.4724,5.3858,5.2444,5.0343,4.7757,4.4633,4.458,4.5719,4.2618,4.1653,4.157,3.9762,0.0,0.0,0.0,0.0,0.0,0.0,0.0,0.0,0.0,0.0,0.0,0.0,0.0,0.0,0.0,0.0,0.0,0.0,0.0,0.0,0.0,0.0,0.0,0.0,6.0279,6.4272,6.776,6.926,7.1626,7.5974,7.5876,7.5677,7.6277,7.4877,7.4203,7.4785,7.4719,7.4067,7.2673,7.3196,0.0,0.0,0.0,7.1382,7.1382,7.1234,7.0956,7.0501,7.0426,6.9825,6.8776,6.8776,6.8196,6.7247,6.8497,6.8658,6.8162,6.947,6.9912,6.9697,6.8296,6.7207,6.6705,6.8885,6.9684,6.981,0.0,0.0,0.0,0.0,0.0,0.0,0.0,0.0,0.0,3.0041,3.5063,3.9348,4.2338,4.6632,4.9145,4.8818,4.5939,4.3237,0.0,0.0,4.1061,4.4808,4.485,4.588,4.8254,4.752,4.7155,4.7229,4.7531,4.7432,4.7021,4.8985,5.0768,5.2236,5.2028,5.37,5.6573,5.4741,5.4638,5.5673,5.539,5.2854,4.9063,4.7064,4.6033,4.5482,4.4327,4.5274,4.6693,4.4414,4.4034,4.4282,4.2911,0.0,0.0,0.0,0.0,0.0,0.0,0.0,0.0,0.0,0.0,0.0,0.0,0.0,0.0,0.0,0.0,0.0,0.0,0.0,0.0,5.9973,6.3253,6.7233,7.261,7.2604,7.2652,7.4346,7.5613,7.6408,7.6539,7.5521,7.4884,7.5039,7.4274,7.3489,7.2716,7.3655,7.382,7.299,7.3042,7.3117,7.3117,7.2213,7.1686,7.1585,7.1133,0.0,6.9976,6.9976,6.9373,6.8318,6.8565,6.7877,6.6551,6.6822,6.6445,6.5755,6.6609,6.5555,6.3971,6.7109,6.8298,6.8595,0.0,0.0,0.0,0.0,0.0,0.0,0.0,0.0,0.0,0.0,3.412,3.7827,4.0652,4.3668,4.5049,4.3944,4.1795,0.0,0.0,4.1719,4.3552,4.5918,4.6577,4.7481,4.8678,4.7936,4.7773,4.8245,4.803,4.7773,4.7603,4.9257,5.0569,5.1523,5.2246,5.3528,5.5214,5.5233,5.5575,5.6178,5.7099,5.6125,5.3959,5.1983,5.0569,4.949,4.8645,4.8658,4.8746,4.6693,4.583,4.5388,4.423,4.2166,4.0072,0.0,0.0,0.0,0.0,0.0,0.0,0.0,0.0,0.0,0.0,0.0,0.0,0.0,0.0,5.1216,5.2933,0.0,6.1165,6.4182,6.6978,6.9831,7.2905,7.2964,7.344,7.5546,7.5837,7.6095,7.6692,7.5529,7.4737,7.4737,7.4288,7.387,7.357,7.4097,7.4273,7.4021,7.3996,7.3996,7.3996,7.3443,7.3167,7.3118,7.2615,7.2037,7.1485,7.1232,7.033,6.8979,6.8979,6.8224,6.694,6.6664,6.5907,6.4957,6.5712,6.4873,6.3543,6.5964,6.6852,6.7135,0.0,0.0,0.0,0.0,0.0,0.0,0.0,0.0,0.0,0.0,3.271,3.5807,3.8291,4.0075,4.0264,0.0,0.0,0.0,0.0,4.3271,4.5568,4.6742,4.8306,4.8974,4.86,4.8594,4.8769,4.9144,4.8769,4.8594,4.862,5.0085,5.0994,5.1482,5.2735,5.3511,5.396,5.5772,5.6451,5.6497,5.8416,5.9187,5.8987,5.7217,5.5616,5.4185,5.3005,5.1373,4.954,4.8218,4.6547,4.5044,4.4735,4.387,4.2719,4.1474,4.1217,0.0,0.0,0.0,0.0,0.0,0.0,0.0,0.0,4.6691,4.9091,5.1947,5.3804,5.5992,5.9683,6.2625,6.5349,6.793,7.0239,7.1896,7.2321,7.2767,7.4049,7.6821,7.5942,7.5492,7.6476,7.5427,7.4724,7.4724,7.4724,7.4724,7.4724,7.4724,7.4724,7.4724,7.4724,7.4724,7.4724,7.4599,7.4549,7.4549,7.4021,7.3519,7.3018,7.2489,7.1411,7.0008,6.9582,6.8851,6.7919,6.7389,6.656,6.5631,6.5484,6.4781,6.402,6.5453,6.591,6.6018,0.0,0.0,0.0,0.0,0.0,0.0,0.0,0.0,0.0,0.0,0.0,0.0,0.0,0.0,0.0,0.0,0.0,4.0152,4.2964,4.3761,4.5899,4.981,4.9317,4.9262,4.9965,4.9984,5.0004,5.0043,5.0004,4.9984,4.9984,5.0185,5.1349,5.3188,5.0995,5.2032,5.5436,5.5268,5.6107,5.7693,6.0009,6.0934,6.0909,6.0658,5.893,5.6426,5.4881,5.2578,5.0277,5.0101,4.8604,4.7,4.8051,4.7153,4.5589,4.518,0.0,4.1025,4.0952,4.0675,4.1055,4.3848,4.5353,4.8039,0.0,5.7211,5.7884,5.9213,6.213,6.3955,6.233,6.5726,6.9225,7.0517,7.1759,7.2926,7.3946,7.4172,7.4516,7.5351,7.5308,7.5264,7.539,7.5699,7.5928,7.5928,7.5928,7.5928,7.5928,7.5928,7.5928,7.5928,7.5928,7.5928,7.5928,7.5377,7.5102,7.5102,7.4574,7.4273,7.4172,7.3644,7.3016,7.2215,7.0259,6.9055,6.8475,6.7919,6.7342,6.6761,6.6212,6.5333,6.4596,6.6073,6.6272,6.6018,0.0,0.0,0.0,0.0,0.0,0.0,0.0,0.0,0.0,0.0,0.0,0.0,0.0,0.0,0.0,0.0,3.519,3.8439,4.0067,4.3957,4.7439,5.022,4.9903,4.9945,5.0527,5.0336,5.0317,5.0547,5.0547,5.0547,5.0547,5.0547,5.0917,5.1561,5.0409,5.087,5.2568,5.37,5.4605,5.5621,5.9441,6.0771,6.0503,6.0642,5.9137,5.6734,5.4787,5.2503,0.0,0.0,4.8319,4.8117,4.8294,4.7427,4.6105,4.4891,4.3855,0.0,4.404,4.4896,4.6003,4.7717,5.0739,5.4383,5.862,6.0087,6.1451,6.4497,6.6142,6.7227,6.7972,6.9893,7.1728,7.2833,7.3394,7.4096,7.5225,7.4824,7.4223,7.3796,7.4323,7.5001,7.5653,7.5954,7.6104,7.6104,7.6104,7.6104,7.6104,7.6104,7.6104,7.6104,7.6104,7.6104,7.6104,7.5853,7.5703,7.5703,7.5126,7.47,7.4373,7.3845,7.3092,7.2139,7.0606,6.9426,6.855,6.802,6.7267,6.6438,6.6212,6.5434,6.4551,6.4832,6.457,6.4132,0.0,0.0,0.0,0.0,0.0,0.0,0.0,0.0,0.0,0.0,0.0,0.0,0.0,0.0,2.9277,2.8169,3.2547,3.5873,3.7069,4.3015,4.7447,4.9543,5.0121,5.0605,5.1152,5.0976,5.1035,5.1328,5.1328,5.1328,5.1328,5.1328,5.1113,5.0727,5.0586,5.0527,5.0675,5.2742,5.3678,5.413,5.8045,5.9592,5.9468,5.8725,5.7198,5.5171,5.3256,5.0845,0.0,0.0,4.62,4.6718,4.6577,4.6301,4.5803,4.4876,4.4966,4.5519,4.6337,4.8297,5.0493,5.2235,5.635,6.0488,6.2248,6.3698,6.5521,6.8628,6.927,6.9896,7.2037,7.2835,7.3495,7.4474,7.4774,7.5151,7.5978,7.4999,7.3796,7.2817,7.3018,7.3644,7.4623,7.5401,7.5904,7.6104,7.6104,7.6104,7.6104,7.6104,7.6104,7.6104,7.6104,7.6104,7.6104,7.6104,7.6104,7.6104,7.5653,7.5151,7.4599,7.392,7.2891,7.1636,7.0855,6.9853,6.8776,6.8224,6.7442,6.6564,6.6413,6.5685,6.4651,6.4124,6.345,6.2802,0.0,0.0,0.0,0.0,0.0,0.0,0.0,0.0,0.0,0.0,0.0,0.0,0.0,0.0,2.8075,2.6868,2.9987,3.3096,3.5606,4.0477,4.4752,4.8105,4.9883,5.1172,5.2056,5.2422,5.2637,5.2656,5.2656,5.2656,5.2656,5.2656,5.2422,5.2036,5.1558,5.1362,5.1449,5.2942,5.3866,5.441,5.5996,5.7316,5.8011,5.4969,5.2829,5.1314,5.0159,0.0,0.0,0.0,4.1982,4.1729,4.2824,4.3843,0.0,4.646,4.7038,4.7236,4.7258,4.9643,5.3174,5.7679,6.1838,6.5568,6.8469,7.065,7.1963,7.1499,7.2349,7.3057,7.2829,7.3642,7.4524,7.5101,7.5653,7.6079,7.6104,7.4673,7.3393,7.2767,7.1334,7.0629,7.1207,7.3645,7.5453,7.6079,7.6104,7.6104,7.6104,7.6104,7.6104,7.6104,7.6104,7.6104,7.6104,7.6104,7.6104,7.6104,7.6079,7.5778,7.5151,7.4096,7.269,7.1131,7.1106,7.043,6.9331,6.8801,6.8249,6.7693,6.7188,6.6284,6.5229,6.4676,6.3751,6.2802,0.0,0.0,0.0,0.0,0.0,0.0,0.0,0.0,0.0,0.0,0.0,0.0,0.0,0.0,0.0,0.0,2.8568,3.0958,3.2794,3.8205,4.2773,4.5935,4.8551,5.0234,5.0825,5.123,5.1558,5.1831,5.2422,5.2397,5.185,5.2441,5.2299,5.1636,5.1797,5.1855,5.1885,5.2377,5.2519,5.2454,5.3455,5.3711,5.3482,5.2981,5.0239,4.6375,0.0,0.0,0.0,3.8856,3.868,3.9257,4.0036,4.0732,4.165,4.3543,4.6241,4.9093,5.1286,5.5867,6.0573,6.2846,6.6705,7.0238,7.1491,7.2416,7.2949,7.2789,7.2252,7.1576,7.0696,7.1158,7.1962,7.2866,7.382,7.4824,7.5953,7.5251,7.362,7.0836,7.101,7.0579,6.8569,7.0857,7.3167,7.4849,7.4975,7.5301,7.6054,7.6104,7.6104,7.6104,7.6104,7.6104,7.6104,7.6104,7.6104,7.6104,7.5326,7.4674,7.4121,7.2991,7.2163,7.1585,7.088,6.9903,6.8826,6.8274,6.7518,6.6639,6.6061,6.543,6.4701,6.4174,6.3475,6.2802,0.0,0.0,0.0,0.0,0.0,0.0,0.0,0.0,0.0,0.0,0.0,0.0,0.0,0.0,0.0,0.0,0.0,2.898,2.9853,3.4964,3.9317,4.2343,4.4783,4.6582,4.764,4.7598,4.8105,4.9117,4.9664,4.9976,5.0078,5.0757,5.0777,5.0269,5.0898,5.125,5.1391,5.0922,5.0449,5.0051,4.9962,4.9428,4.8582,4.8008,4.538,0.0,0.0,0.0,0.0,3.4899,3.5716,3.7173,3.7591,3.9564,4.21,4.4121,4.8062,5.2696,5.6914,6.1549,6.577,6.8114,7.1154,7.3544,7.3471,7.3554,7.3337,7.2193,7.0716,6.9248,6.7872,6.7643,6.8193,6.9878,7.0932,7.2389,7.4849,7.4021,7.2342,7.0257,7.0104,6.9476,6.7719,6.8999,7.1008,7.3595,7.4172,7.4799,7.5728,7.5979,7.6104,7.6104,7.6104,7.6104,7.6104,7.6104,7.5979,7.5778,7.4849,7.4121,7.3569,7.2615,7.1987,7.156,7.088,6.9828,6.855,6.802,6.7267,6.6363,6.581,6.538,6.4978,6.4249,6.3726,6.335,0.0,0.0,0.0,0.0,0.0,0.0,0.0,0.0,0.0,0.0,0.0,0.0,0.0,0.0,0.0,0.0,0.0,0.0,2.6852,3.0786,3.4456,3.7424,3.8965,4.0703,4.2754,4.2051,4.2695,4.4744,4.4764,4.5625,4.7249,4.7656,4.7851,4.7891,4.8727,4.9355,4.9691,4.8418,4.762,4.7118,4.5555,4.4501,4.352,4.0555,0.0,0.0,0.0,0.0,3.0728,3.1362,3.3509,3.5913,3.6066,4.0519,4.6148,4.8303,5.2531,5.7786,6.3651,6.6462,6.881,7.3195,7.4944,7.5346,7.4407,7.4103,7.3083,6.9806,6.7794,6.6033,6.43,6.3224,6.353,6.6384,6.7464,6.9275,7.3167,7.1411,7.0106,7.1081,6.8921,6.7668,6.86,6.8271,6.9325,7.2466,7.367,7.4549,7.5227,7.5803,7.6104,7.6104,7.6104,7.6104,7.6104,7.6104,7.5778,7.5152,7.4649,7.4121,7.3519,7.2892,7.2062,7.1056,7.1006,7.0029,6.8475,6.7945,6.7414,6.6861,6.6237,6.5986,6.586,6.4802,6.44,6.4249,0.0,0.0,0.0,0.0,0.0,0.0,0.0,0.0,0.0,0.0,0.0,0.0,0.0,0.0,0.0,0.0,0.0,0.0,2.4631,2.7734,3.0527,3.2598,3.5798,3.7908,3.875,0.0,0.0,4.1211,4.1504,4.1875,4.2304,4.2773,4.2989,4.3008,4.3535,4.3828,4.3906,4.3574,4.3119,4.2466,0.0,3.9688,3.9054,0.0,0.0,0.0,0.0,0.0,3.137,3.3404,3.7241,4.1401,4.2703,4.5625,4.9407,5.3668,5.7753,6.1962,6.6875,7.0456,7.2977,7.3908,7.4683,7.4768,7.2946,7.1245,6.9235,6.6341,6.3124,6.006,5.7587,5.8554,6.0794,6.4002,6.7414,7.1006,7.4923,7.4849,7.3869,7.2441,7.2062,7.1382,7.0001,7.0455,7.1361,7.2616,7.2591,7.3519,7.5753,7.6029,7.6104,7.6104,7.6104,7.6104,7.6104,7.6104,7.5602,7.4599,7.4449,7.3871,7.2892,7.1937,7.1156,7.0476,6.9602,6.8547,6.7342,6.6789,6.6212,6.5656,6.468,6.4304,6.4228,6.35,6.3229,6.3178,0.0,0.0,0.0,0.0,0.0,0.0,0.0,0.0,0.0,0.0,0.0,0.0,0.0,0.0,0.0,0.0,0.0,0.0,0.0,2.4785,2.6744,2.8288,3.0439,3.1968,3.2758,3.3301,0.0,0.0,0.0,0.0,3.6565,3.7029,3.7342,3.7557,3.832,3.8789,3.9002,3.91,0.0,0.0,0.0,0.0,0.0,0.0,0.0,0.0,0.0,0.0,3.7214,4.0097,4.3082,4.6146,4.9308,5.2497,5.5888,6.0032,6.3633,6.7157,7.1007,7.358,7.5211,7.5299,7.4674,7.3283,7.04,6.8221,6.5459,6.0733,5.765,5.487,5.185,5.3783,5.7054,6.0884,6.5229,6.9725,7.4346,7.4572,7.407,7.352,7.3294,7.2816,7.1835,7.2062,7.2666,7.3721,7.3294,7.3795,7.5603,7.5954,7.6104,7.6104,7.6104,7.6104,7.6104,7.5853,7.5276,7.4398,7.4171,7.3594,7.2666,7.1836,7.1156,7.0579,6.9451,6.8324,6.7314,6.6739,6.6162,6.5584,6.4982,6.4605,6.4329,6.3751,6.34,6.3153,0.0,0.0,0.0,0.0,0.0,0.0,0.0,0.0,0.0,0.0,0.0,0.0,0.0,0.0,0.0,0.0,0.0,0.0,0.0,0.0,0.0,0.0,2.4769,2.5383,2.655,2.6289,2.6855,2.8307,2.8365,0.0,0.0,0.0,0.0,0.0,0.0,0.0,0.0,0.0,0.0,0.0,0.0,0.0,0.0,0.0,0.0,0.0,0.0,0.0,4.3779,4.8062,5.0045,5.1456,5.5919,5.9953,6.3636,6.6494,6.9153,7.1886,7.4938,7.5782,7.5963,7.6529,7.455,7.1462,6.7665,6.4953,6.1336,5.4461,5.19,5.0001,4.7074,4.9398,5.3331,5.8121,6.2566,6.7392,7.3117,7.3016,7.2916,7.4423,7.3796,7.3445,7.3971,7.3644,7.3947,7.5327,7.4976,7.49,7.5302,7.5828,7.6104,7.6104,7.6104,7.6104,7.6104,7.5578,7.5001,7.4373,7.392,7.3368,7.2692,7.2087,7.1485,7.093,6.9705,6.8625,6.7643,6.7037,6.6485,6.5986,6.5936,6.5609,6.5153,6.4651,6.4199,6.3685,0.0,0.0,0.0,0.0,0.0,0.0,0.0,0.0,0.0,0.0,2.4456,2.3211,0.0,0.0,0.0,0.0,0.0,0.0,0.0,0.0,0.0,0.0,2.3095,2.3739,2.4336,2.4598,2.4891,2.5183,2.5578,2.6074,0.0,0.0,0.0,0.0,0.0,0.0,0.0,0.0,0.0,0.0,0.0,0.0,0.0,0.0,0.0,0.0,0.0,3.684,4.0477,0.0,5.6544,6.0923,6.2531,6.5405,6.8594,7.0928,7.1414,7.1969,7.5519,7.5916,7.5332,7.5457,7.3402,7.0355,6.6485,6.1135,5.5584,5.0661,4.6944,4.4407,4.3829,4.7195,5.2226,5.8911,6.3375,6.8221,7.4748,7.5075,7.49,7.5703,7.6029,7.6205,7.6331,7.6632,7.6758,7.6607,7.6531,7.6331,7.5954,7.6054,7.6104,7.6104,7.6104,7.6104,7.6104,7.5979,7.5402,7.4398,7.4322,7.3721,7.2666,7.1686,7.0956,7.035,6.8748,6.7719,6.7062,6.6033,6.5534,6.5383,6.4953,6.4726,6.4626,6.4526,6.4446,6.4053,0.0,0.0,0.0,0.0,0.0,0.0,0.0,2.5947,2.6143,2.8204,2.7595,2.6343,2.4688,2.3207,0.0,0.0,0.0,0.0,0.0,0.0,0.0,0.0,0.0,0.0,2.213,2.2969,2.3309,2.3105,0.0,2.3848,2.404,2.4277,2.4461,2.4699,2.5495,2.6156,2.6747,0.0,0.0,2.9098,3.0183,3.0851,0.0,0.0,0.0,0.0,0.0,3.9447,4.3238,4.9216,5.6575,6.379,6.7096,6.9621,7.1621,7.3089,7.3395,7.3612,7.5441,7.58,7.5603,7.5277,7.2265,6.8045,6.3019,5.6965,5.087,4.5573,4.2548,4.0879,4.0879,4.4708,4.9665,5.5146,5.9037,6.4128,7.1984,7.2062,7.2539,7.5727,7.633,7.6481,7.6481,7.6707,7.6758,7.6481,7.6481,7.6356,7.6129,7.6104,7.6104,7.6104,7.6104,7.5954,7.5628,7.5352,7.4799,7.3996,7.367,7.3068,7.2265,7.146,7.0805,7.0225,6.8544,6.7643,6.7317,6.6187,6.571,6.5685,6.5434,6.5179,6.4927,6.4927,6.3917,6.241,0.0,0.0,0.0,0.0,0.0,0.0,0.0,2.7407,2.7547,3.0243,3.0169,2.8782,2.5863,2.3379,2.1436,0.0,0.0,0.0,0.0,0.0,0.0,0.0,0.0,0.0,0.0,0.0,0.0,2.1748,2.2255,0.0,0.0,0.0,0.0,0.0,2.4259,2.5062,2.5619,2.7357,2.8362,0.0,0.0,3.1444,0.0,0.0,0.0,0.0,0.0,4.0866,4.4819,4.7532,5.3581,6.0957,6.6552,7.0245,7.2593,7.3107,7.4065,7.5008,7.5311,7.5804,7.6004,7.4925,7.0934,6.5609,5.9251,5.2997,4.6903,4.114,3.9107,3.8504,3.8994,4.2548,4.6928,5.1507,5.4745,5.9784,6.8695,6.9021,7.0227,7.5301,7.6104,7.628,7.628,7.638,7.6406,7.628,7.6179,7.6104,7.6104,7.6104,7.6054,7.5904,7.5904,7.5603,7.5051,7.4599,7.4146,7.3594,7.3118,7.2591,7.2039,7.1384,7.0805,7.0225,6.8544,6.7744,6.7543,6.6538,6.609,6.609,6.609,6.5835,6.5416,6.49,6.3202,6.1013,0.0,0.0,0.0,0.0,0.0,0.0,0.0,2.7058,2.8119,3.2585,3.0285,2.7569,2.5858,2.4891,2.2861,0.0,0.0,0.0,0.0,0.0,0.0,0.0,0.0,0.0,0.0,0.0,0.0,2.1259,2.2088,0.0,0.0,0.0,0.0,0.0,0.0,2.5921,2.7814,2.8004,0.0,0.0,0.0,0.0,0.0,0.0,0.0,0.0,0.0,3.7815,3.9249,4.6056,4.8724,5.0255,5.6198,6.3799,7.0457,7.0006,7.2041,7.4688,7.5727,7.6406,7.6205,7.357,6.92,6.3697,5.6607,4.9816,4.3776,3.9157,3.7386,3.7235,3.9258,4.1255,4.4823,5.1707,5.4361,5.8629,6.7496,6.9501,7.1382,7.4875,7.6205,7.6833,7.6833,7.7285,7.7335,7.6858,7.638,7.6104,7.6104,7.6104,7.5853,7.5302,7.5277,7.5026,7.4474,7.4423,7.4146,7.3594,7.3544,7.3217,7.2591,7.156,7.0805,7.0225,6.8544,6.7518,6.7037,6.6363,6.609,6.609,6.609,6.6086,6.5753,6.3571,6.2573,6.1703,0.0,0.0,0.0,0.0,0.0,0.0,2.7976,2.6875,2.721,3.2018,3.0617,2.8145,2.5445,2.459,2.2573,1.8485,0.0,0.0,0.0,0.0,0.0,0.0,0.0,0.0,0.0,0.0,2.1611,2.1611,2.2459,0.0,0.0,0.0,0.0,0.0,0.0,2.7276,2.8174,2.9435,0.0,0.0,0.0,0.0,0.0,0.0,0.0,0.0,0.0,0.0,3.884,4.0417,4.2985,4.5621,4.6286,5.193,5.9397,6.4852,6.8801,7.2014,7.4799,7.6205,7.6331,7.3845,6.8497,6.2094,5.5559,4.8118,4.1628,3.8216,3.6395,3.6056,3.8266,3.9509,4.1909,4.7064,4.7933,5.0912,5.9458,6.0758,6.342,7.0407,7.2213,7.3844,7.618,7.6607,7.6657,7.6431,7.623,7.5929,7.5578,7.5578,7.5453,7.5202,7.49,7.4449,7.392,7.392,7.3644,7.3043,7.3043,7.2591,7.1736,7.1284,7.0606,6.9702,6.8371,6.7668,6.7392,6.6488,6.609,6.609,6.609,6.5199,6.382,6.2846,6.061,5.7757,0.0,0.0,0.0,0.0,0.0,2.2857,2.7874,2.6291,2.6061,3.0298,2.972,2.7722,2.4657,2.3255,2.1372,1.8492,1.7722,0.0,0.0,0.0,0.0,0.0,0.0,0.0,0.0,0.0,2.2061,2.237,2.3197,2.4189,0.0,0.0,2.5901,2.7014,0.0,0.0,0.0,0.0,0.0,0.0,0.0,0.0,0.0,0.0,0.0,0.0,0.0,0.0,0.0,0.0,0.0,4.1532,3.939,4.276,4.9398,5.9176,6.5208,6.9504,7.3219,7.5527,7.6205,7.3342,6.7543,6.0844,5.4235,4.6687,4.0223,3.73,3.5643,3.5292,3.7186,3.8128,3.9785,4.3313,4.3804,4.6466,5.4303,5.5509,5.8523,6.6438,6.8243,7.03,7.4019,7.5426,7.6104,7.6104,7.6104,7.5853,7.5252,7.5051,7.49,7.4725,7.4348,7.382,7.3092,7.3092,7.2816,7.2215,7.2215,7.1836,7.1106,7.0757,7.0056,6.9105,6.8045,6.7467,6.7241,6.6438,6.609,6.6026,6.5307,6.3995,6.2314,6.0835,5.8103,5.4997,0.0,0.0,0.0,0.0,0.0,0.0,2.6163,2.5175,2.4874,2.7587,2.7128,2.5681,2.345,2.0899,1.9324,1.9285,1.8123,0.0,0.0,0.0,0.0,0.0,0.0,0.0,0.0,0.0,0.0,2.3493,2.4367,2.5368,2.6483,2.6483,2.7055,2.8124,0.0,0.0,0.0,0.0,0.0,0.0,0.0,0.0,0.0,0.0,0.0,0.0,0.0,0.0,0.0,0.0,0.0,0.0,0.0,3.8354,4.2671,5.3188,6.1391,6.7741,7.1033,7.4347,7.5853,7.1408,6.6133,5.9985,5.2209,4.5282,3.9546,3.6222,3.5093,3.5041,3.6217,3.7299,3.8919,4.1772,4.4044,4.7798,5.4479,5.6821,5.9527,6.4019,6.5028,6.6686,7.0026,7.3843,7.6104,7.6104,7.6104,7.5853,7.5252,7.47,7.4171,7.3619,7.3594,7.3067,7.1937,7.1937,7.1636,7.1131,7.1131,7.1106,7.1081,6.993,6.9105,6.855,6.7467,6.6686,6.6137,6.609,6.609,6.585,6.3466,6.2514,6.1889,5.6992,5.5141,5.4737,0.0,0.0,0.0,0.0,0.0,0.0,0.0,2.0978,2.0346,2.28,2.1942,2.129,2.1779,1.9795,1.8652,1.9256,1.7583,0.0,0.0,0.0,0.0,0.0,0.0,0.0,0.0,0.0,0.0,0.0,0.0,0.0,2.9287,2.8925,2.9486,3.0765,3.0679,3.1207,0.0,0.0,0.0,0.0,0.0,0.0,3.7403,0.0,0.0,0.0,0.0,0.0,0.0,0.0,0.0,0.0,0.0,0.0,0.0,4.3725,5.2201,6.0186,6.2722,6.5584,6.6789,6.2345,5.7926,5.313,4.723,4.2194,3.8053,3.5481,3.4828,3.5041,3.618,3.6984,3.8982,4.3678,4.4694,4.6687,5.1867,5.5315,5.8786,6.2873,6.8871,7.3114,7.4169,7.5375,7.6104,7.6104,7.6104,7.5678,7.47,7.4499,7.4171,7.3619,7.3217,7.264,7.1912,7.1912,7.1636,7.1106,7.1106,7.0905,7.0529,6.9755,6.9127,6.855,6.7489,6.6887,6.6556,6.4494,6.3644,6.34,6.0948,5.8929,5.7248,5.5682,5.4022,5.2475,0.0,0.0,0.0,0.0,0.0,0.0,0.0,1.8753,1.7898,1.9388,1.8581,1.8586,2.039,1.8459,1.7591,1.9015,1.7133,0.0,0.0,0.0,0.0,0.0,0.0,0.0,0.0,0.0,0.0,0.0,0.0,0.0,0.0,0.0,3.2509,3.2325,3.2796,3.3062,0.0,0.0,0.0,0.0,0.0,0.0,3.8171,0.0,0.0,0.0,0.0,0.0,0.0,0.0,0.0,0.0,0.0,0.0,0.0,0.0,4.3714,5.0795,5.5917,5.9357,6.0688,5.7255,5.3356,4.9104,4.4281,4.0023,3.6485,3.4513,3.4098,3.4449,3.5541,3.6369,3.824,4.2322,4.3402,4.5246,4.9732,5.3833,5.8208,6.3153,6.9775,7.3994,7.417,7.5375,7.6104,7.6104,7.5878,7.5352,7.4449,7.4222,7.3745,7.2966,7.2792,7.234,7.161,7.1585,7.1209,7.0455,7.0455,7.0179,6.9649,6.9052,6.85,6.7945,6.7041,6.666,0.0,6.3655,6.2491,6.2158,5.8723,5.6478,5.4997,5.4046,5.272,5.1401,0.0,0.0,0.0,0.0,0.0,0.0,0.0,1.8116,1.7212,1.719,1.6875,1.7336,1.9154,1.704,1.6365,1.8492,0.0,0.0,0.0,0.0,0.0,0.0,0.0,0.0,0.0,0.0,0.0,0.0,3.1619,3.334,3.511,0.0,0.0,0.0,3.5207,3.5374,0.0,0.0,0.0,0.0,0.0,0.0,0.0,0.0,0.0,0.0,0.0,0.0,0.0,0.0,0.0,0.0,0.0,0.0,0.0,0.0,0.0,0.0,0.0,5.4461,5.6244,5.4504,5.0937,4.6758,4.2526,3.8316,0.0,3.3305,3.304,3.3456,3.4614,3.5666,3.6996,3.9044,4.1068,4.3933,4.8366,5.3047,5.8472,6.4982,6.8695,7.0855,7.1257,7.4196,7.6079,7.6054,7.5527,7.4951,7.4373,7.382,7.3042,7.1937,7.234,7.2089,7.1056,7.1056,7.048,6.9406,6.9356,6.908,6.8575,6.802,6.7467,6.6962,6.6363,6.6004,6.5656,6.3223,6.2136,6.1509,5.6713,5.4855,5.4548,5.2258,5.1401,5.1401,0.0,0.0,0.0,0.0,0.0,0.0,0.0,0.0,0.0,0.0,1.5722,1.6344,1.6797,1.6611,1.6457,0.0,0.0,0.0,0.0,0.0,0.0,0.0,0.0,0.0,0.0,0.0,0.0,3.0585,3.3372,3.6144,3.8824,3.8726,0.0,0.0,0.0,0.0,0.0,0.0,0.0,0.0,0.0,0.0,0.0,0.0,0.0,0.0,3.657,3.5652,0.0,0.0,0.0,0.0,0.0,0.0,0.0,0.0,3.3255,3.515,3.8304,0.0,4.3976,4.1491,3.9734,3.8028,0.0,0.0,0.0,0.0,0.0,3.3693,3.5653,3.5855,3.7526,4.3051,4.3991,4.5598,5.0083,5.7443,6.435,6.9702,7.294,7.4271,7.3117,7.4874,7.5904,7.5453,7.5277,7.48,7.3845,7.3219,7.2591,7.1937,7.1636,7.1156,7.0478,7.0478,7.0104,6.9406,6.8979,6.8726,6.8575,6.7618,6.7113,6.6962,6.6363,6.5047,6.3157,6.0677,5.8539,5.6527,5.347,5.2258,5.2185,5.162,5.1401,5.1401,0.0,0.0,0.0,0.0,0.0,0.0,0.0,0.0,0.0,0.0,0.0,0.0,0.0,0.0,0.0,0.0,0.0,0.0,0.0,0.0,0.0,0.0,0.0,0.0,0.0,0.0,0.0,0.0,0.0,3.856,0.0,0.0,0.0,0.0,0.0,0.0,0.0,0.0,0.0,0.0,3.992,0.0,0.0,0.0,0.0,0.0,3.6085,3.506,0.0,3.4279,3.3717,3.2663,0.0,0.0,0.0,0.0,3.1271,3.2089,3.2656,3.5844,3.8693,3.745,3.6309,3.5218,0.0,0.0,0.0,0.0,0.0,3.3014,3.5214,3.5556,3.7275,4.2696,4.3951,4.6778,5.4052,6.0507,6.6434,7.1661,7.3845,7.4899,7.4773,7.5326,7.5552,7.5202,7.4475,7.3921,7.3619,7.2313,7.146,7.1182,7.0631,7.0305,7.03,7.03,6.9875,6.9029,6.8751,6.8324,6.7844,6.7263,6.6861,6.652,6.5062,6.371,6.2225,5.8585,5.6315,5.4855,5.2379,5.1401,5.1401,5.1401,5.1401,5.1382,0.0,0.0,0.0,0.0,0.0,0.0,0.0,0.0,0.0,0.0,0.0,0.0,0.0,0.0,0.0,0.0,0.0,0.0,0.0,0.0,0.0,0.0,0.0,0.0,0.0,0.0,0.0,0.0,0.0,0.0,0.0,0.0,0.0,0.0,0.0,0.0,0.0,0.0,0.0,0.0,3.9977,0.0,0.0,0.0,0.0,0.0,0.0,0.0,0.0,3.5182,3.4727,3.3346,3.3296,0.0,0.0,0.0,0.0,0.0,3.0999,3.4022,3.7048,3.691,3.5983,0.0,0.0,0.0,0.0,0.0,0.0,3.2516,3.489,3.5896,3.7664,4.154,4.4027,4.8912,5.8855,6.2993,6.6887,7.1964,7.3343,7.4297,7.5451,7.5276,7.5026,7.4826,7.352,7.2842,7.3192,7.1282,7.0152,7.0152,6.9504,6.9403,6.9901,7.0001,6.9501,6.8475,6.8374,6.7869,6.6987,6.6912,6.6589,6.5983,6.3532,6.2291,6.1576,5.6992,5.4879,5.4331,5.221,5.1401,5.1401,5.1343,5.1304,5.1245,0.0,0.0,0.0,0.0,0.0,0.0,0.0,0.0,0.0,0.0,0.0,0.0,0.0,0.0,0.0,0.0,0.0,0.0,0.0,0.0,0.0,0.0,0.0,0.0,0.0,0.0,0.0,0.0,0.0,0.0,4.8301,4.9699,4.766,0.0,0.0,0.0,0.0,0.0,0.0,0.0,3.9423,0.0,0.0,0.0,0.0,0.0,0.0,0.0,0.0,3.1969,3.1922,3.161,3.0718,0.0,0.0,0.0,0.0,0.0,3.2767,3.4924,3.5753,3.2541,3.2616,0.0,0.0,0.0,0.0,0.0,3.2792,3.4486,3.7663,3.9433,4.169,4.5593,4.9992,5.5476,6.2692,6.5781,6.8472,7.1661,7.3771,7.4499,7.3319,7.3997,7.4122,7.3168,7.2842,7.234,7.1533,7.0232,6.9554,6.9554,6.8575,6.8095,6.817,6.8648,6.8547,6.7919,6.7442,6.7163,6.6987,6.6463,6.6187,6.5983,6.3532,6.1308,5.9157,5.6291,5.3876,5.1939,5.1547,5.1401,5.1362,5.1011,5.0898,5.084,0.0,0.0,0.0,0.0,0.0,0.0,0.0,0.0,0.0,0.0,0.0,0.0,0.0,0.0,0.0,0.0,0.0,0.0,0.0,0.0,0.0,0.0,0.0,0.0,0.0,0.0,0.0,0.0,0.0,4.7742,5.1937,4.9594,4.695,4.3993,0.0,0.0,0.0,0.0,0.0,0.0,0.0,0.0,0.0,0.0,0.0,0.0,0.0,0.0,0.0,0.0,3.2574,3.2175,3.1361,0.0,0.0,0.0,0.0,0.0,3.126,3.2878,3.3858,3.2692,0.0,0.0,0.0,0.0,0.0,0.0,3.5114,3.6696,4.0062,4.2258,4.5432,5.1105,5.5717,5.9979,6.3923,6.6409,6.8823,7.1585,7.2792,7.357,7.4022,7.3721,7.3269,7.2742,7.1887,7.1207,7.0679,6.9325,6.8525,6.8525,6.7769,6.7216,6.689,6.7442,6.7593,6.7342,6.7113,6.6836,6.6488,6.6237,6.5244,6.3646,6.1459,5.8976,5.6298,5.4014,5.2311,5.1069,5.1069,5.0933,5.0723,5.0527,5.0312,5.0054,0.0,0.0,0.0,0.0,0.0,0.0,0.0,0.0,0.0,0.0,0.0,0.0,0.0,0.0,0.0,0.0,0.0,0.0,0.0,0.0,0.0,0.0,0.0,0.0,0.0,0.0,0.0,4.3989,4.8052,5.1729,5.4845,4.9855,4.6496,0.0,0.0,0.0,0.0,0.0,0.0,0.0,0.0,0.0,0.0,0.0,0.0,0.0,0.0,0.0,0.0,0.0,0.0,0.0,0.0,0.0,0.0,3.0636,2.9634,2.9406,3.0718,3.1837,3.2907,3.4184,0.0,0.0,0.0,0.0,0.0,0.0,0.0,3.9974,4.2663,4.5713,4.9866,5.6125,6.0417,6.3601,6.5383,6.7442,6.9652,7.2012,7.2188,7.2742,7.4449,7.3219,7.2215,7.1964,7.0782,6.9976,6.9725,6.8394,6.7618,6.7618,6.7087,6.651,6.5936,6.6363,6.666,6.6786,6.6786,6.6538,6.609,6.5526,6.3986,6.1664,5.8978,5.6552,5.4324,5.2052,5.0972,5.0801,5.0703,5.0391,5.0043,5.0043,4.9746,4.9375,0.0,0.0,0.0,0.0,0.0,0.0,0.0,0.0,0.0,0.0,0.0,0.0,0.0,0.0,0.0,0.0,0.0,0.0,0.0,0.0,0.0,0.0,0.0,0.0,0.0,4.0631,4.4016,5.1603,5.3989,5.5768,5.681,5.2875,4.8758,4.4599,0.0,0.0,0.0,0.0,0.0,0.0,0.0,0.0,0.0,0.0,0.0,0.0,0.0,0.0,0.0,0.0,0.0,0.0,0.0,0.0,3.1463,3.1185,3.0443,3.0487,3.3955,3.4351,3.4184,3.5803,0.0,0.0,0.0,0.0,0.0,4.261,0.0,4.5135,4.5874,5.077,5.5842,5.9413,6.3254,6.6567,6.8728,7.0508,7.2087,7.3318,7.2968,7.2717,7.2867,7.1887,7.0782,6.9707,6.9531,6.9027,6.802,6.7389,6.7062,6.7062,6.6488,6.5911,6.5358,6.5383,6.566,6.614,6.614,6.614,6.6026,6.3776,6.2405,6.1553,5.6846,5.4697,5.4262,5.1461,5.0488,5.0762,5.0395,4.9961,4.9547,4.9547,4.9297,4.8929,0.0,0.0,0.0,0.0,0.0,0.0,0.0,0.0,0.0,0.0,0.0,0.0,0.0,0.0,0.0,0.0,0.0,0.0,0.0,0.0,0.0,0.0,0.0,3.7044,4.3057,4.4394,4.8283,5.4997,5.8148,5.8693,5.6657,5.1428,0.0,0.0,0.0,0.0,0.0,0.0,0.0,0.0,0.0,0.0,0.0,0.0,0.0,0.0,0.0,0.0,0.0,0.0,3.0314,3.0959,3.0055,3.0768,3.1759,3.1047,3.0078,2.9696,3.1817,3.313,3.4374,3.6406,0.0,0.0,0.0,0.0,0.0,4.8284,4.9841,0.0,5.2226,5.5189,5.8548,6.1868,6.5082,6.7819,6.9702,7.0782,7.1686,7.2464,7.2037,7.1836,7.2164,7.0884,6.988,6.9431,6.8776,6.8095,6.7339,6.7113,6.6686,6.5982,6.571,6.4623,6.2662,6.2616,6.2738,6.2954,6.4421,6.5103,6.5019,6.2651,6.0487,5.8462,5.5392,5.3067,5.1347,5.0543,5.0117,4.9937,4.9555,4.9281,4.9125,4.9125,4.9027,4.8913,0.0,0.0,0.0,0.0,0.0,0.0,0.0,0.0,0.0,0.0,0.0,0.0,0.0,0.0,0.0,0.0,0.0,0.0,0.0,0.0,0.0,0.0,0.0,3.6832,4.2492,4.5841,5.0487,5.6578,5.9852,5.9472,5.5513,0.0,0.0,0.0,0.0,0.0,0.0,0.0,0.0,0.0,0.0,0.0,0.0,0.0,0.0,0.0,0.0,0.0,0.0,0.0,3.0644,3.124,3.0707,3.1291,3.2061,3.1658,3.0426,2.9435,3.0495,3.1944,3.3646,0.0,0.0,0.0,0.0,0.0,0.0,5.3181,5.4235,5.4963,5.647,5.7951,5.9929,6.2923,6.6036,6.8572,7.0099,7.0755,7.1257,7.161,7.1008,7.0706,7.106,6.978,6.8826,6.865,6.7794,6.7041,6.6485,6.6309,6.5857,6.5078,6.5053,6.3669,6.077,6.1481,6.102,5.943,6.175,6.3048,6.3288,6.016,5.7576,5.5466,5.3371,5.1318,4.9527,4.9711,4.9613,4.9277,4.9007,4.8913,4.8913,4.8913,4.8913,4.8913,0.0,0.0,0.0,0.0,0.0,0.0,0.0,0.0,0.0,0.0,0.0,0.0,0.0,0.0,0.0,0.0,0.0,0.0,0.0,0.0,0.0,0.0,0.0,3.5963,4.0162,4.4724,5.0171,5.6494,5.8876,5.7812,5.3411,5.0336,0.0,0.0,0.0,0.0,0.0,0.0,0.0,0.0,0.0,3.8778,3.6811,0.0,0.0,0.0,0.0,0.0,0.0,0.0,3.1433,3.1345,3.1993,3.2138,3.2235,3.3275,3.1809,3.0036,3.0959,3.1319,3.1964,3.4201,0.0,0.0,4.9807,5.1339,5.262,5.7047,5.7047,5.6595,5.7725,5.8805,6.0236,6.245,6.6065,6.8974,7.0124,7.0729,7.1081,7.1081,7.0081,6.9381,6.9381,6.8399,6.7568,6.7037,6.6438,6.586,6.5308,6.4777,6.4496,6.4496,6.4475,6.308,6.0179,6.2457,6.1026,5.5922,5.8183,5.9832,6.0789,5.5988,5.357,5.3058,5.0567,4.9488,4.9469,4.9066,4.8913,4.8913,4.8913,4.8913,4.8913,4.8913,4.8913,4.8913,0.0,0.0,0.0,0.0,0.0,0.0,0.0,0.0,0.0,0.0,0.0,0.0,0.0,0.0,0.0,0.0,0.0,0.0,0.0,0.0,0.0,0.0,0.0,0.0,0.0,0.0,4.7871,5.5804,5.6378,5.4995,0.0,0.0,0.0,4.5839,0.0,0.0,0.0,0.0,0.0,0.0,4.0405,3.9043,3.7452,0.0,0.0,0.0,0.0,0.0,0.0,0.0,0.0,0.0,3.3083,3.397,3.4589,3.3051,3.2367,3.1921,3.1025,3.2485,3.4929,3.7563,4.271,4.8284,0.0,5.4202,0.0,0.0,6.1034,5.9829,6.0155,6.0788,6.1592,6.2626,6.5434,6.7719,6.8444,6.8999,6.92,6.8823,6.8472,6.8274,6.8274,6.7245,6.6538,6.6388,6.5484,6.4902,6.4752,6.4597,6.4325,6.3948,6.2339,6.0094,5.719,5.7859,5.7424,5.5879,5.4895,5.5467,5.7221,5.4203,5.2747,5.2485,5.0111,4.9086,4.9066,4.8952,4.8913,4.8913,4.8913,4.8913,4.8913,4.8913,4.8913,4.8913,0.0,0.0,0.0,0.0,0.0,0.0,0.0,0.0,0.0,0.0,0.0,0.0,0.0,0.0,0.0,0.0,0.0,0.0,0.0,0.0,0.0,0.0,0.0,0.0,0.0,4.1808,4.6113,0.0,0.0,0.0,0.0,0.0,0.0,4.8368,0.0,4.7928,0.0,0.0,0.0,4.1444,4.0709,3.9322,3.7711,0.0,0.0,0.0,0.0,0.0,0.0,0.0,0.0,0.0,3.3604,3.4125,3.446,3.3188,3.2336,3.1798,3.1888,3.385,3.6735,4.0425,4.5648,5.1197,5.6111,5.8246,6.0311,6.4325,6.3395,6.1969,6.2441,6.2395,6.2626,6.363,6.5584,6.7188,6.7719,6.8095,6.817,6.7844,6.7593,6.7392,6.7141,6.6312,6.5685,6.5484,6.4676,6.4174,6.4174,6.3948,6.3257,6.199,6.0571,5.8574,5.5922,5.5879,5.5421,5.4477,5.3081,5.2634,5.3015,5.1644,5.1009,5.0939,4.9518,4.8913,4.8913,4.8913,4.8913,4.8913,4.8913,4.8913,4.8913,4.8913,4.8913,4.8913,0.0,0.0,0.0,0.0,0.0,0.0,0.0,0.0,0.0,0.0,0.0,0.0,0.0,0.0,0.0,0.0,0.0,0.0,0.0,0.0,0.0,0.0,0.0,0.0,0.0,0.0,0.0,0.0,0.0,0.0,0.0,0.0,5.1021,5.2277,0.0,5.2825,0.0,4.69,4.4423,4.1566,4.0874,3.9361,3.7568,3.8178,0.0,0.0,0.0,0.0,0.0,0.0,0.0,0.0,3.3914,3.3409,3.3019,3.3561,3.2044,3.0809,3.3345,3.5367,3.8002,4.3137,4.7867,5.3088,5.9954,6.2692,6.4203,6.5735,6.4459,6.3404,6.44,6.3776,6.358,6.5057,6.6259,6.7141,6.7593,6.7643,6.7643,6.7568,6.7113,6.656,6.6011,6.5459,6.4953,6.445,6.3923,6.3626,6.3626,6.3103,6.1697,5.9319,5.9283,5.8181,5.5855,5.5812,5.4763,5.2724,5.25,5.1281,4.9216,4.8986,4.8913,4.8913,4.8913,4.8913,4.8913,4.8913,4.8913,4.8913,4.8913,4.8913,4.8913,4.8913,4.8913,4.8913,0.0,0.0,0.0,0.0,0.0,0.0,0.0,0.0,0.0,0.0,0.0,0.0,0.0,0.0,0.0,0.0,0.0,0.0,0.0,0.0,0.0,0.0,0.0,0.0,0.0,0.0,0.0,0.0,0.0,0.0,0.0,0.0,0.0,5.1148,0.0,5.0099,4.6128,4.2909,4.0439,3.8681,3.8545,3.7789,3.6832,3.6979,3.6225,0.0,0.0,0.0,0.0,0.0,0.0,0.0,3.5714,3.5561,3.4892,3.3449,3.3307,3.3875,3.4867,3.7338,4.114,4.7415,5.3615,5.9156,6.2918,6.4073,6.4551,6.5308,6.5434,6.5333,6.5179,6.5283,6.5362,6.5308,6.6269,6.6853,6.6517,6.6488,6.6312,6.5886,6.5354,6.4978,6.4852,6.4375,6.3998,6.3898,6.335,6.3003,6.3003,6.2877,6.159,5.8924,5.9158,5.8037,5.5381,5.5699,5.5639,5.5136,5.3281,5.214,5.1577,4.9748,4.8913,4.8913,4.8913,4.8913,4.8913,4.8913,4.8913,4.8913,4.8913,4.8913,4.8913,4.8913,4.8913,4.8913,0.0,0.0,0.0,0.0,0.0,0.0,0.0,0.0,0.0,0.0,0.0,0.0,0.0,0.0,0.0,0.0,0.0,0.0,0.0,0.0,0.0,0.0,0.0,0.0,0.0,0.0,0.0,0.0,0.0,0.0,0.0,0.0,0.0,5.1187,0.0,5.0087,4.5253,4.275,4.049,3.863,3.8291,3.7903,3.7418,3.7105,3.6382,3.5424,3.4905,0.0,0.0,0.0,0.0,0.0,0.0,0.0,3.4808,3.3799,3.3863,3.4747,3.715,4.007,4.4378,5.2377,5.7775,6.1642,6.3672,6.4124,6.4274,6.4802,6.5534,6.5936,6.5383,6.5534,6.5534,6.5003,6.5412,6.5692,6.5383,6.5323,6.5227,6.4931,6.466,6.44,6.4124,6.3873,6.3576,6.3279,6.2978,6.2802,6.2802,6.1722,6.0352,5.8673,5.7733,5.6983,5.6388,5.4669,5.4368,5.5434,5.2238,5.0613,5.0364,4.937,4.8913,4.8913,4.8913,4.8913,4.8913,4.8913,4.8776,4.8597,4.8815,4.8753,4.8597,4.8835,4.8913,4.9055,0.0,0.0,0.0,0.0,0.0,0.0,0.0,0.0,0.0,0.0,0.0,0.0,0.0,0.0,0.0,0.0,0.0,0.0,0.0,0.0,0.0,0.0,0.0,0.0,0.0,0.0,0.0,0.0,0.0,0.0,0.0,0.0,0.0,5.1538,0.0,0.0,4.515,4.3087,4.0947,3.8844,3.829,3.8,3.7832,3.7285,0.0,0.0,3.5511,3.5511,3.5511,3.5511,0.0,0.0,0.0,0.0,3.4017,3.4203,3.3993,3.4574,3.8632,4.2678,4.7867,5.6664,6.0412,6.2295,6.3425,6.3701,6.3847,6.4375,6.5204,6.5685,6.5233,6.5179,6.5028,6.4551,6.4492,6.4492,6.4496,6.4421,6.4354,6.4379,6.4269,6.4013,6.3596,6.355,6.335,6.2852,6.2802,6.2588,6.2116,6.0261,5.8711,5.77,5.6256,5.5989,5.6999,5.3687,5.2777,5.4274,5.0488,4.848,4.8105,4.8499,4.8695,4.8773,4.8874,4.8913,4.8913,4.8913,4.8617,4.8242,4.8714,4.8617,4.8307,4.9177,4.9495,4.9839,0.0,0.0,0.0,0.0,0.0,0.0,0.0,0.0,0.0,0.0,0.0,0.0,0.0,0.0,0.0,0.0,0.0,0.0,0.0,0.0,0.0,0.0,0.0,0.0,0.0,0.0,0.0,0.0,0.0,0.0,0.0,0.0,0.0,0.0,0.0,0.0,0.0,3.9795,3.6937,3.6042,3.5952,3.5917,3.5878,0.0,0.0,0.0,0.0,0.0,3.5511,3.5511,3.5511,0.0,0.0,0.0,3.4019,3.4025,3.3871,3.4253,3.6771,4.3791,5.1867,5.7895,6.0713,6.2295,6.3425,6.3701,6.3847,6.4375,6.4601,6.4676,6.4601,6.4622,6.4576,6.4521,6.4496,6.4508,6.4492,6.41,6.3819,6.3794,6.3333,6.2998,6.2927,6.2927,6.2902,6.2827,6.2802,6.1775,5.9378,5.8956,5.7418,5.4425,5.64,5.6439,5.4271,5.4095,5.3209,5.1587,4.902,4.7737,4.7679,4.7757,4.7972,4.832,4.8714,4.8913,4.8913,4.8913,4.8617,4.8242,4.8714,4.8617,4.8493,5.1004,5.1937,5.2274,0.0,0.0,0.0,0.0,0.0,0.0,0.0,0.0,0.0,0.0,0.0,0.0,0.0,0.0,0.0,2.6584,2.6136,2.6593,2.8343,2.9713,0.0,0.0,0.0,0.0,0.0,0.0,0.0,0.0,0.0,0.0,0.0,4.5314,4.7091,0.0,0.0,0.0,0.0,0.0,0.0,3.6036,3.5639,3.593,0.0,0.0,0.0,0.0,0.0,0.0,0.0,3.5511,3.5511,3.5511,3.5511,0.0,0.0,0.0,3.466,3.5547,4.045,4.618,5.2126,5.7656,6.0041,6.1366,6.2496,6.2998,6.3274,6.35,6.355,6.3651,6.3998,6.4048,6.3948,6.3601,6.3537,6.3553,6.3546,6.3347,6.3217,6.3187,6.2957,6.2802,6.2802,6.2516,6.2361,6.235,6.0919,5.9517,5.8327,5.7014,5.6061,5.5566,5.6701,5.6624,5.5125,5.4333,5.2325,4.9126,4.7818,4.7207,4.7207,4.7207,4.7461,4.7894,4.8089,4.8167,4.8167,4.8167,4.7913,4.7632,4.9351,4.9951,5.0142,5.2881,5.4062,5.4698,0.0,0.0,0.0,0.0,0.0,0.0,0.0,0.0,0.0,0.0,0.0,0.0,0.0,0.0,0.0,0.0,2.6746,2.7161,2.8952,3.0591,0.0,0.0,0.0,0.0,0.0,0.0,0.0,0.0,0.0,0.0,4.72,4.6088,4.8286,0.0,4.85,0.0,0.0,0.0,0.0,0.0,0.0,0.0,0.0,0.0,0.0,0.0,0.0,0.0,0.0,0.0,3.5511,3.5511,3.5511,3.5511,0.0,0.0,0.0,3.5795,4.1916,4.5899,4.969,5.5415,5.8033,5.9614,6.104,6.1773,6.2225,6.235,6.2501,6.2676,6.2998,6.3299,6.3324,6.2877,6.2802,6.2802,6.2802,6.2802,6.2752,6.2596,6.2701,6.2701,6.2425,6.2155,6.1727,6.1022,5.9072,5.7343,5.6063,5.4872,5.477,5.5911,5.6442,5.6226,5.5218,5.2811,5.0098,4.7112,4.6758,4.6521,4.6423,4.6423,4.668,4.7132,4.7464,4.76,4.76,4.76,4.7324,4.7152,4.985,5.0896,5.1267,5.4658,5.618,5.6908,0.0,0.0,0.0,0.0,0.0,0.0,0.0,0.0,0.0,0.0,0.0,0.0,0.0,0.0,2.858,2.9791,2.9419,2.9473,3.0329,3.1099,3.2451,0.0,0.0,0.0,0.0,0.0,0.0,0.0,0.0,0.0,4.9246,4.9095,5.2498,5.8381,5.1329,4.688,4.4455,0.0,0.0,0.0,0.0,0.0,0.0,0.0,0.0,0.0,0.0,0.0,0.0,0.0,0.0,3.5511,3.5511,3.5511,3.5511,0.0,0.0,0.0,3.7369,4.0463,4.407,5.0159,5.4059,5.6997,5.9131,6.006,6.0593,6.1185,6.1692,6.1893,6.1436,6.2169,6.2852,6.2827,6.2802,6.2802,6.2802,6.2802,6.2617,6.2115,6.2486,6.24,6.1366,6.1718,6.0916,5.8314,5.7973,5.5832,5.1039,5.2653,5.3541,5.311,5.5133,5.5041,5.2534,4.8249,4.6001,4.5803,4.5764,4.5527,4.5096,4.5096,4.5351,4.5861,4.7073,4.76,4.76,4.76,4.7324,4.7152,4.985,5.0642,5.0888,5.6325,5.8337,5.8766,0.0,0.0,0.0,0.0,0.0,0.0,0.0,0.0,0.0,0.0,0.0,0.0,0.0,2.8852,2.9268,3.0673,3.155,3.1763,3.1192,3.267,3.4061,3.522,0.0,0.0,0.0,0.0,0.0,0.0,0.0,4.1133,4.6129,4.653,4.9105,5.3269,5.0283,4.8468,4.7262,4.0854,0.0,0.0,0.0,0.0,0.0,0.0,0.0,0.0,0.0,0.0,0.0,0.0,0.0,0.0,0.0,0.0,0.0,3.3999,3.3658,3.4091,3.5904,3.7927,4.079,4.6215,5.0042,5.3063,5.5265,5.76,5.9438,5.9985,6.0537,6.0964,6.116,6.1492,6.1768,6.1768,6.2069,6.2169,6.1818,6.2069,6.2094,6.1551,6.1651,6.1626,6.1255,6.1016,5.9911,5.7485,5.5677,5.3892,5.2088,5.2422,5.3243,5.4457,5.6313,5.5497,5.1752,4.7419,4.5254,4.5254,4.5254,4.5154,4.4998,4.4998,4.5096,4.5293,4.6057,4.6526,4.6758,4.6758,4.7499,4.888,5.125,5.3171,5.4992,5.8403,5.9886,6.0421,0.0,0.0,0.0,0.0,0.0,0.0,0.0,0.0,0.0,0.0,0.0,0.0,0.0,0.0,3.0594,3.1867,3.3356,3.3774,3.2656,3.4091,3.5421,3.6348,3.7628,0.0,0.0,0.0,0.0,0.0,0.0,0.0,0.0,0.0,4.7179,5.0446,4.8727,0.0,0.0,0.0,0.0,4.1425,0.0,0.0,3.9358,0.0,0.0,0.0,0.0,0.0,0.0,0.0,0.0,0.0,0.0,0.0,0.0,0.0,0.0,0.0,3.4062,3.5481,3.8128,4.3352,4.6165,4.8661,5.2553,5.4888,5.6545,5.7643,5.8579,5.9263,5.9483,5.9659,6.0085,6.1059,6.1512,6.1592,6.126,6.1512,6.1517,6.0964,6.1097,6.1042,6.0677,6.0432,5.895,5.5669,5.3725,5.2278,5.1342,5.1662,5.2893,5.509,5.526,5.3708,5.0375,4.6512,4.4627,4.4803,4.4803,4.4705,4.4549,4.4413,4.451,4.4803,4.4961,4.5451,4.6159,4.7059,4.8269,4.9892,5.2859,5.5111,5.702,5.9425,6.0563,6.0964,0.0,0.0,0.0,0.0,0.0,0.0,0.0,0.0,0.0,0.0,0.0,0.0,0.0,0.0,0.0,3.3438,3.4882,3.5471,3.4787,3.5341,3.639,3.7946,3.8592,0.0,0.0,0.0,0.0,0.0,0.0,0.0,0.0,0.0,4.7219,0.0,4.698,4.6732,4.9018,0.0,4.6181,4.5942,0.0,4.0268,4.1852,0.0,0.0,0.0,4.5523,4.4197,0.0,3.8452,0.0,0.0,0.0,0.0,0.0,0.0,0.0,0.0,0.0,0.0,0.0,4.1317,4.2336,4.3869,5.0929,5.1774,5.1716,5.4019,5.5742,5.6684,5.6276,5.6627,5.7882,6.0607,6.1085,6.1135,6.111,6.1135,6.0914,6.0292,6.0763,6.0708,5.9558,5.9857,5.7932,5.268,5.2272,5.1076,4.8313,5.0313,5.2474,5.4531,5.1703,4.9522,4.8229,4.5182,4.3887,4.4336,4.4336,4.4101,4.3652,4.3263,4.3556,4.4336,4.3887,4.4475,4.5966,4.8514,4.9659,5.0209,5.4497,5.6235,5.6606,5.9296,6.0267,6.0367,0.0,0.0,0.0,0.0,0.0,0.0,0.0,0.0,0.0,0.0,0.0,0.0,0.0,0.0,0.0,3.3491,3.5721,3.6626,3.5434,3.7008,3.8204,3.8644,3.9353,3.9876,0.0,0.0,0.0,0.0,0.0,0.0,0.0,0.0,0.0,0.0,4.4646,4.5005,4.5454,4.2043,0.0,0.0,4.1634,4.1913,0.0,0.0,0.0,0.0,0.0,4.3848,4.3319,4.2083,4.0806,3.9418,0.0,0.0,0.0,0.0,0.0,0.0,3.0669,0.0,0.0,0.0,0.0,0.0,4.3023,4.4644,4.6617,5.1264,5.2226,5.3038,5.5698,5.6326,5.6677,5.7449,5.8598,5.9251,5.8855,5.9483,5.9608,5.8679,5.9056,5.9131,5.8403,5.7082,5.4975,5.1864,5.1662,5.1137,4.9977,5.2701,5.3731,5.2504,5.0189,4.8124,4.6356,4.396,4.2831,4.2948,4.2948,4.289,4.2753,4.2636,4.291,4.3477,4.3633,4.4975,4.7072,4.8109,5.06,5.3926,5.5129,5.6859,5.8687,5.9445,5.9734,5.9809,0.0,0.0,0.0,0.0,0.0,0.0,0.0,0.0,0.0,0.0,0.0,0.0,0.0,0.0,0.0,0.0,3.7076,3.798,3.6602,3.8001,3.9036,3.9381,3.9863,4.0113,0.0,0.0,0.0,0.0,0.0,0.0,0.0,0.0,0.0,0.0,0.0,0.0,0.0,0.0,0.0,0.0,4.4167,0.0,0.0,4.711,4.7279,0.0,4.7886,4.7927,4.7668,4.5333,4.314,0.0,0.0,0.0,0.0,0.0,0.0,0.0,0.0,0.0,0.0,0.0,0.0,0.0,3.9559,4.0713,4.2222,4.6868,4.7908,4.8896,5.1858,5.2962,5.3607,5.4084,5.5559,5.6821,5.7449,5.8058,5.8328,5.7951,5.7957,5.7611,5.6671,5.5087,5.3203,5.0962,5.0643,5.0654,5.0918,5.3546,5.3592,5.0402,4.8985,4.6983,4.4288,4.2863,4.2226,4.2402,4.2402,4.2402,4.2402,4.2226,4.25,4.3087,4.2949,4.4906,4.8192,4.8492,5.1161,5.5184,5.6323,5.7772,5.9187,5.9408,5.9483,5.9533,0.0,0.0,0.0,0.0,0.0,0.0,0.0,0.0,0.0,0.0,0.0,0.0,0.0,0.0,0.0,0.0,3.8748,3.9363,3.8113,3.8664,3.9348,4.0087,4.0113,4.0113,4.0113,0.0,0.0,0.0,0.0,0.0,0.0,0.0,0.0,0.0,0.0,0.0,0.0,0.0,0.0,4.5244,4.726,4.8798,0.0,5.2995,5.3773,5.3366,5.3892,5.3743,5.2618,4.8136,4.4496,4.1164,0.0,0.0,0.0,0.0,3.3295,0.0,0.0,0.0,0.0,0.0,3.3872,0.0,3.8404,3.863,3.8642,4.187,4.3288,4.4539,4.6471,4.8143,4.9556,5.051,5.2151,5.4117,5.6426,5.6784,5.7004,5.7474,5.7104,5.6172,5.454,5.3594,5.2179,5.0011,4.9594,5.0082,5.1575,5.3427,5.2555,4.8464,4.8003,4.6022,4.2305,4.1914,4.1914,4.2265,4.2265,4.2265,4.2246,4.1894,4.2307,4.3235,4.2447,4.4865,4.9368,4.9482,5.1616,5.5039,5.7524,5.8579,5.8761,5.9232,5.9433,5.9483,0.0,0.0,0.0,0.0,0.0,0.0,0.0,0.0,0.0,0.0,0.0,0.0,0.0,0.0,0.0,0.0,0.0,4.0203,0.0,0.0,3.9933,4.01,4.0113,4.0113,4.0113,3.8599,0.0,0.0,0.0,0.0,0.0,0.0,0.0,0.0,0.0,0.0,0.0,0.0,0.0,4.3878,4.5882,4.9333,5.3264,5.3366,5.3665,5.3952,5.3545,5.3665,5.3473,4.9894,4.6841,4.4028,4.1154,3.8436,3.6133,3.5077,0.0,0.0,0.0,0.0,0.0,3.2616,3.3897,0.0,3.4062,3.4942,3.6685,3.9195,3.9874,4.1041,4.4464,4.611,4.6878,4.6667,4.9113,5.2,5.468,5.5458,5.5609,5.5282,5.5534,5.4797,5.2432,5.1935,5.0955,4.8929,4.9753,5.1208,5.3136,5.3248,5.1402,4.7412,4.7212,4.5339,4.1465,4.1367,4.1367,4.1445,4.1445,4.1445,4.1426,4.1348,4.2442,4.4383,4.4197,4.6724,5.0968,5.0986,5.2919,5.5973,5.6937,5.7907,5.871,5.8811,5.9131,5.9483,0.0,0.0,0.0,0.0,0.0,0.0,0.0,0.0,0.0,0.0,0.0,0.0,0.0,0.0,0.0,0.0,0.0,0.0,0.0,0.0,4.0635,4.0635,4.0309,3.9908,3.9519,3.8372,3.7587,0.0,0.0,0.0,0.0,0.0,0.0,0.0,0.0,0.0,0.0,0.0,4.1235,4.3688,4.7986,5.1139,5.3384,5.5029,5.5854,5.6064,5.5401,5.494,5.4102,5.0133,4.8338,4.6772,4.1205,3.9417,3.881,3.6086,3.5189,3.4882,0.0,0.0,3.4577,3.4022,3.4335,0.0,0.0,3.3258,3.4162,3.6697,3.657,3.7098,4.0638,4.1768,4.2635,4.403,4.6075,4.8494,5.1314,5.3105,5.426,5.4572,5.4353,5.3067,5.0323,5.0449,5.0312,4.9323,5.0795,5.2189,5.326,5.2134,5.0091,4.7084,4.6053,4.4134,4.123,4.1191,4.1191,4.1191,4.1191,4.1191,4.123,4.2196,4.3396,4.4747,4.55,4.7804,5.1017,5.1072,5.2798,5.5483,5.6276,5.7305,5.8334,5.861,5.9056,5.9483,0.0,0.0,0.0,0.0,0.0,0.0,0.0,0.0,0.0,0.0,0.0,0.0,0.0,0.0,0.0,0.0,0.0,0.0,0.0,0.0,4.1001,4.0994,4.0277,3.9505,3.8704,3.7955,3.7241,3.6592,0.0,0.0,0.0,0.0,0.0,0.0,0.0,0.0,0.0,0.0,0.0,4.4585,5.0451,5.2348,5.2097,5.6184,5.7649,5.75,5.7214,5.6346,5.4743,5.0493,4.9662,4.9046,4.1387,4.0548,4.1571,3.7473,3.6471,3.6557,3.5844,3.5969,3.6296,3.6245,3.5529,3.4597,0.0,0.0,0.0,3.4402,3.3936,3.4059,3.6734,3.7375,3.8366,4.0991,4.2847,4.4654,4.6632,4.9339,5.1732,5.3316,5.2477,5.0881,4.8533,4.8857,4.9578,5.0492,5.1637,5.2443,5.2887,5.1051,4.9063,4.7047,4.5108,4.317,4.1211,4.1191,4.1191,4.1191,4.1191,4.1405,4.1811,4.3378,4.4701,4.5775,4.7042,4.89,5.1052,5.1141,5.2541,5.4697,5.5666,5.6821,5.7951,5.8384,5.8956,5.9483,0.0,0.0,0.0,0.0,0.0,0.0,0.0,0.0,0.0,0.0,0.0,0.0,0.0,0.0,0.0,0.0,0.0,0.0,4.5791,0.0,0.0,4.0238,3.9454,3.8678,3.7939,3.7152,3.6684,3.6592,0.0,0.0,0.0,0.0,0.0,0.0,3.705,0.0,0.0,0.0,4.2143,4.7119,5.02,5.069,5.0126,5.4695,5.606,5.5658,5.6718,5.6658,5.5653,5.2737,5.1457,5.0297,4.5758,4.2878,4.1022,4.0106,3.8859,3.8015,3.8894,4.0564,4.1016,3.6673,3.8417,3.951,3.3129,0.0,3.5086,3.2401,0.0,3.3922,3.4299,0.0,0.0,3.5656,3.9044,4.1277,4.0175,4.2799,4.5974,4.9095,4.8444,4.7719,4.762,4.6789,4.8026,5.224,5.0955,5.0845,5.2812,5.1051,4.9063,4.7047,4.5108,4.317,4.1211,4.1191,4.1191,4.1191,4.1191,4.21,4.3775,4.4002,4.6041,4.9408,4.9593,5.0794,5.2659,5.2659,5.3415,5.4672,5.5257,5.647,5.7901,5.7976,5.8629,5.9483,0.0,0.0,0.0,0.0,0.0,0.0,0.0,0.0,0.0,0.0,0.0,0.0,0.0,0.0,0.0,0.0,0.0,4.4979,4.5668,0.0,0.0,0.0,4.1064,3.9979,3.9678,3.8402,3.7522,3.7066,3.7442,0.0,0.0,0.0,0.0,0.0,3.7982,3.879,4.0825,4.0636,4.2491,4.5802,4.8446,4.8955,4.8757,5.4533,5.6795,5.6902,5.7034,5.6958,5.6064,5.1792,5.0701,5.0091,4.4212,4.2608,4.2488,4.0549,3.974,3.9559,4.0036,4.1317,4.1783,3.8718,3.9132,3.9044,3.4374,3.3646,3.3757,3.2993,0.0,0.0,0.0,0.0,0.0,0.0,3.6448,3.7689,3.8291,3.873,4.0826,4.5773,4.5397,4.5261,4.6662,4.5926,4.6503,4.9328,4.9289,4.9681,5.0921,4.8958,4.7535,4.7029,4.4023,4.2042,4.1211,4.1191,4.1191,4.1211,4.235,4.3302,4.4191,4.6478,4.8434,5.0074,5.1198,5.2327,5.3364,5.3364,5.4034,5.5082,5.5308,5.6219,5.743,5.7775,5.8378,5.9062,0.0,0.0,0.0,0.0,0.0,0.0,0.0,0.0,0.0,0.0,0.0,0.0,5.3084,5.1606,0.0,0.0,4.9726,4.7704,4.6783,4.4552,4.3191,4.3029,4.1478,4.0339,3.9785,3.8973,3.8165,3.7396,3.8063,3.8401,0.0,0.0,0.0,0.0,3.9239,4.0316,4.1803,4.286,4.4746,4.7179,4.8936,4.9337,4.9406,5.4204,5.6765,5.7739,5.7107,5.6838,5.6122,5.1232,5.0362,5.0198,4.3636,4.2784,4.3691,4.1149,4.0551,4.0763,4.0927,4.1895,4.2286,3.9848,3.9183,3.8266,3.499,3.3911,3.3635,3.3847,3.3657,0.0,0.0,0.0,3.3524,3.4842,0.0,3.5104,3.6245,3.5517,3.6886,4.237,4.3025,4.3678,4.5432,4.4615,4.4776,4.6731,4.6944,4.747,4.8563,4.6535,4.5568,4.6018,4.3308,4.1884,4.2004,4.2523,4.2523,4.2023,4.3964,4.4902,4.5014,4.8452,5.0286,5.0875,5.2293,5.3213,5.3708,5.3708,5.4361,5.5408,5.5408,5.5968,5.6853,5.7499,5.8052,5.8535,0.0,3.5993,0.0,0.0,0.0,0.0,3.7922,3.9619,4.2192,4.6681,4.7908,5.0343,0.0,5.3144,0.0,0.0,5.338,4.9893,5.1201,4.6511,4.2273,3.9109,3.9399,3.8689,3.6693,3.7785,3.8098,3.7396,3.8063,3.8401,3.8401,3.9101,0.0,3.9451,4.1403,4.3349,4.5274,4.723,5.0331,5.382,5.3276,5.2943,5.2853,5.3213,5.4922,5.7034,5.6462,5.6222,5.5701,5.2206,5.1462,5.1158,4.6342,4.4546,4.3927,4.252,4.1706,4.1403,4.1984,4.3302,4.3474,3.9132,3.8868,3.8529,3.4145,3.5175,3.6445,3.4324,3.6457,3.8002,3.5846,3.5408,0.0,0.0,0.0,0.0,0.0,3.2842,3.4648,3.8617,4.1406,4.3226,4.3815,4.239,4.2788,4.6085,4.3894,4.3509,4.5969,4.4246,4.3333,4.3605,4.3501,4.3618,4.4002,4.5868,4.5868,4.404,4.5982,4.69,4.6974,4.9045,5.1016,5.2826,5.2878,5.3213,5.3708,5.3708,5.4361,5.5408,5.5408,5.5742,5.6301,5.7047,5.7575,5.7976,0.0,0.0,0.0,0.0,0.0,3.5685,3.9179,4.2701,4.6471,5.0672,5.3294,5.6453,6.0878,6.0731,6.0821,6.1986,5.8647,5.5632,5.3618,5.0171,4.7399,4.5612,4.4282,4.3074,4.2032,4.1376,4.0724,4.0047,4.0256,4.0385,4.0385,4.0157,4.0307,4.0765,4.1892,4.3738,4.6132,4.8514,4.9768,5.0074,4.9754,5.0823,5.2645,5.2964,5.3253,5.349,5.329,5.322,5.2845,5.034,4.9118,4.8069,4.4732,4.3557,4.3245,4.245,4.2548,4.2997,4.3187,4.4468,4.483,4.1102,4.0211,3.9257,3.5543,3.6006,3.6671,3.4815,3.681,3.8316,3.6445,3.6093,0.0,0.0,0.0,0.0,0.0,3.2164,3.3154,3.4849,3.814,3.976,3.8442,3.917,4.0023,4.0738,4.0626,4.1246,4.2879,4.2704,4.318,4.4515,4.3879,4.4302,4.5998,4.6662,4.6016,4.4153,4.7413,4.8289,4.7102,5.041,5.2275,5.2895,5.2895,5.3213,5.3733,5.4127,5.473,5.5433,5.5792,5.6043,5.6276,5.7047,5.7305,5.743,3.7496,0.0,0.0,0.0,3.5761,3.6913,3.9948,4.4905,4.9662,5.3426,5.7184,6.1044,6.4994,6.5159,6.4949,6.4844,6.2375,5.9081,5.5013,5.3125,5.0929,4.8163,4.7097,4.5969,4.4651,4.3835,4.276,4.1403,4.1833,4.1833,4.1403,4.0705,4.0645,4.1124,4.296,4.4706,4.6508,4.9798,5.0644,4.9746,4.9342,4.9912,5.102,5.1294,5.1627,5.1914,5.1473,5.1224,5.0753,4.8737,4.7536,4.6491,4.406,4.3151,4.2925,4.2601,4.2975,4.3528,4.3528,4.4593,4.5031,4.2295,4.1354,4.0224,3.6861,3.7425,3.814,3.627,3.7927,3.9421,3.8354,3.7512,0.0,0.0,0.0,0.0,0.0,3.1461,3.2064,3.2462,3.5566,3.7099,3.5633,3.6647,3.7248,3.6848,3.7876,3.8886,3.9756,4.1299,4.2842,4.4354,4.4977,4.6176,4.8049,4.874,4.8126,4.6238,4.948,4.9979,4.818,5.1408,5.2895,5.2895,5.2895,5.3213,5.3758,5.4353,5.4906,5.544,5.5993,5.62,5.6251,5.6728,5.6979,5.723,3.885,3.8308,3.7372,3.5911,3.716,3.891,4.0367,4.6091,5.1505,5.497,5.9502,6.3901,6.7808,6.655,6.6116,6.7958,6.456,6.0416,5.588,5.5491,5.2875,4.7078,4.7997,4.741,4.4755,4.5214,4.4237,4.1703,4.2811,4.2741,4.1523,4.0786,4.0457,4.0606,4.4476,4.6168,4.6458,5.0946,5.2837,5.2699,5.1794,5.0233,4.8451,4.8413,4.996,5.2039,5.0903,5.012,4.9337,4.7434,4.6762,4.6406,4.4424,4.3452,4.3039,4.3039,4.3076,4.3115,4.309,4.3865,4.4303,4.2738,4.2299,4.1395,3.8128,3.9458,4.075,3.853,3.9847,4.1339,4.1227,3.9433,3.7638,0.0,0.0,0.0,3.0191,3.0793,3.1472,3.1522,3.3775,3.5332,3.5307,3.4867,3.4577,3.4577,3.5602,3.6407,3.6777,3.9985,4.221,4.3125,4.6629,4.9036,5.0121,5.1998,5.1921,5.0014,5.1956,5.1869,5.0068,5.2008,5.2895,5.2895,5.2895,5.3213,5.3758,5.4353,5.4906,5.544,5.5993,5.62,5.62,5.62,5.6677,5.7399,3.8169,3.8177,3.811,3.7714,3.8082,3.9508,4.2811,4.7646,5.2833,5.8155,6.3303,6.7792,7.1278,7.1172,7.05,6.9558,6.7194,6.441,6.1268,5.9681,5.7496,5.4461,5.3743,5.2408,5.0212,4.8906,4.7451,4.5783,4.4606,4.3888,4.3529,4.1903,4.1134,4.1244,4.3708,4.4576,4.4447,4.8991,5.0488,4.9677,4.8265,4.7835,4.7953,4.718,4.7792,4.892,4.7817,4.6816,4.5882,4.5354,4.4933,4.4506,4.3968,4.3714,4.3589,4.3589,4.4192,4.4758,4.4317,4.5006,4.5673,4.4859,4.3718,4.2347,4.0638,4.1455,4.1932,3.9722,4.1028,4.1932,3.9886,3.8693,3.7375,0.0,0.0,0.0,3.112,3.1562,3.2315,3.3144,3.3133,3.2896,3.2491,3.2681,3.2846,3.2846,3.3531,3.4362,3.5283,3.8708,4.1576,4.3623,4.6831,4.9683,5.2112,5.2646,5.1921,5.0014,5.1956,5.1869,5.0068,5.2008,5.2895,5.2895,5.2895,5.3213,5.3758,5.4353,5.4906,5.544,5.5993,5.62,5.62,5.62,5.6872,5.775,3.8177,3.9443,4.0627,4.0935,4.2641,4.4636,4.657,5.0069,5.4448,5.9847,6.4889,6.8571,7.0141,7.1607,7.1667,6.9738,6.8002,6.5877,6.3287,6.2285,6.0789,5.8514,5.7423,5.5837,5.3563,5.099,4.8775,4.685,4.5134,4.4007,4.3429,4.2062,4.1254,4.1035,4.299,4.3659,4.3596,4.7169,4.8271,4.7578,4.665,4.6662,0.0,4.6512,4.6527,4.6778,4.6175,4.5357,4.4564,4.4328,4.4066,4.384,4.4091,4.4152,4.4217,4.4468,4.501,4.5437,4.5095,4.5633,4.6225,4.5924,4.5146,4.4016,4.2395,4.2534,4.2498,4.0763,4.1028,4.1306,4.0477,3.8668,3.6495,3.4011,3.2606,3.1738,3.1446,3.1853,3.243,3.3083,3.2817,3.2365,3.1813,3.1602,3.1602,3.1838,3.3294,3.4227,3.4411,3.9089,4.2525,4.4155,4.7776,5.0743,5.287,5.3389,5.2834,5.1285,5.2362,5.231,5.1303,5.2396,5.2895,5.2895,5.2895,5.3063,5.3432,5.4253,5.4773,5.5132,5.5892,5.62,5.6226,5.6451,5.7004,5.77,3.8871,4.1579,4.3957,4.4366,4.8465,5.1684,5.1642,5.3898,5.7141,6.1449,6.6026,6.8676,6.8092,7.0426,7.1324,6.9542,6.8002,6.6116,6.3766,6.3947,6.3079,6.0699,5.9967,5.8441,5.591,5.2372,4.9381,4.6958,4.5074,4.3599,4.2491,4.1673,4.0945,4.0477,4.2177,4.3004,4.3212,4.5313,4.6131,4.5984,4.621,4.6286,4.6286,4.6286,4.6024,4.5587,4.5437,4.4995,4.4428,4.4027,4.3865,4.3915,4.4529,4.4729,4.483,4.5361,4.5562,4.5587,4.5512,4.5899,4.6286,4.6286,4.6286,4.5773,4.3678,4.3277,4.2975,4.1779,4.0789,4.0489,4.1671,3.8881,3.5577,3.3032,3.219,3.1848,3.1924,3.2164,3.2405,3.2606,3.2893,0.0,3.2556,3.1501,3.0974,3.1371,3.3674,3.4728,3.3947,3.9798,4.3564,4.4478,4.8711,5.1624,5.2988,5.3926,5.3976,5.3113,5.297,5.2895,5.2895,5.2895,5.2895,5.2895,5.2895,5.2937,5.3088,5.4077,5.4572,5.4805,5.5817,5.62,5.6276,5.6953,5.728,5.7524,4.0784,4.3968,4.6281,4.5304,5.0331,5.5568,5.8726,6.1419,6.3992,6.6475,7.0815,7.3629,7.3509,7.3043,7.2385,7.1474,6.9199,6.7403,6.6386,6.5368,6.4381,6.3348,6.2734,6.1417,5.9292,5.4922,5.1917,5.0338,4.5722,4.3359,4.31,4.1384,4.0516,4.042,4.0861,4.1377,4.1974,4.3165,4.3894,4.4367,4.5733,4.6286,4.6286,4.6286,4.6235,4.605,4.5106,4.4418,4.3976,4.4353,4.4177,4.3991,4.502,4.5321,4.5347,4.5487,4.5799,4.6075,4.5638,4.5899,4.6286,4.6286,4.6286,4.5959,4.4629,4.4694,4.4608,4.3025,4.2548,4.1945,4.0413,3.809,3.608,3.5068,3.4466,3.4276,3.4717,3.371,3.342,3.4767,3.3847,3.3406,3.4176,3.2846,3.1788,3.1421,3.2254,3.3108,3.3847,3.7625,4.1041,4.3865,4.7396,5.0636,5.3532,5.3314,5.3582,5.4278,5.3339,5.2895,5.2895,5.2895,5.2895,5.2895,5.2895,5.3163,5.3582,5.3783,5.4411,5.5333,5.5968,5.62,5.6351,5.7656,5.8001,5.7876,4.4776,4.7309,4.9542,5.0301,5.5341,6.04,6.3647,6.7268,6.9243,6.8122,6.9933,7.1174,7.0845,7.1757,7.2013,7.0995,6.9768,6.8616,6.7583,6.6251,6.5218,6.456,6.3602,6.2165,6.013,5.5564,5.2366,5.0697,4.5722,4.2971,0.0,4.1364,4.0546,3.9866,3.9676,4.0511,4.2046,4.2426,4.3226,4.4328,4.5733,4.6286,4.6286,4.6286,4.6286,4.6185,4.5357,4.4895,4.4618,4.4303,4.4418,4.4784,4.5336,4.5673,4.5924,4.5924,4.61,4.6235,4.5999,4.61,4.6286,4.6286,4.6286,4.6085,4.5271,4.5296,4.5171,4.4066,4.3377,4.2322,4.0112,3.8354,3.7048,3.6471,3.5682,3.5218,3.5458,3.4603,3.4022,3.4237,3.3581,3.318,3.3373,3.2968,3.2416,3.1863,3.2857,3.3484,3.3481,3.6934,4.015,4.2875,4.6482,4.9698,5.2444,5.3348,5.3758,5.3708,5.3163,5.2895,5.2895,5.2895,5.2895,5.2895,5.2895,5.3063,5.3314,5.3909,5.483,5.5842,5.6118,5.6376,5.6753,5.7775,5.8152,5.8252,4.9445,5.1349,5.3461,5.6017,6.0729,6.4725,6.652,7.0585,7.2488,6.9826,6.9484,6.9086,6.8153,7.0482,7.1549,7.0113,6.9519,6.8923,6.8256,6.6586,6.5454,6.5009,6.4036,6.2584,6.0579,5.6,5.2576,5.0416,4.5781,4.2781,4.1403,4.1403,4.0591,3.91,3.9095,4.0056,4.1694,4.2166,4.3226,4.469,4.5834,4.6286,4.6286,4.6286,4.6286,4.6225,4.5673,4.5587,4.5537,4.4493,4.4669,4.5347,4.5573,4.5874,4.6135,4.6261,4.6286,4.6286,4.6286,4.6286,4.6286,4.6286,4.6286,4.6175,4.5638,4.5512,4.5321,4.4715,4.374,4.2397,4.04,3.932,3.8454,3.7675,3.681,3.6147,3.5907,3.5406,3.4625,3.3406,3.3456,3.3194,3.2129,3.2778,3.2928,3.2079,3.3348,3.3961,3.3456,3.6445,3.9358,4.1934,4.5678,4.8818,5.1264,5.3248,5.3909,5.3264,5.3013,5.2895,5.2895,5.2895,5.2895,5.2895,5.2895,5.2945,5.3163,5.4177,5.5157,5.605,5.6276,5.6627,5.7085,5.7826,5.8202,5.8504,5.4054,5.6124,5.8128,6.0192,6.444,6.7217,6.6235,6.9511,7.2607,7.4083,7.4257,7.3553,7.1654,7.2254,7.2027,7.0101,6.7921,6.7312,6.8819,6.6097,6.4605,6.4994,6.4874,6.3902,6.1942,5.7377,5.3713,5.1116,4.648,4.324,4.1403,4.1403,4.0237,3.8217,3.9677,3.9926,3.9373,4.1863,4.3564,4.469,4.5834,4.6286,4.6286,4.6286,4.6286,4.6225,4.5673,4.5799,4.6125,4.5522,4.5045,4.4865,4.5884,4.5924,4.5688,4.6175,4.6286,4.6286,4.6286,4.6286,4.6286,4.6286,4.6286,4.6175,4.5638,4.5512,4.5321,4.4715,4.374,4.2624,4.1378,4.1063,4.0499,3.8994,3.8642,3.8215,3.7198,3.6582,3.5627,3.4034,3.4678,3.4265,3.1723,3.2893,3.3169,3.1587,3.2064,3.3058,3.4477,3.5344,3.7526,4.1277,4.4679,4.8008,5.1264,5.246,5.3532,5.4446,5.3389,5.2895,5.2895,5.2895,5.2895,5.2895,5.2895,5.3188,5.3683,5.4328,5.4949,5.5566,5.6552,5.696,5.7136,5.8234,5.8535,5.8504,5.6863,5.7297,5.8422,6.1234,6.3906,6.5991,6.6999,6.9854,7.1748,7.1351,7.0628,6.9857,6.9054,6.8542,6.7943,6.7154,6.6202,6.5657,6.5629,6.5101,6.4361,6.3407,6.4025,6.3677,6.2121,5.8697,5.5448,5.2396,4.8966,4.5883,4.312,4.2361,4.0711,3.8441,3.8815,3.9314,3.9973,4.1758,4.3327,4.469,4.5834,4.6286,4.6286,4.6286,4.6286,4.6261,4.6075,4.6125,4.6261,4.605,4.5824,4.5708,4.616,4.6135,4.6024,4.625,4.6286,4.6286,4.6286,4.6286,4.6286,4.6286,4.6286,4.6235,4.6024,4.5723,4.5437,4.5196,4.4242,4.3237,4.2459,4.1491,4.07,4.0387,3.9534,3.8617,3.7801,3.6934,3.5664,3.3668,3.3194,3.248,3.105,3.1823,3.2541,3.2878,3.2792,3.3169,3.4162,3.4728,3.6799,4.07,4.3711,4.6712,4.9773,5.1858,5.3138,5.3582,5.3113,5.2895,5.2895,5.2895,5.2895,5.2895,5.2895,5.3389,5.4253,5.4496,5.5107,5.5968,5.6702,5.7211,5.7631,5.8409,5.8836,5.9106,5.9512,5.8992,5.9479,6.2929,6.4484,6.5685,6.7059,6.8753,6.9142,6.7144,6.5942,6.5575,6.6316,6.6002,6.5423,6.4663,6.4318,6.3895,6.3439,6.3959,6.372,6.2371,6.3591,6.3707,6.2435,5.9967,5.7094,5.3785,5.1342,4.8338,4.4865,4.3524,4.1927,4.0095,3.9683,4.015,4.1304,4.2423,4.374,4.5181,4.5984,4.6286,4.6286,4.6286,4.6286,4.6286,4.6286,4.6286,4.6286,4.6286,4.6286,4.6286,4.6286,4.62,4.61,4.6235,4.6286,4.6286,4.6286,4.6286,4.6286,4.6286,4.6286,4.6286,4.6286,4.5874,4.5412,4.5085,4.4493,4.3815,4.3126,4.1895,4.1014,4.1051,4.0124,3.9007,3.7914,3.7248,3.6055,3.3833,3.2993,3.2204,3.1165,3.1712,3.2627,3.3796,3.3707,3.3796,3.4338,3.4728,3.6635,4.0387,4.3499,4.6376,4.9003,5.1624,5.2895,5.2895,5.2895,5.2895,5.2895,5.2895,5.2988,5.3138,5.3138,5.3783,5.4848,5.4848,5.5365,5.6251,5.6784,5.738,5.7951,5.8485,5.9056,5.9483,6.2397,6.2118,6.245,6.6283,6.7433,6.7396,6.605,6.5381,6.4365,6.2356,6.1597,6.2228,6.4746,6.6182,6.5973,6.3434,6.2194,6.2077,6.3325,6.2787,6.2409,6.2279,6.4019,6.4381,6.3123,6.1118,5.8454,5.5192,5.3144,5.014,4.6239,4.484,4.3902,4.3444,4.3156,4.3016,4.3039,4.4116,4.5231,4.6286,4.6286,4.6286,4.6286,4.6286,4.6286,4.6286,4.6286,4.6286,4.6286,4.6286,4.6286,4.6286,4.6286,4.5949,4.5612,4.6135,4.6286,4.6286,4.6286,4.6286,4.6286,4.6286,4.6286,4.6286,4.6286,4.5874,4.5185,4.4041,4.4227,4.4252,4.3201,4.2537,4.1808,4.0688,4.0487,3.9709,3.7525,3.7638,3.7149,3.4954,3.5143,3.4591,3.2405,3.3219,3.3872,3.3897,3.4377,3.4917,3.5458,3.5483,3.7024,4.0387,4.4252,4.7355,4.9565,5.1783,5.2895,5.2895,5.2895,5.2895,5.2895,5.2895,5.3188,5.3683,5.3683,5.4336,5.5408,5.5408,5.5717,5.6251,5.6784,5.738,5.7951,5.8485,5.9056,5.9483,6.1123,6.1316,6.172,6.2862,6.4337,6.4884,6.3436,6.4241,6.4149,6.1766,6.1311,6.1367,6.1757,6.2187,6.1967,6.0782,6.0361,6.0523,6.1434,6.2038,6.2325,6.2308,6.3591,6.3947,6.3123,6.2016,6.0057,5.7171,5.5671,5.2133,4.6772,4.6385,4.5079,4.3125,4.3825,4.4108,4.4152,4.5282,4.5959,4.6286,4.6286,4.6286,4.6286,4.6286,4.6286,4.6286,4.6286,4.6286,4.6286,4.6286,4.6286,4.6361,4.6722,4.6486,4.6075,4.6235,4.6562,4.6863,4.6863,4.6863,4.6863,4.6863,4.6587,4.6286,4.6286,4.5874,4.5271,4.4503,4.4177,4.3966,4.3614,4.2484,4.1466,4.1088,4.0437,3.9295,3.7449,3.7034,3.6105,3.3883,3.3757,3.342,3.2305,3.3244,3.4187,3.4954,3.5143,3.5506,3.6093,3.7198,3.9007,4.1582,4.5031,4.7917,5.0126,5.1983,5.2895,5.2895,5.2895,5.3088,5.3439,5.3858,5.4152,5.4303,5.4303,5.473,5.5408,5.5408,5.5717,5.6276,5.723,5.7725,5.8001,5.8905,5.9357,5.9483,6.0768,6.0891,6.0959,6.088,6.2265,6.3004,6.1867,6.2572,6.2656,6.1067,6.0864,6.0638,6.0041,6.0166,6.0066,5.9533,5.9483,5.9801,6.0533,6.1906,6.2577,6.2308,6.3621,6.3977,6.3123,6.2674,6.1283,5.8846,5.6229,5.2961,4.916,4.7843,4.6531,4.5272,4.5472,4.5643,4.5884,4.6587,4.6888,4.6888,4.6888,4.6788,4.6612,4.6612,4.6486,4.6286,4.6286,4.6286,4.6286,4.6286,4.6436,4.6662,4.6998,4.7014,4.6863,4.6662,4.6988,4.735,4.7149,4.7249,4.74,4.74,4.7139,4.6838,4.6662,4.62,4.5648,4.507,4.4478,4.4027,4.384,4.2635,4.1567,4.1339,4.0387,3.9094,3.7436,3.6745,3.5803,3.4198,3.4209,3.4109,3.3498,3.4639,3.5618,3.6108,3.71,3.7764,3.7927,3.912,4.0715,4.2738,4.62,4.8997,5.1005,5.2285,5.2895,5.2895,5.3113,5.349,5.4052,5.4446,5.4723,5.4906,5.4906,5.5207,5.5691,5.5691,5.5892,5.6251,5.6997,5.7424,5.7775,5.8604,5.9156,5.9483,6.1036,6.0737,6.0267,6.0292,6.119,6.1718,6.119,6.0663,6.0292,6.0242,6.0242,6.0041,5.9558,5.996,6.0041,5.9533,5.9483,5.9801,6.0533,6.2249,6.2939,6.2337,6.3989,6.4351,6.3138,6.3108,6.2106,6.01,5.5385,5.2965,5.2719,4.9257,4.8175,4.9068,4.7826,4.7516,4.7908,4.7942,4.7933,4.7908,4.7857,4.7541,4.7099,4.7074,4.6722,4.6286,4.6286,4.6286,4.6286,4.6286,4.6662,4.7124,4.7149,4.7541,4.7857,4.7299,4.7541,4.7842,4.735,4.7591,4.7958,4.7958,4.7908,4.7716,4.7224,4.6687,4.6175,4.5663,4.5081,4.4503,4.3966,4.2989,4.2034,4.1352,4.0337,3.9057,3.7386,3.6708,3.618,3.557,3.6132,3.6356,3.5745,3.7112,3.7889,3.75,3.9785,4.1038,4.0738,4.1378,4.2457,4.3991,4.7732,5.0494,5.2151,5.2661,5.2937,5.2945,5.349,5.4077,5.4672,5.4697,5.4981,5.5458,5.5458,5.5742,5.62,5.62,5.62,5.62,5.6251,5.6721,5.7374,5.7851,5.8629,5.9483,5.9801,5.9817,5.9834,6.0217,6.0518,6.0643,6.0518,6.0392,6.0141,5.9734,5.9684,5.9633,5.9508,5.9608,5.9633,5.9508,5.9483,5.9801,6.0533,6.1817,6.2459,6.2308,6.3532,6.3887,6.3108,6.3108,6.2106,6.01,5.7205,5.467,5.2532,5.09,4.9464,4.8242,4.8769,4.8611,4.7933,4.84,4.8309,4.7867,4.745,4.7224,4.7048,4.6662,4.6411,4.6286,4.6286,4.6286,4.6286,4.6286,4.6662,4.7174,4.7591,4.8109,4.8476,4.7867,4.8134,4.8551,4.8426,4.8476,4.8576,4.8576,4.7933,4.7249,4.7124,4.6687,4.6261,4.615,4.5673,4.5121,4.4529,4.3539,4.2347,4.0914,3.9798,3.8492,3.682,3.6468,3.618,3.557,3.7161,3.8065,3.7475,3.8165,3.9157,4.0248,4.0161,4.0953,4.2911,4.5131,4.6336,4.6321,4.9289,5.1473,5.2711,5.2837,5.3113,5.3532,5.4102,5.4697,5.5232,5.5616,5.5892,5.6018,5.6018,5.6093,5.62,5.62,5.62,5.6251,5.6821,5.7148,5.7449,5.8679,5.9282,5.9483,5.9433,5.9709,5.9885,5.9935,6.0141,6.0217,5.9966,5.9935,5.9834,5.9533,5.9483,5.9483,5.9483,5.9483,5.9408,5.9156,5.9112,5.9898,6.172,6.1862,6.2377,6.3469,6.3817,6.3722,6.3108,6.3108,6.2031,5.9837,5.6792,5.4498,5.2983,5.1434,5.0117,4.9047,4.9439,4.9264,4.8711,4.9028,4.8978,4.8661,4.8369,4.8093,4.7832,4.7255,4.6888,4.6622,4.6386,4.6286,4.6336,4.6587,4.7039,4.7566,4.8134,4.8702,4.9104,4.8761,4.8928,4.9104,4.8868,4.8994,4.9179,4.9179,4.851,4.7883,4.7883,4.7239,4.6687,4.6687,4.605,4.5412,4.507,4.3905,4.2448,4.0763,3.9609,3.8215,3.6257,3.6457,3.6833,3.7023,3.8793,4.0074,4.0275,4.1267,4.197,4.2069,4.2936,4.389,4.4895,4.7807,4.8962,4.7908,5.0594,5.231,5.2895,5.2895,5.3314,5.4127,5.4429,5.5006,5.5767,5.6068,5.62,5.62,5.62,5.62,5.62,5.62,5.62,5.6226,5.6627,5.7123,5.7725,5.9031,5.9483,5.9483,5.9483,5.9885,6.006,5.9583,5.9885,6.0035,5.9558,5.9483,5.9483,5.9483,5.9483,5.9483,5.9483,5.9483,5.9282,5.8736,5.8635,5.9727,6.2445,6.1835,6.2328,6.4337,6.4173,6.3722,6.3108,6.2846,6.1645,5.9485,5.5639,5.3677,5.3444,5.1354,5.0352,5.0252,4.9791,4.959,4.959,4.959,4.959,4.959,4.9515,4.9204,4.8743,4.8033,4.7516,4.7048,4.6572,4.6411,4.6512,4.7023,4.7591,4.8134,4.8626,4.9179,4.959,4.959,4.959,4.949,4.9028,4.9254,4.959,4.959,4.9204,4.8793,4.8793,4.7983,4.7224,4.7224,4.6436,4.5738,4.5638,4.4256,4.2573,4.0889,3.9572,3.8052,3.6058,3.6734,3.7889,3.9019,4.0864,4.2431,4.3402,4.4859,4.5261,4.408,4.6351,4.7566,4.7079,4.9741,5.0686,4.9346,5.1632,5.2937,5.3013,5.302,5.3607,5.4723,5.4723,5.5232,5.62,5.62,5.62,5.62,5.62,5.6251,5.6326,5.6326,5.6376,5.647,5.6394,5.6979,5.8027,5.9106,5.9483,5.9483,5.9483,5.9558,5.9583,5.9508,5.9558,5.9583,5.9508,5.9483,5.9483,5.9483,5.9483,5.9483,5.9483,5.9483,5.9282,5.8736,5.8303,5.8435,5.944,6.0698,6.1531,6.186,6.3224,6.3722,6.3108,6.1659,6.0447,5.9485,5.6094,5.3915,5.2886,5.1175,5.0151,4.9715,4.964,4.959,4.959,4.959,4.959,4.9565,4.9104,4.8868,4.8677,4.7616,4.7174,4.7099,4.6998,4.6973,4.7048,4.7591,4.8159,4.8693,4.8768,4.9179,4.959,4.959,4.959,4.9565,4.9506,4.9556,4.959,4.959,4.9204,4.8793,4.8793,4.8275,4.7767,4.7767,4.729,4.6697,4.6261,4.4819,4.3137,4.1453,3.9483,3.7864,3.7048,3.7914,3.9032,4.0111,4.3374,4.5583,4.5773,4.6436,4.734,4.8501,4.7741,4.8193,5.041,5.1013,5.1389,5.1574,5.2435,5.3113,5.3565,5.3582,5.416,5.5282,5.5282,5.5591,5.62,5.62,5.62,5.62,5.62,5.6451,5.6878,5.6878,5.7179,5.76,5.7273,5.7449,5.8027,5.9106,5.9483,5.9483,5.9483,5.9483,5.9483,5.9483,5.9483,5.9483,5.9483,5.9483,5.9483,5.9483,5.9483,5.9483,5.9483,5.9257,5.8836,5.8328,5.8651,5.9114,5.9732,6.0189,6.1296,6.3214,6.3431,6.294,6.1718,6.0024,5.8544,5.7284,5.4869,5.3249,5.2404,5.1663,5.0854,5.0026,5.0026,4.9866,4.959,4.959,4.959,4.9581,4.933,4.9229,4.9154,4.8325,4.8008,4.7983,4.7641,4.7541,4.7616,4.8184,4.8576,4.8843,4.9129,4.9405,4.959,4.959,4.959,4.9665,4.9967,4.9816,4.9665,4.9967,4.9631,4.9229,4.9229,4.8802,4.8375,4.8375,4.7933,4.7365,4.6823,4.5131,4.3564,4.2772,4.0036,3.8241,3.8894,3.9421,4.0626,4.2911,4.5533,4.7657,4.8862,4.9213,4.9565,5.0017,4.9615,4.9916,5.1239,5.1565,5.1975,5.2511,5.2787,5.3163,5.3683,5.3708,5.426,5.5408,5.5691,5.5968,5.62,5.6502,5.6477,5.62,5.6502,5.6778,5.7035,5.7355,5.765,5.7901,5.7901,5.8001,5.8278,5.9156,5.9483,5.9659,5.9483,5.9483,5.9483,5.9483,5.9483,5.9483,5.9483,5.9483,5.9483,5.9483,5.9483,5.9483,5.9483,5.9112,5.861,5.7951,5.8978,5.9957,6.0551,6.0222,6.1415,6.4636,6.3311,6.188,6.0525,5.8465,5.6731,5.5403,5.3725,5.2636,5.2101,5.2101,5.1574,5.0603,5.0452,5.0151,4.9766,4.964,4.959,4.959,4.959,4.959,4.954,4.9003,4.8793,4.8743,4.8275,4.8109,4.8184,4.8777,4.9079,4.9229,4.9665,4.9866,5.0008,5.0008,5.0008,5.0042,5.0327,5.0218,5.0092,5.0519,5.0293,4.9958,4.9816,4.948,4.9179,4.9179,4.8686,4.8184,4.7767,4.5984,4.4428,4.4066,4.1279,3.9622,4.0889,4.1416,4.276,4.5698,4.7606,4.9414,5.1314,5.1615,5.1473,5.103,5.1423,5.1741,5.1867,5.2251,5.2711,5.3264,5.3163,5.3414,5.4084,5.4084,5.4587,5.5591,5.6143,5.6326,5.6226,5.6903,5.6903,5.6426,5.6979,5.728,5.7412,5.7882,5.8152,5.8303,5.8554,5.8654,5.873,5.9282,5.9608,5.9985,5.9483,5.9483,5.9483,5.9483,5.9483,5.9483,5.9483,5.9483,5.9483,5.9483,5.9483,5.9483,5.9483,5.9458,5.9031,5.8001,5.8968,5.9905,6.0551,6.0972,6.2036,6.3993,6.1906,6.0615,6.0495,5.7266,5.5535,5.5403,5.3725,5.2636,5.2101,5.2101,5.18,5.1214,5.0653,5.0377,5.0302,4.9816,4.959,4.959,4.959,4.959,4.954,4.9003,4.8793,4.8793,4.8743,4.8727,4.8818,4.9355,4.9866,5.0277,5.0327,5.072,5.1163,5.1163,5.1163,5.1063,5.0528,5.077,5.1188,5.1214,5.1214,5.1038,5.0452,5.0302,5.0277,5.0277,4.9866,4.9464,4.9414,4.8018,4.6346,4.479,4.3463,4.2674,4.2799,4.4156,4.5788,4.7531,4.969,5.1314,5.1975,5.2485,5.2744,5.2737,5.2762,5.3013,5.3507,5.3557,5.3876,5.4471,5.3934,5.416,5.5239,5.5265,5.5566,5.6168,5.6684,5.6677,5.6244,5.7349,5.7506,5.696,5.7556,5.8127,5.8585,5.8635,5.8936,5.9382,5.9408,5.9408,5.9433,5.9483,5.9935,6.0537,5.9433,5.9483,5.9483,5.9483,5.9483,5.9483,5.9483,5.9483,5.9483,5.9483,5.9483,5.9483,5.9483,5.8905,5.8353,5.7926,5.9324,6.0335,6.059,6.2103,6.312,6.3423,6.1539,6.0024,5.8965,5.6618,5.4882,5.3835,5.3213,5.2636,5.2126,5.2435,5.2126,5.1314,5.1423,5.1055,5.0377,5.0176,4.9916,4.959,4.959,4.959,4.9581,4.938,4.9305,4.933,4.9665,4.9791,4.9866,5.046,5.0787,5.0946,5.0946,5.1113,5.1289,5.1289,5.154,5.1749,5.1523,5.1373,5.1389,5.1699,5.1565,5.1239,5.0996,5.0946,5.0946,5.0946,5.0812,5.0535,5.0167,4.9038,4.8159,4.8193,4.615,4.5135,4.6843,4.7029,4.7606,4.9248,5.0845,5.2,5.2536,5.2787,5.3038,5.3364,5.3389,5.3658,5.4228,5.4253,5.4504,5.5082,5.5189,5.5315,5.5408,5.5408,5.5842,5.6684,5.728,5.7455,5.7273,5.8052,5.8083,5.7581,5.8133,5.851,5.8736,5.9056,5.9307,5.9483,5.9483,5.9483,5.9558,6.001,6.0286,6.0563,5.9433,5.9483,5.9483,5.9483,5.9483,5.9483,5.9483,5.9483,5.9483,5.9483,5.9483,5.9483,5.9483,5.8704,5.8322,5.8711,6.006,6.1021,6.1419,6.2566,6.2958,6.2307,6.0629,5.8918,5.7213,5.5512,5.4055,5.2895,5.2895,5.2711,5.236,5.2737,5.2511,5.18,5.2026,5.1674,5.0904,5.0754,5.0469,5.0117,5.0117,5.0117,5.0117,5.0117,5.0117,5.0167,5.0544,5.0695,5.0745,5.1163,5.1414,5.1565,5.1565,5.1666,5.18,5.18,5.2076,5.2335,5.2335,5.2076,5.19,5.226,5.2076,5.1749,5.159,5.1565,5.1565,5.1565,5.1565,5.1423,5.1005,5.0318,4.9907,5.0101,4.841,4.7707,4.959,4.9339,4.9515,5.1005,5.2009,5.2754,5.3113,5.3314,5.3582,5.3934,5.3976,5.4253,5.4805,5.5333,5.5709,5.5892,5.6445,5.657,5.6194,5.6187,5.647,5.701,5.7782,5.8052,5.7926,5.8629,5.866,5.8177,5.871,5.8936,5.8961,5.9357,5.9483,5.9483,5.9483,5.9608,5.9809,6.0311,6.0638,6.0995,5.9483,5.9483,5.9483,5.9483,5.9483,5.9483,5.9483,5.9483,5.9483,5.9483,5.9483,5.9483,5.9483,5.9031,5.9203,6.047,6.1078,6.1946,6.3185,6.215,6.1186,6.0493,5.8884,5.7149,5.5436,5.3759,5.2895,5.2895,5.2895,5.2895,5.2895,5.2895,5.2895,5.2887,5.2335,5.2101,5.2076,5.154,5.1289,5.1289,5.1289,5.1289,5.1289,5.1289,5.1289,5.1289,5.1314,5.1314,5.1314,5.1314,5.1666,5.2126,5.2126,5.246,5.2895,5.2895,5.2895,5.2895,5.2895,5.2895,5.2895,5.2895,5.2895,5.2744,5.2226,5.2126,5.2126,5.2126,5.2126,5.2126,5.2126,5.2126,5.1574,4.9891,5.0051,5.0427,5.0427,5.0946,5.1699,5.2787,5.3364,5.3708,5.3708,5.4253,5.4597,5.4622,5.4622,5.4856,5.5408,5.6997,5.7631,5.7035,5.7581,5.7901,5.7901,5.7901,5.7581,5.7035,5.8158,5.8409,5.7951,5.9006,5.9207,5.8736,5.9282,5.9483,5.9483,5.9483,5.9483,5.9483,5.9483,5.9834,6.0292,6.0317,6.104,6.1994,5.9332,5.9483,5.9483,5.9483,5.9483,5.9483,5.9483,5.9483,5.9483,5.9483,5.9483,5.9357,5.8961,5.8459,5.8618,5.9858,6.049,6.1186,6.1984,6.1705,6.0139,5.7053,5.644,5.5945,5.5403,5.3759,5.2895,5.2895,5.2895,5.2895,5.2895,5.2895,5.2895,5.2895,5.2737,5.246,5.2101,5.1925,5.1624,5.1289,5.1289,5.1289,5.1289,5.1289,5.1289,5.1339,5.1741,5.185,5.1925,5.2302,5.2536,5.2661,5.2661,5.2787,5.2895,5.2895,5.2895,5.2895,5.2895,5.2895,5.2895,5.2895,5.2895,5.2845,5.2711,5.2661,5.2661,5.2661,5.2661,5.2661,5.2661,5.2661,5.2511,5.2009,5.2059,5.2142,5.2142,5.231,5.2686,5.3381,5.3607,5.3876,5.4278,5.4496,5.4773,5.5132,5.5867,5.6545,5.7123,5.7625,5.7826,5.765,5.8158,5.8284,5.7901,5.7901,5.8001,5.8208,5.8535,5.8811,5.9031,5.9357,5.9408,5.9282,5.9433,5.9483,5.9483,5.9483,5.9483,5.9483,5.9483,5.9834,6.0342,6.0788,6.1391,6.2049,5.9357,5.9483,5.9483,5.9483,5.9483,5.9483,5.9483,5.9483,5.9483,5.9483,5.9483,5.9382,5.9037,5.8353,5.8755,6.0944,6.2108,6.2489,6.1935,6.1046,5.8979,5.5545,5.4775,5.4416,5.4416,5.3427,5.2895,5.2895,5.2895,5.2895,5.2895,5.2895,5.2895,5.2895,5.2895,5.2711,5.241,5.241,5.2226,5.1925,5.1925,5.1925,5.1925,5.1925,5.1925,5.1975,5.2285,5.241,5.246,5.2787,5.2895,5.2895,5.2895,5.2895,5.2895,5.2895,5.3063,5.3213,5.3213,5.3389,5.3582,5.3582,5.3239,5.2895,5.2895,5.2895,5.2895,5.2895,5.2895,5.2895,5.2895,5.2895,5.297,5.3188,5.3213,5.3289,5.3532,5.3582,5.3683,5.4027,5.4235,5.4529,5.4881,5.5107,5.5458,5.5993,5.7054,5.7732,5.7901,5.8303,5.8428,5.8227,5.8755,5.8855,5.8529,5.8529,5.8604,5.871,5.8911,5.9207,5.9483,5.9483,5.9483,5.9483,5.9483,5.9483,5.9483,5.9483,5.9483,5.9508,5.9734,5.9991,6.0392,6.1215,6.1718,6.2094,5.9483,5.9483,5.9483,5.9483,5.9483,5.9483,5.9483,5.9483,5.9483,5.9483,5.9483,5.9458,5.9357,5.863,5.9495,6.2875,6.4778,6.4759,6.2349,6.0026,5.7678,5.5264,5.3708,5.2895,5.2895,5.2895,5.2895,5.2895,5.2895,5.2895,5.2895,5.2895,5.2895,5.2895,5.2895,5.2895,5.2895,5.2895,5.2895,5.2895,5.2895,5.2895,5.2895,5.2895,5.2895,5.2895,5.2895,5.2895,5.2895,5.2895,5.2895,5.2895,5.2895,5.2895,5.2895,5.2962,5.3314,5.3708,5.3758,5.4177,5.4597,5.4597,5.3808,5.3063,5.3063,5.3013,5.2988,5.3038,5.3013,5.2988,5.3038,5.3063,5.3213,5.3708,5.3783,5.3976,5.4522,5.4597,5.4622,5.4672,5.5107,5.5458,5.5516,5.6043,5.6577,5.7111,5.8108,5.851,5.8077,5.9006,5.9332,5.8786,5.9307,5.9533,5.9483,5.9483,5.9257,5.8786,5.9282,5.9483,5.9483,5.9483,5.9483,5.9483,5.9483,5.9483,5.9483,5.9483,5.9483,5.9533,6.006,6.0267,6.0417,6.1466,6.1893,6.2019,5.9408,5.9483,5.9483,5.9483,5.9483,5.9483,5.9483,5.9483,5.9483,5.9483,5.9483,5.9182,5.8328,5.9296,6.0552,6.1855,6.324,6.2823,5.995,5.7988,5.5919,5.3529,5.3093,5.2895,5.2895,5.2895,5.2895,5.2895,5.2895,5.2895,5.2895,5.2895,5.2895,5.2895,5.2895,5.2895,5.2895,5.2895,5.2895,5.2895,5.2895,5.2895,5.2895,5.2895,5.2895,5.2895,5.2895,5.2895,5.2895,5.2895,5.2895,5.2895,5.2895,5.2895,5.2988,5.3389,5.3607,5.3808,5.4278,5.4496,5.4597,5.4597,5.4403,5.4228,5.4228,5.3876,5.3658,5.4127,5.3876,5.3683,5.4152,5.4228,5.4253,5.4396,5.4403,5.4446,5.4572,5.4597,5.4773,5.5182,5.5333,5.5717,5.6577,5.7198,5.775,5.8309,5.856,5.8836,5.9131,5.9784,5.9885,5.9357,5.9859,5.9915,5.9508,5.9483,5.9433,5.9332,5.9433,5.9483,5.9483,5.9483,5.9483,5.9483,5.9483,5.9483,5.9483,5.9483,5.9483,5.9508,5.9633,5.9935,6.0342,6.0568,6.0964,6.1492,5.9012,5.9131,5.9207,5.9458,5.9483,5.9483,5.9483,5.9483,5.9483,5.9483,5.9483,5.9182,5.8378,5.9666,6.1218,6.274,6.2972,6.2,5.96,5.7236,5.5021,5.2981,5.2895,5.2895,5.2895,5.2895,5.2895,5.2895,5.2895,5.2895,5.2895,5.2895,5.2895,5.2895,5.2895,5.2895,5.2895,5.2895,5.2895,5.2895,5.2895,5.2895,5.2895,5.2895,5.2895,5.2895,5.2895,5.2895,5.2895,5.2895,5.2895,5.2945,5.3213,5.3289,5.3389,5.3959,5.4328,5.4561,5.4906,5.5358,5.5742,5.5742,5.5961,5.5885,5.4848,5.4353,5.4228,5.4547,5.4353,5.4228,5.4547,5.4823,5.5056,5.5333,5.5358,5.544,5.5717,5.5742,5.5842,5.6143,5.642,5.6821,5.738,5.7725,5.8127,5.866,5.8936,5.9332,5.9859,6.0141,6.0166,5.991,6.0437,6.0337,5.9508,5.9759,5.9759,5.9483,5.9483,5.9483,5.9483,5.9483,5.9483,5.9483,5.9483,5.9483,5.9483,5.9483,5.9483,5.9533,6.0105,6.0136,6.0035,6.0839,6.1246,6.1567,5.861,5.8761,5.8936,5.9307,5.9357,5.9357,5.9357,5.9357,5.9357,5.9357,5.9357,5.9291,5.9041,6.0349,6.2003,6.3966,6.2866,6.1285,5.9395,5.6581,5.4349,5.2964,5.2988,5.2995,5.2895,5.2988,5.2988,5.2895,5.2895,5.2895,5.2895,5.2895,5.2895,5.2895,5.2895,5.2895,5.2895,5.2895,5.2895,5.2895,5.2895,5.2895,5.2895,5.2895,5.2895,5.2895,5.2895,5.2895,5.2895,5.3013,5.3038,5.3138,5.3683,5.3858,5.3976,5.4554,5.5056,5.5458,5.5616,5.6326,5.701,5.7129,5.7531,5.7424,5.5584,5.5006,5.4898,5.4981,5.4856,5.4805,5.5125,5.5433,5.5842,5.642,5.6495,5.6652,5.7104,5.7136,5.7136,5.7136,5.7681,5.8052,5.8052,5.8127,5.8403,5.8936,5.9408,5.9885,6.0417,6.0543,6.0543,6.0462,6.1014,6.0858,5.9784,6.0116,6.0085,5.9633,5.9633,5.9633,5.9633,5.9633,5.9633,5.9633,5.9659,5.9608,5.9483,5.9483,5.9483,5.9583,6.0557,6.0406,5.9809,6.1316,6.1798,6.1778,5.8685,5.9062,5.9282,5.8886,5.8811,5.8811,5.8811,5.8811,5.8811,5.8811,5.8811,5.9205,6.0227,6.2398,6.3691,6.3453,6.1546,5.9335,5.6934,5.4567,5.3145,5.2912,5.3339,5.3364,5.2895,5.3339,5.3364,5.2895,5.2895,5.2895,5.2895,5.2895,5.2895,5.2895,5.2895,5.2895,5.2895,5.2895,5.2895,5.2895,5.2895,5.2895,5.2895,5.2895,5.2895,5.2895,5.2895,5.2895,5.297,5.3457,5.3607,5.3708,5.4278,5.4471,5.4597,5.5132,5.5358,5.5591,5.6527,5.6885,5.7129,5.765,5.7851,5.7826,5.7524,5.6696,5.6118,5.6577,5.5942,5.5717,5.7173,5.7079,5.6979,5.7575,5.7675,5.77,5.7775,5.7775,5.7775,5.7775,5.8259,5.8585,5.8585,5.9006,5.9508,6.0041,6.0141,6.0462,6.1059,6.1517,6.1567,6.111,6.1617,6.1592,6.0984,6.0537,6.0267,6.0191,6.0191,6.0191,6.0191,6.0191,6.0191,6.0191,6.0387,6.0085,5.9483,5.9483,5.9483,5.9508,5.9659,5.991,6.0267,6.1014,6.1466,6.1652,5.8183,5.8453,5.873,5.9062,5.8886,5.8786,5.9106,5.8886,5.871,5.871,5.871,5.9045,5.9988,6.2593,6.4166,6.3891,6.1771,5.9543,5.7429,5.5149,5.3833,5.3833,5.4077,5.4102,5.3858,5.4077,5.4102,5.3833,5.3213,5.2895,5.2895,5.2895,5.2895,5.2895,5.2895,5.2895,5.2895,5.2895,5.2895,5.2895,5.2895,5.2895,5.2895,5.2895,5.2895,5.2895,5.2895,5.3088,5.3364,5.3632,5.3909,5.4303,5.4856,5.5056,5.5207,5.6068,5.6301,5.6477,5.728,5.7732,5.8008,5.8284,5.8579,5.8704,5.8428,5.7957,5.7581,5.7506,5.7123,5.7022,5.775,5.7932,5.8033,5.8284,5.8334,5.8334,5.8334,5.8334,5.8453,5.8755,5.8736,5.8811,5.9131,5.9106,5.9388,6.0242,6.0292,6.0693,6.1592,6.1868,6.1893,6.1642,6.2169,6.2044,6.121,6.124,6.1115,6.0788,6.0788,6.0638,6.0317,6.0663,6.0788,6.0788,6.0663,6.0431,6.0085,5.9659,5.9483,5.9483,5.9483,6.0412,6.1647,6.1316,6.1291,6.1316]},{"header":{"parameterUnit":"m.s-1","parameterCategory":1,"la1":30.6,"la2":28.766,"lo1":-90.7593,"lo2":-88.6598,"dy":0.0162,"dx":0.0183,"nx":116,"ny":114,"refTime":"2023-11-01T06:00:00:Z","depth":0,"parameterNumber":3,"parameterNumberName":"V-component_of_WINDS"},"data":[0.0,0.0,0.0,0.0,0.0,0.0,0.0,0.0,0.0,0.0,0.0,0.0,0.0,0.0,0.0,0.0,0.0,0.0,0.0,0.0,0.0,0.0,0.0,0.0,0.0,0.0,0.0,0.0,0.0,0.0,0.0,0.0,0.0,0.0,0.0,0.0,0.0,0.0,0.0,0.0,0.0,0.0,0.0,0.0,0.0,0.0,0.0,0.0,0.0,0.0,0.0,0.0,0.0,0.0,0.0,0.0,0.0,0.0,0.0,0.0,0.0,0.0,0.0,0.0,0.0,0.0,0.0,0.0,0.0,0.0,0.0,0.0,0.0,0.0,0.0,0.0,0.0,0.0,0.0,0.0,0.0,0.0,0.0,0.0,0.0,0.0,0.0,0.0,0.0,0.0,0.0,0.0,0.0,0.0,0.0,0.0,0.0,0.0,0.0,0.0,0.0,0.0,0.0,0.0,0.0,0.0,0.0,0.0,0.0,0.0,0.0,0.0,0.0,0.0,0.0,0.0,0.0,0.0,0.0,0.0,0.0,0.0,0.0,0.0,0.0,0.0,0.0,0.0,0.0,0.0,0.0,0.0,0.0,0.0,0.0,0.0,0.0,0.0,0.0,0.0,0.0,0.0,0.0,0.0,0.0,0.0,0.0,0.0,0.0,0.0,0.0,0.0,0.0,0.0,0.0,0.0,0.0,0.0,0.0,0.0,0.0,0.0,0.0,0.0,0.0,0.0,0.0,0.0,0.0,0.0,0.0,0.0,0.0,0.0,0.0,0.0,0.0,0.0,0.0,0.0,0.0,0.0,0.0,0.0,0.0,0.0,0.0,0.0,0.0,0.0,0.0,0.0,0.0,0.0,0.0,0.0,0.0,0.0,0.0,0.0,0.0,0.0,0.0,0.0,0.0,0.0,0.0,0.0,0.0,0.0,0.0,0.0,0.0,0.0,0.0,0.0,0.0,0.0,0.0,0.0,0.0,0.0,0.0,0.0,0.0,0.0,0.0,0.0,0.0,0.0,0.0,0.0,0.0,0.0,0.0,0.0,0.0,0.0,0.0,0.0,0.0,0.0,0.0,0.0,0.0,0.0,0.0,0.0,0.0,0.0,0.0,0.0,0.0,0.0,0.0,0.0,0.0,0.0,0.0,0.0,0.0,0.0,0.0,0.0,0.0,0.0,0.0,0.0,0.0,0.0,0.0,0.0,0.0,0.0,0.0,0.0,0.0,0.0,0.0,0.0,0.0,0.0,0.0,0.0,0.0,0.0,0.0,0.0,0.0,0.0,0.0,0.0,0.0,0.0,0.0,0.0,0.0,0.0,0.0,0.0,0.0,0.0,0.0,0.0,0.0,0.0,0.0,0.0,0.0,0.0,0.0,0.0,0.0,0.0,0.0,0.0,0.0,0.0,0.0,0.0,0.0,0.0,0.0,0.0,0.0,0.0,0.0,0.0,0.0,0.0,0.0,0.0,0.0,0.0,0.0,0.0,0.0,0.0,0.0,0.0,0.0,0.0,0.0,0.0,0.0,0.0,0.0,0.0,0.0,0.0,0.0,0.0,0.0,0.0,0.0,0.0,0.0,0.0,0.0,0.0,0.0,0.0,0.0,0.0,0.0,0.0,0.0,0.0,0.0,0.0,0.0,0.0,0.0,0.0,0.0,0.0,0.0,0.0,0.0,0.0,0.0,0.0,0.0,0.0,0.0,0.0,0.0,0.0,0.0,0.0,0.0,0.0,0.0,0.0,0.0,0.0,0.0,0.0,0.0,0.0,0.0,0.0,0.0,0.0,0.0,0.0,0.0,0.0,0.0,0.0,0.0,0.0,0.0,0.0,0.0,0.0,0.0,0.0,0.0,0.0,0.0,0.0,0.0,0.0,0.0,0.0,0.0,0.0,0.0,0.0,0.0,0.0,0.0,0.0,0.0,0.0,0.0,0.0,0.0,0.0,0.0,0.0,0.0,0.0,0.0,0.0,0.0,0.0,0.0,0.0,0.0,0.0,0.0,0.0,0.0,0.0,0.0,0.0,0.0,0.0,0.0,0.0,0.0,0.0,0.0,0.0,0.0,0.0,0.0,0.0,0.0,0.0,0.0,0.0,0.0,0.0,0.0,0.0,0.0,0.0,0.0,0.0,0.0,0.0,0.0,0.0,0.0,0.0,0.0,0.0,0.0,0.0,0.0,0.0,0.0,0.0,0.0,0.0,0.0,0.0,0.0,0.0,0.0,0.0,0.0,0.0,0.0,0.0,0.0,0.0,0.0,0.0,0.0,0.0,0.0,0.0,0.0,0.0,0.0,0.0,0.0,0.0,0.0,0.0,0.0,0.0,0.0,0.0,0.0,0.0,0.0,0.0,0.0,0.0,0.0,0.0,0.0,0.0,0.0,0.0,0.0,0.0,0.0,0.0,0.0,0.0,0.0,0.0,0.0,0.0,0.0,0.0,0.0,0.0,0.0,0.0,0.0,0.0,0.0,0.0,0.0,0.0,0.0,0.0,0.0,0.0,0.0,0.0,0.0,0.0,0.0,0.0,0.0,0.0,0.0,0.0,0.0,0.0,0.0,0.0,0.0,0.0,0.0,0.0,0.0,0.0,0.0,0.0,0.0,0.0,0.0,0.0,0.0,0.0,0.0,0.0,0.0,0.0,0.0,0.0,0.0,0.0,0.0,0.0,0.0,0.0,0.0,0.0,0.0,0.0,0.0,0.0,0.0,0.0,0.0,0.0,0.0,0.0,0.0,0.0,0.0,0.0,0.0,0.0,0.0,0.0,0.0,0.0,0.0,0.0,0.0,0.0,0.0,0.0,0.0,0.0,0.0,0.0,0.0,0.0,0.0,0.0,0.0,0.0,0.0,0.0,0.0,0.0,0.0,0.0,0.0,0.0,0.0,0.0,0.0,0.0,0.0,0.0,0.0,0.0,0.0,0.0,0.0,0.0,0.0,0.0,0.0,0.0,0.0,0.0,0.0,0.0,0.0,0.0,0.0,0.0,0.0,0.0,0.0,0.0,0.0,0.0,0.0,0.0,0.0,0.0,0.0,0.0,0.0,0.0,0.0,0.0,0.0,0.0,0.0,0.0,0.0,0.0,0.0,0.0,0.0,0.0,0.0,0.0,0.0,0.0,0.0,0.0,0.0,0.0,0.0,0.0,0.0,0.0,0.0,0.0,0.0,0.0,0.0,0.0,0.0,0.0,0.0,0.0,0.0,0.0,0.0,0.0,0.0,0.0,0.0,0.0,0.0,0.0,0.0,0.0,0.0,0.0,0.0,0.0,0.0,0.0,0.0,0.0,0.0,0.0,0.0,0.0,0.0,0.0,0.0,0.0,0.0,0.0,0.0,0.0,0.0,0.0,0.0,0.0,0.0,0.0,0.0,0.0,0.0,0.0,0.0,0.0,0.0,0.0,0.0,0.0,0.0,0.0,0.0,0.0,0.0,0.0,0.0,0.0,0.0,0.0,0.0,0.0,0.0,0.0,0.0,0.0,0.0,0.0,0.0,0.0,0.0,0.0,0.0,0.0,0.0,0.0,0.0,0.0,0.0,0.0,0.0,0.0,0.0,0.0,0.0,0.0,0.0,0.0,0.0,0.0,0.0,0.0,0.0,0.0,0.0,0.0,0.0,0.0,0.0,0.0,0.0,0.0,0.0,0.0,0.0,0.0,0.0,0.0,0.0,0.0,0.0,0.0,0.0,0.0,0.0,0.0,0.0,0.0,0.0,0.0,0.0,0.0,0.0,0.0,0.0,0.0,0.0,0.0,0.0,0.0,0.0,0.0,0.0,0.0,0.0,0.0,0.0,0.0,0.0,0.0,0.0,0.0,0.0,0.0,0.0,0.0,0.0,0.0,0.0,0.0,0.0,0.0,0.0,0.0,0.0,0.0,0.0,0.0,0.0,0.0,0.0,0.0,0.0,0.0,0.0,0.0,0.0,0.0,0.0,0.0,0.0,0.0,0.0,0.0,0.0,0.0,0.0,0.0,0.0,0.0,0.0,0.0,0.0,0.0,0.0,0.0,0.0,0.0,0.0,0.0,0.0,0.0,0.0,0.0,0.0,0.0,0.0,0.0,0.0,0.0,0.0,0.0,0.0,0.0,0.0,0.0,0.0,0.0,0.0,0.0,0.0,0.0,0.0,0.0,0.0,0.0,0.0,0.0,0.0,0.0,0.0,0.0,0.0,0.0,0.0,0.0,0.0,0.0,0.0,0.0,0.0,0.0,0.0,0.0,0.0,0.0,0.0,0.0,0.0,0.0,0.0,0.0,0.0,0.0,0.0,0.0,0.0,0.0,0.0,0.0,0.0,0.0,0.0,0.0,0.0,0.0,0.0,0.0,0.0,0.0,0.0,0.0,0.0,0.0,0.0,0.0,0.0,0.0,0.0,0.0,0.0,0.0,0.0,0.0,0.0,0.0,0.0,0.0,0.0,0.0,0.0,0.0,0.0,0.0,0.0,0.0,0.0,0.0,0.0,0.0,0.0,0.0,0.0,0.0,0.0,0.0,0.0,0.0,0.0,0.0,0.0,0.0,0.0,0.0,0.0,0.0,0.0,0.0,0.0,0.0,0.0,0.0,0.0,0.0,0.0,0.0,0.0,0.0,0.0,0.0,0.0,0.0,0.0,0.0,0.0,0.0,0.0,0.0,0.0,0.0,0.0,0.0,0.0,0.0,0.0,0.0,0.0,0.0,0.0,0.0,0.0,0.0,0.0,0.0,0.0,0.0,0.0,0.0,0.0,0.0,0.0,0.0,0.0,0.0,0.0,0.0,0.0,0.0,0.0,0.0,0.0,0.0,0.0,0.0,0.0,0.0,0.0,0.0,0.0,0.0,0.0,0.0,0.0,0.0,0.0,0.0,0.0,0.0,0.0,0.0,0.0,0.0,0.0,0.0,0.0,0.0,0.0,0.0,0.0,0.0,0.0,0.0,0.0,0.0,0.0,0.0,0.0,0.0,0.0,0.0,0.0,0.0,0.0,0.0,0.0,0.0,0.0,0.0,0.0,0.0,0.0,0.0,0.0,0.0,0.0,0.0,0.0,0.0,0.0,0.0,0.0,0.0,0.0,0.0,0.0,0.0,0.0,0.0,0.0,0.0,0.0,0.0,0.0,0.0,0.0,0.0,0.0,0.0,0.0,0.0,0.0,0.0,0.0,0.0,0.0,0.0,0.0,0.0,0.0,0.0,0.0,0.0,0.0,0.0,0.0,0.0,0.0,0.0,0.0,0.0,0.0,0.0,0.0,0.0,0.0,0.0,0.0,0.0,0.0,0.0,0.0,0.0,0.0,0.0,0.0,0.0,0.0,0.0,0.0,0.0,0.0,0.0,0.0,0.0,0.0,0.0,0.0,0.0,0.0,0.0,0.0,0.0,0.0,0.0,0.0,0.0,0.0,0.0,0.0,0.0,0.0,0.0,0.0,0.0,0.0,0.0,0.0,0.0,0.0,0.0,0.0,0.0,0.0,0.0,0.0,0.0,0.0,0.0,0.0,0.0,0.0,0.0,0.0,0.0,0.0,0.0,0.0,0.0,0.0,0.0,0.0,0.0,0.0,0.0,0.0,0.0,0.0,0.0,0.0,0.0,0.0,0.0,0.0,0.0,0.0,0.0,0.0,0.0,0.0,0.0,0.0,0.0,0.0,0.0,0.0,0.0,0.0,0.0,0.0,0.0,0.0,0.0,0.0,0.0,0.0,0.0,0.0,0.0,0.0,0.0,0.0,0.0,0.0,0.0,0.0,0.0,0.0,0.0,0.0,0.0,0.0,0.0,0.0,0.0,0.0,0.0,0.0,0.0,0.0,0.0,0.0,0.0,0.0,0.0,0.0,0.0,0.0,0.0,0.0,0.0,0.0,0.0,0.0,0.0,0.0,0.0,0.0,0.0,0.0,0.0,0.0,0.0,0.0,0.0,0.0,0.0,0.0,0.0,0.0,0.0,0.0,0.0,0.0,0.0,0.0,0.0,0.0,0.0,0.0,0.0,0.0,0.0,0.0,0.0,0.0,0.0,0.0,0.0,0.0,0.0,0.0,0.0,0.0,0.0,0.0,0.0,0.0,0.0,0.0,0.0,0.0,0.0,0.0,0.0,0.0,0.0,0.0,0.0,2.2344,2.163,0.0,0.0,0.0,0.0,0.0,0.0,0.0,0.0,0.0,0.0,0.0,0.0,0.0,0.0,0.0,0.0,0.0,0.0,0.0,0.0,0.0,0.0,0.0,0.0,0.0,0.0,0.0,0.0,0.0,0.0,0.0,0.0,0.0,0.0,0.0,0.0,0.0,0.0,0.0,0.0,0.0,0.0,0.0,0.0,0.0,0.0,0.0,0.0,0.0,0.0,0.0,0.0,0.0,0.0,0.0,0.0,0.0,0.0,0.0,0.0,0.0,0.0,0.0,0.0,0.0,0.0,0.0,0.0,0.0,0.0,0.0,0.0,0.0,0.0,0.0,0.0,0.0,0.0,0.0,0.0,0.0,0.0,0.0,0.0,0.0,0.0,0.0,0.0,0.0,0.0,0.0,0.0,0.0,0.0,0.0,0.0,0.0,0.0,0.0,0.0,0.0,0.0,0.0,0.0,0.0,0.0,0.0,0.0,0.0,0.0,0.0,0.0,0.0,0.0,2.768,2.5508,0.0,0.0,0.0,0.0,0.0,0.0,0.0,0.0,0.0,0.0,0.0,0.0,0.0,0.0,0.0,0.0,0.0,0.0,0.0,0.0,0.0,0.0,0.0,0.0,0.0,0.0,0.0,0.0,0.0,0.0,0.0,0.0,0.0,0.0,0.0,0.0,0.0,0.0,0.0,0.0,0.0,0.0,0.0,0.0,0.0,0.0,0.0,0.0,0.0,0.0,0.0,0.0,0.0,0.0,0.0,0.0,0.0,0.0,0.0,0.0,0.0,0.0,0.0,0.0,0.0,0.0,0.0,0.0,0.0,0.0,0.0,0.0,0.0,0.0,0.0,0.0,0.0,0.0,0.0,0.0,0.0,0.0,0.0,0.0,0.0,0.0,0.0,0.0,0.0,0.0,0.0,0.0,0.0,0.0,0.0,0.0,0.0,0.0,0.0,0.0,0.0,0.0,0.0,0.0,0.0,0.0,0.0,0.0,3.6451,3.7525,3.8224,3.8714,3.8761,3.8351,3.5512,3.1947,2.8301,3.0135,0.0,0.0,0.0,0.0,0.0,0.0,0.0,0.0,0.0,0.0,0.0,0.0,0.0,0.0,0.0,0.0,0.0,0.0,0.0,0.0,0.0,0.0,0.0,0.0,0.0,0.0,0.0,0.0,0.0,0.0,0.0,0.0,0.0,0.0,0.0,0.0,0.0,0.0,3.5274,3.6587,3.6585,3.5365,3.2255,0.0,0.0,0.0,0.0,0.0,0.0,0.0,0.0,0.0,0.0,0.0,0.0,0.0,0.0,0.0,0.0,0.0,0.0,0.0,0.0,0.0,0.0,0.0,0.0,0.0,0.0,0.0,0.0,0.0,0.0,0.0,0.0,0.0,0.0,0.0,0.0,0.0,0.0,0.0,0.0,0.0,0.0,0.0,2.6457,2.6582,0.0,0.0,0.0,0.0,0.0,0.0,0.0,0.0,0.0,0.0,0.0,0.0,0.0,3.5132,3.6645,3.8212,3.9074,3.9323,4.2261,4.3199,4.2408,4.4734,4.473,4.2976,4.4887,0.0,3.3097,3.2306,0.0,0.0,0.0,0.0,0.0,0.0,0.0,0.0,0.0,0.0,0.0,0.0,0.0,0.0,0.0,0.0,0.0,0.0,0.0,0.0,0.0,0.0,0.0,0.0,0.0,0.0,0.0,0.0,0.0,0.0,0.0,0.0,0.0,0.0,0.0,0.0,3.6609,3.9464,4.0667,4.2411,4.287,4.2107,3.954,3.7047,3.4688,3.3563,0.0,0.0,0.0,0.0,0.0,0.0,0.0,0.0,0.0,0.0,0.0,0.0,0.0,0.0,0.0,0.0,0.0,0.0,0.0,0.0,0.0,0.0,0.0,0.0,0.0,0.0,0.0,0.0,0.0,0.0,0.0,0.0,0.0,0.0,0.0,0.0,0.0,0.0,0.0,2.7519,2.8968,2.7322,2.8852,2.8868,0.0,0.0,0.0,0.0,0.0,0.0,0.0,0.0,0.0,3.7391,3.9259,4.1121,4.2977,4.4905,4.6479,4.7767,4.9525,5.0555,5.0961,5.2121,5.2107,5.1225,5.2163,4.9378,4.3954,4.0567,3.7294,3.4182,0.0,0.0,0.0,0.0,3.0871,3.2661,0.0,0.0,0.0,0.0,0.0,0.0,0.0,0.0,0.0,0.0,0.0,0.0,0.0,0.0,0.0,2.949,0.0,0.0,0.0,0.0,0.0,0.0,0.0,0.0,0.0,0.0,0.0,0.0,4.3816,4.6582,4.7222,4.8845,4.9224,4.8521,4.6974,4.3148,3.7773,3.6604,3.4794,0.0,0.0,0.0,0.0,0.0,0.0,0.0,0.0,0.0,0.0,0.0,0.0,0.0,0.0,0.0,0.0,0.0,0.0,0.0,0.0,0.0,0.0,0.0,0.0,0.0,0.0,0.0,0.0,0.0,0.0,0.0,0.0,0.0,0.0,0.0,0.0,0.0,0.0,3.0479,3.1867,2.9151,3.1726,3.2206,0.0,0.0,0.0,0.0,0.0,0.0,3.6914,3.8484,4.0672,4.3637,4.5703,4.7726,4.9709,5.1435,5.3213,5.4988,5.5433,5.6438,5.7838,5.7706,5.7713,5.7813,5.728,5.5817,5.3381,4.7917,4.3407,3.9696,3.7564,3.6277,3.5584,3.5244,3.6293,3.8018,0.0,0.0,0.0,0.0,0.0,0.0,0.0,0.0,0.0,0.0,0.0,0.0,0.0,0.0,3.0251,3.4627,3.4576,3.3989,0.0,0.0,0.0,0.0,0.0,0.0,0.0,0.0,0.0,4.6454,5.0674,5.3706,5.5602,5.57,5.5371,5.467,5.3347,4.9445,4.3669,3.9263,3.7176,3.6653,0.0,0.0,0.0,0.0,0.0,0.0,0.0,0.0,0.0,0.0,0.0,0.0,0.0,0.0,0.0,0.0,0.0,0.0,0.0,0.0,0.0,0.0,0.0,0.0,0.0,0.0,0.0,0.0,0.0,0.0,0.0,0.0,0.0,0.0,0.0,0.0,0.0,0.0,0.0,3.4517,3.7692,0.0,0.0,0.0,0.0,3.45,3.7788,4.0869,4.3234,4.5811,4.9007,5.2898,5.4179,5.5644,5.7331,5.7462,5.7832,5.8459,5.8497,5.9075,6.0116,5.9608,5.9659,6.0091,5.9558,5.8981,5.7857,5.1289,4.723,4.4794,4.1371,4.0359,4.0673,3.9447,4.0476,4.2467,0.0,0.0,0.0,0.0,0.0,0.0,0.0,0.0,0.0,0.0,0.0,0.0,0.0,3.5146,3.9189,4.3334,4.424,4.3186,3.9892,0.0,0.0,0.0,0.0,0.0,0.0,0.0,4.6457,5.1648,5.5232,5.7363,5.8095,5.8514,5.8364,5.7663,5.6299,5.4087,5.0975,4.5492,4.1529,3.8802,3.6902,3.452,0.0,0.0,0.0,0.0,0.0,0.0,0.0,0.0,0.0,0.0,0.0,0.0,0.0,0.0,0.0,0.0,0.0,0.0,0.0,0.0,0.0,0.0,0.0,0.0,0.0,0.0,0.0,0.0,0.0,0.0,0.0,0.0,0.0,0.0,0.0,0.0,0.0,4.0601,4.3324,0.0,4.0021,4.0886,4.1959,4.2635,4.523,4.8116,5.1118,5.2839,5.5181,5.8428,5.8924,5.9954,6.1617,6.1266,6.2208,6.45,6.4084,6.4787,6.6408,6.6213,6.5091,6.3311,6.3123,6.1781,5.9514,5.6796,5.375,5.0495,4.7853,4.6712,4.6557,4.6113,4.7132,4.8752,0.0,0.0,0.0,0.0,0.0,0.0,0.0,0.0,0.0,0.0,0.0,3.0593,3.67,4.1923,4.6524,5.0285,5.0559,4.8946,4.5175,0.0,0.0,0.0,0.0,0.0,0.0,4.8768,5.307,5.8319,6.0441,6.1496,6.1483,6.1008,6.0549,6.0057,5.871,5.7526,5.6226,5.1816,4.6923,4.1966,4.0188,3.8139,3.5871,0.0,0.0,0.0,0.0,0.0,0.0,0.0,0.0,0.0,0.0,0.0,0.0,0.0,0.0,0.0,0.0,0.0,0.0,0.0,0.0,0.0,0.0,0.0,0.0,0.0,0.0,0.0,0.0,0.0,0.0,0.0,0.0,0.0,0.0,4.1731,4.5286,4.5462,4.8234,4.8987,4.605,4.7104,4.8494,4.98,5.2285,5.5183,5.8529,5.993,6.1897,6.469,6.501,6.5642,6.6774,6.6383,6.7161,6.9091,6.8661,6.907,7.0124,7.0124,6.8957,6.6926,6.6003,6.4437,6.2385,6.0927,5.8704,5.5993,5.3565,5.231,5.1825,5.1825,5.2528,5.3406,0.0,0.0,0.0,0.0,0.0,0.0,0.0,0.0,0.0,0.0,2.8738,3.4585,4.247,4.7533,5.1699,5.5099,5.2863,5.0544,4.8723,4.0559,0.0,0.0,0.0,0.0,5.0434,5.6458,6.1817,6.6551,6.6434,6.6375,6.6271,6.3528,6.2266,6.2162,6.0773,5.9787,5.9069,5.7752,5.3114,4.654,4.5044,4.3479,4.1703,0.0,0.0,0.0,0.0,0.0,0.0,0.0,0.0,0.0,0.0,0.0,0.0,0.0,0.0,0.0,0.0,0.0,0.0,0.0,0.0,0.0,0.0,0.0,0.0,0.0,0.0,0.0,0.0,0.0,0.0,0.0,0.0,0.0,4.1218,4.6261,4.9606,4.9195,5.2486,5.3542,5.0293,5.299,5.5182,5.5717,5.8845,6.2094,6.5291,6.7078,6.9225,7.1825,7.2533,7.2885,7.2885,7.2857,7.2572,7.1973,7.1973,7.1667,7.1057,7.1057,7.0991,7.0762,6.8131,6.6972,6.6648,6.3529,6.1938,6.1112,5.8316,5.687,5.6385,5.6458,5.644,5.626,0.0,0.0,0.0,0.0,0.0,0.0,0.0,0.0,0.0,0.0,3.29,3.9921,4.5493,5.1964,5.6871,5.9251,5.5735,5.2742,5.1291,0.0,0.0,0.0,0.0,0.0,5.9582,6.2467,6.5947,7.0182,7.0138,6.9845,6.9268,6.6959,6.5584,6.4978,6.2584,6.1164,6.0492,5.9651,5.7573,5.4436,4.9804,4.6382,4.3768,0.0,0.0,0.0,0.0,0.0,0.0,0.0,0.0,0.0,0.0,0.0,0.0,0.0,0.0,0.0,0.0,0.0,0.0,0.0,0.0,0.0,0.0,0.0,0.0,0.0,0.0,0.0,0.0,0.0,0.0,0.0,4.3153,4.7599,4.6279,5.0209,5.4052,5.6287,5.8221,5.9176,5.8654,6.1278,6.3238,6.3775,6.7353,7.0015,7.1225,7.2676,7.3742,7.4393,7.4579,7.469,7.469,7.4199,7.4652,7.6009,7.6009,7.6214,7.6579,7.6579,7.527,7.2939,7.2198,7.0768,6.8894,6.8036,6.7057,6.5846,6.2809,6.1279,6.0941,6.2417,6.1549,5.9315,0.0,0.0,0.0,0.0,0.0,0.0,0.0,0.0,0.0,0.0,3.6391,4.3912,4.9136,5.5475,5.9491,5.979,5.6393,5.3042,5.0331,0.0,0.0,0.0,0.0,5.859,6.6804,6.8918,7.1507,7.476,7.3834,7.3021,7.224,6.9454,6.7917,6.7415,6.5141,6.3767,6.3124,6.275,6.1792,6.0192,5.5957,5.2554,4.9663,4.6443,4.4454,4.3142,4.1202,4.0024,3.9113,3.7327,0.0,0.0,0.0,0.0,0.0,0.0,0.0,0.0,0.0,0.0,0.0,0.0,0.0,0.0,0.0,0.0,0.0,0.0,0.0,0.0,0.0,0.0,0.0,0.0,4.9926,5.5162,5.6359,5.7771,5.9394,6.138,6.3425,6.4947,6.5513,6.8126,7.0025,7.0561,7.2771,7.4669,7.6042,7.7102,7.807,7.886,7.9158,7.9301,7.9301,7.89,7.9186,8.0141,8.0141,8.0135,8.0064,8.0064,7.8684,7.6256,7.5143,7.3591,7.1803,7.068,6.9811,6.8924,0.0,0.0,0.0,0.0,6.3834,6.1888,0.0,0.0,0.0,0.0,0.0,0.0,0.0,0.0,0.0,0.0,0.0,4.6506,5.2258,5.7603,6.0043,5.8264,5.5585,5.2157,0.0,0.0,0.0,5.2097,5.8347,6.5169,7.2535,7.519,7.7486,7.9486,7.7586,7.6265,7.5452,7.1934,7.0166,6.9844,6.8391,6.717,6.6236,6.6432,6.5652,6.4186,6.2466,5.9997,5.6915,5.3162,5.1823,5.1449,4.7986,4.5332,4.3212,4.1265,0.0,0.0,0.0,0.0,0.0,0.0,0.0,0.0,0.0,0.0,0.0,0.0,0.0,0.0,0.0,0.0,0.0,0.0,0.0,0.0,0.0,0.0,0.0,0.0,5.6612,6.2441,6.8466,6.7397,6.5921,6.5681,6.8506,7.0686,7.1246,7.3944,7.5881,7.6351,7.6743,7.7966,8.0271,8.1114,0.0,0.0,0.0,8.5023,8.5023,8.4893,8.4515,8.3927,8.3837,8.3168,8.2009,8.2009,8.1272,7.9876,7.7507,7.6002,7.5081,7.2688,7.161,7.1273,6.9309,6.8353,6.7806,6.5477,6.4627,6.4144,0.0,0.0,0.0,0.0,0.0,0.0,0.0,0.0,0.0,3.1536,3.9806,4.6531,5.0345,5.5513,5.8504,5.8115,5.4718,5.1528,0.0,0.0,5.4213,5.9362,6.6104,7.2018,7.6802,7.9087,8.0756,8.1752,8.135,8.0775,7.9975,7.7542,7.54,7.3529,7.2814,7.066,6.7721,6.9011,6.8344,6.6386,6.6011,6.2989,5.8471,5.6119,5.4587,5.3518,5.2245,5.1426,5.0567,4.8205,4.6529,4.4768,4.081,0.0,0.0,0.0,0.0,0.0,0.0,0.0,0.0,0.0,0.0,0.0,0.0,0.0,0.0,0.0,0.0,0.0,0.0,0.0,0.0,5.9516,6.6364,7.1471,7.3888,7.5636,7.5645,7.298,7.4589,7.5951,7.604,7.9063,8.1054,8.1177,8.3767,8.5335,8.5328,8.6478,8.7055,8.6938,8.7048,8.7137,8.7137,8.606,8.5432,8.5312,8.4773,0.0,8.3348,8.3348,8.263,8.1373,8.0858,7.9649,7.8007,7.7466,7.6605,7.5393,7.285,7.2488,7.2905,6.8777,6.7263,6.6568,0.0,0.0,0.0,0.0,0.0,0.0,0.0,0.0,0.0,0.0,3.8971,4.5105,4.8394,5.1983,5.3628,5.2312,4.9781,0.0,0.0,5.4988,6.0289,6.7598,7.2499,7.6869,8.0715,8.1838,8.2746,8.3511,8.3139,8.2746,8.2348,8.0134,7.8477,7.7292,7.6285,7.4527,7.2404,7.2389,7.1534,7.0114,6.896,6.6924,6.4306,6.1986,6.0266,5.8979,5.8005,5.6971,5.5707,5.3507,5.1716,4.975,4.6127,4.2466,3.8973,0.0,0.0,0.0,0.0,0.0,0.0,0.0,0.0,0.0,0.0,0.0,0.0,0.0,0.0,4.1405,4.6754,0.0,6.0699,6.8228,7.3253,7.7258,8.0218,8.2109,8.1473,7.6918,7.8488,8.0188,8.086,8.3745,8.5597,8.5597,8.7221,8.8035,8.7726,8.8355,8.8564,8.8215,8.8185,8.8185,8.8185,8.7526,8.7197,8.7187,8.6539,8.5851,8.5192,8.4844,8.3816,8.2297,8.2297,8.1351,7.9776,7.9447,7.8501,7.7156,7.5844,7.533,7.4977,7.132,6.9949,6.9406,0.0,0.0,0.0,0.0,0.0,0.0,0.0,0.0,0.0,0.0,3.7298,4.272,4.5633,4.7706,4.7905,0.0,0.0,0.0,0.0,5.9625,6.6418,7.503,7.7967,8.0856,8.4072,8.4167,8.4471,8.5067,8.4471,8.4167,8.4106,8.2284,8.1262,8.0908,7.9816,7.8637,7.7332,7.589,7.4701,7.3587,7.1418,7.0576,7.0336,6.815,6.6281,6.4575,6.3169,6.1224,5.9039,5.7496,5.5534,5.3326,5.0703,4.7485,4.3948,4.0051,3.7295,0.0,0.0,0.0,0.0,0.0,0.0,0.0,0.0,3.4945,3.6037,3.9524,4.5022,5.0776,5.5991,6.2831,6.9811,7.6235,7.9043,8.1801,8.5714,8.6768,8.5418,8.0953,8.2469,8.4303,8.5309,8.7634,8.9052,8.9052,8.9052,8.9052,8.9052,8.9052,8.9052,8.9052,8.9052,8.9052,8.9052,8.8953,8.8893,8.8893,8.8215,8.7616,8.7067,8.6389,8.5152,8.3525,8.3016,8.2099,8.0943,8.0266,7.9279,7.8172,7.8041,7.7203,7.5749,7.3053,7.2007,7.1536,0.0,0.0,0.0,0.0,0.0,0.0,0.0,0.0,0.0,0.0,0.0,0.0,0.0,0.0,0.0,0.0,0.0,5.3284,5.7766,6.5377,7.2746,7.9423,8.2382,8.4682,8.6487,8.6521,8.6555,8.6623,8.6555,8.6521,8.6521,8.6269,8.5354,8.3943,8.4609,8.2917,7.9493,7.8657,7.7048,7.4933,7.3243,7.2578,7.2548,7.2249,7.0231,6.7284,6.5368,6.266,5.9951,5.9741,5.7988,5.5611,5.4133,5.2368,4.9725,4.4085,0.0,3.7737,3.5054,3.4112,3.4449,3.6772,3.6603,3.7301,0.0,4.2989,4.3718,4.9879,5.4277,5.9314,6.6805,7.2438,7.7645,8.2839,8.4859,8.643,8.8125,8.8444,8.8462,8.842,8.8712,8.8955,8.9104,8.9866,9.0388,9.0388,9.0388,9.0388,9.0388,9.0388,9.0388,9.0388,9.0388,9.0388,9.0388,8.9881,8.9602,8.9602,8.8923,8.8564,8.8444,8.7766,8.7018,8.611,8.3824,8.2387,8.165,8.0943,8.0255,7.9519,7.8908,7.7861,7.6388,7.3704,7.2363,7.1536,0.0,0.0,0.0,0.0,0.0,0.0,0.0,0.0,0.0,0.0,0.0,0.0,0.0,0.0,0.0,0.0,4.5474,5.3334,5.9718,6.875,7.6941,8.389,8.5303,8.6453,8.7516,8.713,8.7096,8.755,8.755,8.755,8.755,8.755,8.6927,8.5865,8.6275,8.5504,8.3872,8.2593,8.1481,8.0364,7.7728,7.6443,7.5808,7.3279,7.0516,6.7688,6.5293,6.257,0.0,0.0,5.7616,5.7122,5.6203,5.3902,5.0841,4.7331,4.3261,0.0,3.7634,3.7651,3.858,4.0062,4.1989,4.4383,4.7655,5.0113,5.3154,5.8201,6.4048,6.9806,7.4831,7.961,8.3705,8.6559,8.7516,8.8304,8.9601,8.9172,8.8504,8.7995,8.8624,8.9432,9.016,9.0468,9.0597,9.0597,9.0597,9.0597,9.0597,9.0597,9.0597,9.0597,9.0597,9.0597,9.0597,9.0348,9.0219,9.0219,8.9582,8.9073,8.8684,8.8005,8.7107,8.602,8.4145,8.2739,8.174,8.1063,8.0165,7.9178,7.8908,7.7981,7.6631,7.5159,7.4197,7.3491,0.0,0.0,0.0,0.0,0.0,0.0,0.0,0.0,0.0,0.0,0.0,0.0,0.0,0.0,3.2982,3.3832,4.3167,5.2226,5.9793,6.9894,7.8721,8.5648,8.6758,8.7651,8.8598,8.8294,8.8395,8.8903,8.8903,8.8903,8.8903,8.8903,8.8531,8.7806,8.7617,8.7516,8.7385,8.5282,8.4511,8.4408,8.1141,7.9036,7.7412,7.3128,6.9233,6.5787,6.3468,6.0595,0.0,0.0,5.5059,5.5645,5.5508,5.3794,5.1375,4.9001,4.4526,4.0161,3.9335,4.0526,4.2345,4.3854,4.7336,5.1094,5.3725,5.7512,6.1872,6.6927,7.2717,7.7883,8.1155,8.4763,8.7636,8.8803,8.9112,8.9561,9.0447,8.9331,8.7995,8.6828,8.7067,8.7766,8.8882,8.981,9.0408,9.0597,9.0597,9.0597,9.0597,9.0597,9.0597,9.0597,9.0597,9.0597,9.0597,9.0597,9.0597,9.0597,9.016,8.9612,8.8953,8.8095,8.6868,8.5372,8.4395,8.3247,8.2009,8.1351,8.0375,7.9327,7.9148,7.828,7.7006,7.6377,7.5617,7.4886,0.0,0.0,0.0,0.0,0.0,0.0,0.0,0.0,0.0,0.0,0.0,0.0,0.0,0.0,3.1646,3.2576,4.2138,5.0934,5.7574,6.846,7.7318,8.3321,8.6399,8.8632,9.0106,9.0797,9.1169,9.1203,9.1203,9.1203,9.1203,9.1203,9.0797,9.0073,8.9357,8.9018,8.8833,8.5709,8.4808,8.5202,8.2096,7.9115,7.6116,7.2002,6.6639,6.112,5.9744,0.0,0.0,0.0,5.0032,4.9786,5.1008,5.2193,0.0,4.848,4.372,3.9724,3.9698,4.1656,4.4618,4.8426,5.1917,5.6155,6.2775,6.5595,6.9041,7.6841,7.9563,8.1764,8.5744,8.7666,8.8863,8.9552,9.016,9.0567,9.0597,8.8942,8.7467,8.6768,8.5013,8.4126,8.4814,8.7816,8.9971,9.0567,9.0597,9.0597,9.0597,9.0597,9.0597,9.0597,9.0597,9.0597,9.0597,9.0597,9.0597,9.0597,9.0567,9.0259,8.9612,8.8304,8.6629,8.4724,8.4694,8.3936,8.2717,8.2039,8.1381,8.0674,8.0027,7.895,7.7694,7.7035,7.5976,7.4886,0.0,0.0,0.0,0.0,0.0,0.0,0.0,0.0,0.0,0.0,0.0,0.0,0.0,0.0,0.0,0.0,3.9935,4.813,5.5259,6.5717,7.4131,7.9612,8.4146,8.7008,8.7975,8.8734,8.9357,8.983,9.0797,9.0811,8.9864,9.0831,9.0642,8.9492,8.9715,8.9816,8.9754,8.8697,8.8113,8.7515,8.3355,8.0527,7.809,7.1396,6.4847,5.8595,0.0,0.0,0.0,4.623,4.6072,4.6811,4.7687,4.7455,4.6232,4.2743,4.2395,4.3195,4.3465,4.6878,5.1477,5.6123,6.0127,6.4255,6.953,7.3531,7.6873,7.9479,8.18,8.3527,8.4019,8.4803,8.5761,8.6838,8.7975,8.9122,9.0417,8.9681,8.7786,8.4513,8.4673,8.4066,8.1673,8.4444,8.7197,8.9202,8.9352,8.969,9.0537,9.0597,9.0597,9.0597,9.0597,9.0597,9.0597,9.0597,9.0597,9.0597,8.972,8.8993,8.8334,8.6988,8.6,8.5312,8.4425,8.3307,8.2069,8.1411,8.0464,7.9417,7.8729,7.7933,7.7065,7.6437,7.5647,7.4886,0.0,0.0,0.0,0.0,0.0,0.0,0.0,0.0,0.0,0.0,0.0,0.0,0.0,0.0,0.0,0.0,0.0,4.5082,5.1415,6.0597,6.8142,7.3387,7.7616,8.0682,8.2462,8.2441,8.3321,8.5127,8.6075,8.6616,8.6738,8.7969,8.8003,8.7123,8.8158,8.8767,8.8956,8.8145,8.738,8.6257,8.0984,7.7121,7.3617,6.5888,5.9074,0.0,0.0,0.0,0.0,4.1545,4.198,4.3046,4.3459,4.3272,4.2585,4.1121,4.3062,4.6137,4.8182,5.28,5.8124,6.2757,6.7228,7.1565,7.5668,7.8877,8.1092,8.1331,8.2206,8.248,8.0932,8.0614,8.1224,8.3277,8.4534,8.627,8.9152,8.8215,8.6309,8.3775,8.3547,8.2798,8.0704,8.223,8.4624,8.7756,8.8444,8.9142,9.0199,9.0498,9.0597,9.0597,9.0597,9.0597,9.0597,9.0597,9.0498,9.0259,8.9202,8.8334,8.7676,8.6539,8.5791,8.5282,8.4425,8.3217,8.174,8.1063,8.0165,7.9088,7.843,7.7873,7.7394,7.6527,7.5946,7.5497,0.0,0.0,0.0,0.0,0.0,0.0,0.0,0.0,0.0,0.0,0.0,0.0,0.0,0.0,0.0,0.0,0.0,0.0,4.6246,5.3357,5.9718,6.486,6.7489,7.0455,7.4006,7.2834,7.395,7.7548,7.7582,7.9025,8.1786,8.2543,8.2881,8.2949,8.4451,8.5486,8.6014,8.3862,8.2428,8.1049,7.498,6.9143,6.3322,5.6238,0.0,0.0,0.0,0.0,3.6478,3.7169,3.8104,3.8935,3.8846,4.0079,4.1918,4.3612,4.5791,4.8784,5.3766,5.9287,6.4589,6.8479,7.3207,7.7768,8.1068,8.1716,8.1793,8.2367,8.0794,7.8651,7.6587,7.5347,7.5754,7.907,8.0356,8.2559,8.7197,8.5152,8.3596,8.4664,8.2091,8.0644,8.18,8.1362,8.2619,8.6409,8.7846,8.8893,8.9701,9.0289,9.0597,9.0597,9.0597,9.0597,9.0597,9.0597,9.0259,8.9662,8.9013,8.8334,8.7616,8.6918,8.5881,8.4634,8.4574,8.3457,8.165,8.0973,8.0296,7.9638,7.8938,7.8639,7.8489,7.7185,7.6706,7.6527,0.0,0.0,0.0,0.0,0.0,0.0,0.0,0.0,0.0,0.0,0.0,0.0,0.0,0.0,0.0,0.0,0.0,0.0,4.2341,4.8037,5.2875,5.6461,6.1965,6.5618,6.7117,0.0,0.0,7.1379,7.1932,7.2575,7.3319,7.4086,7.4412,7.4446,7.5405,7.5912,7.6048,7.5473,7.3523,7.0457,0.0,6.2485,5.814,0.0,0.0,0.0,0.0,0.0,3.4936,3.6836,3.9136,4.1131,4.0746,4.2084,4.4194,4.6269,5.1151,5.6809,6.1045,6.7226,7.3416,7.7416,7.9694,8.1639,8.41,8.3142,8.1109,7.88,7.5228,7.1577,6.8553,6.9782,7.2491,7.6275,8.0296,8.4574,8.9191,8.9152,8.7985,8.6379,8.5881,8.5023,8.3378,8.3965,8.5092,8.6589,8.6559,8.7616,9.0229,9.0507,9.0597,9.0597,9.0597,9.0597,9.0597,9.0597,9.0049,8.8953,8.8774,8.8085,8.6918,8.5731,8.4754,8.3897,8.2948,8.1691,8.0255,7.9597,7.8908,7.8202,7.7083,7.6634,7.6544,7.5677,7.5395,7.5335,0.0,0.0,0.0,0.0,0.0,0.0,0.0,0.0,0.0,0.0,0.0,0.0,0.0,0.0,0.0,0.0,0.0,0.0,0.0,4.2929,4.6264,4.8935,5.2655,5.5336,5.6774,5.7679,0.0,0.0,0.0,0.0,6.3372,6.4096,6.4637,6.5009,6.6373,6.7184,6.7468,6.6461,0.0,0.0,0.0,0.0,0.0,0.0,0.0,0.0,0.0,0.0,3.681,3.9339,4.131,4.2844,4.36,4.5711,4.8717,5.2937,5.7991,6.3382,6.857,7.4468,7.9734,8.2265,8.3619,8.4117,8.3297,8.1302,7.8011,7.2339,6.8704,6.5428,6.1792,6.4096,6.8032,7.2518,7.7694,8.3049,8.8553,8.8823,8.8224,8.7666,8.7397,8.6778,8.5562,8.5881,8.6648,8.7906,8.7397,8.7945,9.01,9.0468,9.0597,9.0597,9.0597,9.0597,9.0597,9.0348,8.9711,8.8714,8.8394,8.7706,8.6648,8.5611,8.4754,8.4066,8.2769,8.1471,8.0177,7.9537,7.8849,7.816,7.7442,7.6993,7.6664,7.5976,7.5557,7.5305,0.0,0.0,0.0,0.0,0.0,0.0,0.0,0.0,0.0,0.0,0.0,0.0,0.0,0.0,0.0,0.0,0.0,0.0,0.0,0.0,0.0,0.0,4.2848,4.3937,4.6015,4.5534,4.6515,4.906,4.9161,0.0,0.0,0.0,0.0,0.0,0.0,0.0,0.0,0.0,0.0,0.0,0.0,0.0,0.0,0.0,0.0,0.0,0.0,0.0,3.9354,4.2709,4.43,4.5299,4.8024,5.112,5.5105,6.1804,6.5875,6.9571,7.5926,8.0912,8.4458,8.4947,8.576,8.5212,8.0596,7.7365,7.3057,6.4904,6.1852,5.9621,5.6162,5.8903,6.3558,6.9227,7.4522,8.0315,8.7137,8.7018,8.6898,8.8744,8.7995,8.7576,8.8155,8.7766,8.8175,8.9821,8.9402,8.9312,8.9791,9.0319,9.0597,9.0597,9.0597,9.0597,9.0597,9.007,8.9432,8.8684,8.8095,8.7437,8.6678,8.591,8.5192,8.4485,8.3117,8.183,8.0614,7.9848,7.9189,7.8639,7.8579,7.819,7.7604,7.7006,7.6467,7.5981,0.0,0.0,0.0,0.0,0.0,0.0,0.0,0.0,0.0,0.0,1.8628,1.9617,0.0,0.0,0.0,0.0,0.0,0.0,0.0,0.0,0.0,0.0,4.0026,4.1143,4.2151,4.2631,4.3139,4.3646,4.4275,4.5162,0.0,0.0,0.0,0.0,0.0,0.0,0.0,0.0,0.0,0.0,0.0,0.0,0.0,0.0,0.0,0.0,0.0,3.4036,3.6366,0.0,4.7894,5.209,5.6706,6.0163,6.379,7.0159,7.4396,7.7898,8.201,8.5808,8.8642,8.874,8.6898,8.3846,7.9189,7.2817,6.6206,6.0342,5.5914,5.2893,5.2205,5.6213,6.2241,7.0247,7.5527,8.1302,8.9032,8.9471,8.9312,9.0169,9.0558,9.0818,9.0917,9.1327,9.1476,9.1297,9.1156,9.0917,9.0468,9.0537,9.0597,9.0597,9.0597,9.0597,9.0597,9.0498,8.986,8.8714,8.8574,8.7906,8.6648,8.5432,8.4515,8.3748,8.1931,8.0704,7.9878,7.8651,7.81,7.7921,7.7365,7.7095,7.6976,7.6856,7.6719,7.6844,0.0,0.0,0.0,0.0,0.0,0.0,0.0,1.7205,1.8777,2.246,2.29,2.3281,2.4367,2.5465,0.0,0.0,0.0,0.0,0.0,0.0,0.0,0.0,0.0,0.0,3.8282,3.9783,4.0398,4.002,0.0,4.1305,4.169,4.2049,4.2394,4.2753,4.2694,4.2475,4.206,0.0,0.0,3.8136,3.7232,3.5705,0.0,0.0,0.0,0.0,0.0,3.4347,3.7607,4.2877,4.9533,5.653,6.1786,6.6177,7.0458,7.6308,7.9398,8.1844,8.6071,8.8653,9.01,8.9761,8.617,8.1093,7.5061,6.7851,6.0625,5.4311,5.0679,4.8663,4.8663,5.3252,5.9189,6.5757,7.0396,7.6425,8.5692,8.5881,8.6449,9.0148,9.0866,9.1096,9.1096,9.1366,9.1425,9.1096,9.1096,9.0947,9.0627,9.0597,9.0597,9.0597,9.0597,9.0468,9.013,8.9801,8.9142,8.8185,8.7846,8.7127,8.617,8.5162,8.4335,8.3598,8.1643,8.0614,8.0225,7.8878,7.831,7.828,7.7981,7.7634,7.7335,7.7335,7.7667,7.8284,0.0,0.0,0.0,0.0,0.0,0.0,0.0,1.9224,2.1209,2.6772,2.8303,2.8392,2.7046,2.6984,2.7717,0.0,0.0,0.0,0.0,0.0,0.0,0.0,0.0,0.0,0.0,0.0,0.0,3.7646,3.8571,0.0,0.0,0.0,0.0,0.0,3.8917,3.8731,3.8318,3.7098,3.6384,0.0,0.0,3.3756,0.0,0.0,0.0,0.0,0.0,3.431,3.7984,4.2424,4.9475,5.7374,6.3225,6.9294,7.5213,8.0352,8.2801,8.4734,8.8813,9.0339,9.0528,8.9342,8.4583,7.819,7.0573,6.3124,5.5897,4.9056,4.658,4.5811,4.642,5.0679,5.5927,6.1417,6.5278,7.1248,8.1822,8.2211,8.3647,8.969,9.0648,9.0806,9.0806,9.0926,9.0956,9.0806,9.0687,9.0597,9.0597,9.0597,9.0537,9.0408,9.0408,9.01,8.9492,8.8953,8.8364,8.7706,8.7187,8.6559,8.59,8.5073,8.4335,8.3598,8.1643,8.0734,8.0494,7.9297,7.8807,7.8807,7.8807,7.846,7.8046,7.8425,7.9101,7.9919,0.0,0.0,0.0,0.0,0.0,0.0,0.0,2.1391,2.5514,3.1262,3.3231,3.3668,3.2489,3.2057,3.1143,0.0,0.0,0.0,0.0,0.0,0.0,0.0,0.0,0.0,0.0,0.0,0.0,3.6891,3.8307,0.0,0.0,0.0,0.0,0.0,0.0,3.8115,3.6805,3.6661,0.0,0.0,0.0,0.0,0.0,0.0,0.0,0.0,0.0,3.1748,3.3319,4.1378,4.7052,5.1984,5.922,6.8266,7.7059,8.1426,8.5286,8.847,9.0098,9.1007,9.0767,8.7726,8.2469,7.5869,6.7387,5.9368,5.2199,4.6691,4.4506,4.4326,4.676,4.9112,5.3359,6.1657,6.4784,6.9871,8.0483,8.2828,8.5023,8.9282,9.0818,9.1515,9.1515,9.2054,9.2165,9.1545,9.0926,9.0597,9.0597,9.0597,9.0348,8.9791,8.9761,8.9462,8.8803,8.8744,8.8364,8.7706,8.7646,8.7257,8.6559,8.5282,8.4335,8.3598,8.1643,8.0464,7.9848,7.9088,7.8807,7.8807,7.8807,7.8759,7.8885,8.0504,8.1134,8.1651,0.0,0.0,0.0,0.0,0.0,0.0,2.1226,2.2966,2.6593,3.4769,3.6367,3.67,3.6593,3.557,3.3211,2.8981,0.0,0.0,0.0,0.0,0.0,0.0,0.0,0.0,0.0,0.0,3.7455,3.7455,3.8949,0.0,0.0,0.0,0.0,0.0,0.0,3.7157,3.653,3.5471,0.0,0.0,0.0,0.0,0.0,0.0,0.0,0.0,0.0,0.0,3.3136,3.7876,4.2751,4.7553,5.1519,5.915,6.8291,7.6734,8.2039,8.587,8.9142,9.0818,9.0917,8.8005,8.1631,7.4001,6.6176,5.7377,4.9666,4.5544,4.3349,4.297,4.5603,4.7059,4.989,5.6119,5.7124,6.0641,7.0859,7.2368,7.554,8.3955,8.606,8.7955,9.0737,9.1246,9.1306,9.1036,9.0746,9.0438,9.007,9.007,8.9971,8.9722,8.9312,8.8774,8.8095,8.8095,8.7766,8.7097,8.7097,8.6559,8.5492,8.4953,8.4145,8.3068,8.1482,8.0644,8.0315,7.9238,7.8807,7.8807,7.8807,7.9445,8.0457,8.1121,8.2708,8.4678,0.0,0.0,0.0,0.0,0.0,1.6388,2.2622,2.4557,2.8254,3.643,3.8297,3.8955,3.9221,3.7058,3.3996,3.0084,2.9955,0.0,0.0,0.0,0.0,0.0,0.0,0.0,0.0,0.0,3.7781,3.7553,3.9015,3.9328,0.0,0.0,3.8175,3.7396,0.0,0.0,0.0,0.0,0.0,0.0,0.0,0.0,0.0,0.0,0.0,0.0,0.0,0.0,0.0,0.0,0.0,4.3031,4.5363,5.096,5.8903,7.0484,7.7711,8.2877,8.7307,9.001,9.0767,8.7357,8.0494,7.2551,6.4635,5.5671,4.7989,4.4477,4.2501,4.2082,4.4317,4.5414,4.7388,5.1618,5.2175,5.5346,6.468,6.6116,6.9706,7.9178,8.1284,8.3688,8.8114,8.9789,9.0597,9.0597,9.0597,9.0348,8.9731,8.9492,8.9312,8.9103,8.8654,8.7975,8.7107,8.7107,8.6778,8.611,8.611,8.5611,8.4694,8.4325,8.3536,8.2447,8.1093,8.0405,8.0135,7.9178,7.8807,7.8861,7.9356,8.0318,8.1531,8.2543,8.4441,8.6588,0.0,0.0,0.0,0.0,0.0,0.0,2.101,2.6299,3.1376,3.575,3.8991,4.0654,4.0136,3.6107,3.3407,3.334,3.135,0.0,0.0,0.0,0.0,0.0,0.0,0.0,0.0,0.0,0.0,3.6722,3.8203,3.8532,3.7822,3.7822,3.7366,3.6569,0.0,0.0,0.0,0.0,0.0,0.0,0.0,0.0,0.0,0.0,0.0,0.0,0.0,0.0,0.0,0.0,0.0,0.0,0.0,4.5683,5.0882,6.3422,7.3163,8.0685,8.4654,8.8604,9.0348,8.5053,7.8771,7.1487,6.2255,5.3994,4.7181,4.3239,4.1892,4.1783,4.309,4.4426,4.6381,4.9699,5.2432,5.6931,6.4889,6.7717,7.0903,7.621,7.7454,7.9429,8.3408,8.7905,9.0597,9.0597,9.0597,9.0348,8.9731,8.9073,8.8394,8.7736,8.7706,8.7077,8.5731,8.5731,8.5372,8.4724,8.4724,8.4694,8.4664,8.3386,8.2447,8.174,8.0405,7.9429,7.8819,7.8807,7.8807,7.8957,8.0687,8.1377,8.1804,8.5194,8.645,8.6753,0.0,0.0,0.0,0.0,0.0,0.0,0.0,2.3895,2.7464,3.2866,3.4421,3.5741,3.7628,3.4308,3.2307,3.3311,3.0398,0.0,0.0,0.0,0.0,0.0,0.0,0.0,0.0,0.0,0.0,0.0,0.0,0.0,3.9021,3.856,3.734,3.5469,3.4714,3.387,0.0,0.0,0.0,0.0,0.0,0.0,2.7004,0.0,0.0,0.0,0.0,0.0,0.0,0.0,0.0,0.0,0.0,0.0,0.0,5.2139,6.2211,7.1727,7.4749,7.816,7.9597,7.43,6.9034,6.3318,5.6286,5.0313,4.5374,4.2331,4.1553,4.1783,4.307,4.4027,4.6431,5.2025,5.3264,5.5671,6.1778,6.5922,7.0097,7.4929,8.2032,8.7038,8.8294,8.973,9.0597,9.0597,9.0597,9.0139,8.9073,8.8833,8.8394,8.7736,8.7257,8.6569,8.5701,8.5701,8.5372,8.4694,8.4694,8.4455,8.4006,8.3177,8.2428,8.174,8.0386,7.9668,7.9538,8.0268,8.0596,8.0739,8.2508,8.3867,8.5023,8.6103,8.7246,8.8367,0.0,0.0,0.0,0.0,0.0,0.0,0.0,2.2863,2.5665,2.9748,3.0715,3.2029,3.4594,3.1651,3.0258,3.214,2.9304,0.0,0.0,0.0,0.0,0.0,0.0,0.0,0.0,0.0,0.0,0.0,0.0,0.0,0.0,0.0,3.7937,3.5335,3.4091,3.3008,0.0,0.0,0.0,0.0,0.0,0.0,2.5838,0.0,0.0,0.0,0.0,0.0,0.0,0.0,0.0,0.0,0.0,0.0,0.0,0.0,5.2097,6.0535,6.664,7.0739,7.2325,6.8271,6.3588,5.8487,5.2743,4.7698,4.3529,4.1154,4.0636,4.1055,4.2332,4.3319,4.5523,5.041,5.1696,5.3922,5.9235,6.4156,6.9409,7.5305,8.3109,8.8084,8.8344,8.973,9.0597,9.0597,9.0378,8.9801,8.8774,8.8454,8.7885,8.6958,8.6798,8.6259,8.5342,8.5312,8.4863,8.3965,8.3965,8.3636,8.2959,8.2338,8.168,8.0973,7.9896,7.9399,0.0,8.0836,8.1394,8.1649,8.4011,8.5583,8.6588,8.7231,8.8176,8.9086,0.0,0.0,0.0,0.0,0.0,0.0,0.0,2.2825,2.5472,2.647,2.7775,2.923,3.0914,2.836,2.749,2.99,0.0,0.0,0.0,0.0,0.0,0.0,0.0,0.0,0.0,0.0,0.0,0.0,4.0631,4.1611,4.152,0.0,0.0,0.0,3.3777,3.2167,0.0,0.0,0.0,0.0,0.0,0.0,0.0,0.0,0.0,0.0,0.0,0.0,0.0,0.0,0.0,0.0,0.0,0.0,0.0,0.0,0.0,0.0,0.0,6.4904,6.7029,6.4919,6.0671,5.5662,5.0596,4.5663,0.0,3.967,3.9331,3.9849,4.1274,4.2482,4.4017,4.648,4.8861,5.227,5.7576,6.3184,6.9646,7.7442,8.1822,8.4395,8.4874,8.8374,9.0567,9.0537,9.001,8.9372,8.8684,8.7975,8.7048,8.5731,8.6259,8.596,8.4634,8.4634,8.3995,8.2806,8.2747,8.2417,8.177,8.1063,8.0405,7.9758,7.9088,7.8879,7.9118,8.0877,8.1666,8.209,8.538,8.6678,8.6872,8.8495,8.9086,8.9086,0.0,0.0,0.0,0.0,0.0,0.0,0.0,0.0,0.0,0.0,2.421,2.4737,2.5139,2.4934,2.5176,0.0,0.0,0.0,0.0,0.0,0.0,0.0,0.0,0.0,0.0,0.0,0.0,3.9257,4.1234,4.2436,4.2836,4.2239,0.0,0.0,0.0,0.0,0.0,0.0,0.0,0.0,0.0,0.0,0.0,0.0,0.0,0.0,2.5547,2.7776,0.0,0.0,0.0,0.0,0.0,0.0,0.0,0.0,3.961,4.1844,4.5674,0.0,5.2438,4.9475,4.738,4.5345,0.0,0.0,0.0,0.0,0.0,4.0109,4.2442,4.2731,4.4746,5.1277,5.2426,5.4341,5.9654,6.8419,7.6647,8.3068,8.6878,8.8464,8.7137,8.9182,9.0408,8.9971,8.9761,8.9193,8.8005,8.7307,8.6559,8.5731,8.5372,8.4754,8.3946,8.3946,8.3547,8.2806,8.2297,8.1949,8.177,8.0584,7.9937,7.9758,7.9088,7.9569,8.0929,8.2659,8.4139,8.5504,8.7631,8.8495,8.8538,8.8959,8.9086,8.9086,0.0,0.0,0.0,0.0,0.0,0.0,0.0,0.0,0.0,0.0,0.0,0.0,0.0,0.0,0.0,0.0,0.0,0.0,0.0,0.0,0.0,0.0,0.0,0.0,0.0,0.0,0.0,0.0,0.0,4.3179,0.0,0.0,0.0,0.0,0.0,0.0,0.0,0.0,0.0,0.0,2.3354,0.0,0.0,0.0,0.0,0.0,2.515,2.7392,0.0,3.3723,3.5318,3.6137,0.0,0.0,0.0,0.0,3.7246,3.8242,3.8939,4.2741,4.6112,4.4656,4.3319,4.2041,0.0,0.0,0.0,0.0,0.0,3.9302,4.1943,4.2421,4.4497,5.0912,5.2408,5.5748,6.4381,7.2069,7.913,8.5402,8.8005,8.9212,8.9062,8.972,9.004,8.9722,8.8854,8.8145,8.7736,8.618,8.5162,8.4784,8.4175,8.3786,8.3688,8.3688,8.3228,8.2357,8.1979,8.1471,8.0853,8.0117,7.9638,7.9364,7.9809,8.0544,8.1599,8.4107,8.569,8.6678,8.8424,8.9086,8.9086,8.9086,8.9086,8.9052,0.0,0.0,0.0,0.0,0.0,0.0,0.0,0.0,0.0,0.0,0.0,0.0,0.0,0.0,0.0,0.0,0.0,0.0,0.0,0.0,0.0,0.0,0.0,0.0,0.0,0.0,0.0,0.0,0.0,0.0,0.0,0.0,0.0,0.0,0.0,0.0,0.0,0.0,0.0,0.0,2.3023,0.0,0.0,0.0,0.0,0.0,0.0,0.0,0.0,3.5086,3.6997,3.7361,3.9114,0.0,0.0,0.0,0.0,0.0,3.6964,4.0546,4.4127,4.3988,4.293,0.0,0.0,0.0,0.0,0.0,0.0,3.8751,4.1603,4.285,4.4986,4.9587,5.2498,5.8291,7.0141,7.5031,7.9668,8.581,8.7407,8.8544,8.987,8.9711,8.9462,8.9273,8.7666,8.6858,8.7227,8.4904,8.3557,8.3557,8.2877,8.2758,8.3258,8.3378,8.2828,8.165,8.153,8.0883,7.9788,7.9698,7.9357,7.8897,8.0635,8.1548,8.204,8.5194,8.6663,8.7054,8.8524,8.9086,8.9086,8.8984,8.8917,8.8815,0.0,0.0,0.0,0.0,0.0,0.0,0.0,0.0,0.0,0.0,0.0,0.0,0.0,0.0,0.0,0.0,0.0,0.0,0.0,0.0,0.0,0.0,0.0,0.0,0.0,0.0,0.0,0.0,0.0,0.0,4.5115,4.5791,4.1866,0.0,0.0,0.0,0.0,0.0,0.0,0.0,2.2732,0.0,0.0,0.0,0.0,0.0,0.0,0.0,0.0,3.3799,3.5805,3.7215,3.6486,0.0,0.0,0.0,0.0,0.0,3.905,4.1575,4.2562,3.8781,3.8871,0.0,0.0,0.0,0.0,0.0,3.908,4.1076,4.4835,4.7021,4.9767,5.4396,5.9578,6.6041,7.4672,7.8352,8.1601,8.5402,8.7965,8.8833,8.7427,8.8235,8.8384,8.7247,8.6858,8.6259,8.5203,8.3745,8.2937,8.2937,8.177,8.1153,8.1242,8.1811,8.1691,8.0943,8.0375,7.9997,7.9788,7.9208,7.8878,7.8897,8.0635,8.2241,8.3754,8.5706,8.7382,8.8728,8.9002,8.9086,8.9018,8.8409,8.8158,8.8057,0.0,0.0,0.0,0.0,0.0,0.0,0.0,0.0,0.0,0.0,0.0,0.0,0.0,0.0,0.0,0.0,0.0,0.0,0.0,0.0,0.0,0.0,0.0,0.0,0.0,0.0,0.0,0.0,0.0,4.6661,4.7047,4.3926,3.9091,3.2814,0.0,0.0,0.0,0.0,0.0,0.0,0.0,0.0,0.0,0.0,0.0,0.0,0.0,0.0,0.0,0.0,3.6217,3.8323,3.7375,0.0,0.0,0.0,0.0,0.0,3.7255,3.9161,4.0328,3.896,0.0,0.0,0.0,0.0,0.0,0.0,4.1824,4.3708,4.7665,5.0361,5.4174,6.0938,6.64,7.1441,7.6138,7.91,8.202,8.5312,8.6798,8.7726,8.8265,8.7906,8.7367,8.6738,8.5671,8.4814,8.4186,8.2619,8.171,8.171,8.0764,8.0105,7.9716,8.0375,8.0554,8.0255,7.9937,7.9608,7.9238,7.8938,7.9104,7.9746,8.1884,8.3546,8.4906,8.7021,8.8146,8.8511,8.8511,8.8274,8.7854,8.7516,8.7144,8.6751,0.0,0.0,0.0,0.0,0.0,0.0,0.0,0.0,0.0,0.0,0.0,0.0,0.0,0.0,0.0,0.0,0.0,0.0,0.0,0.0,0.0,0.0,0.0,0.0,0.0,0.0,0.0,4.4618,4.7015,4.837,4.8602,4.2252,3.6737,0.0,0.0,0.0,0.0,0.0,0.0,0.0,0.0,0.0,0.0,0.0,0.0,0.0,0.0,0.0,0.0,0.0,0.0,0.0,0.0,0.0,0.0,3.589,3.4947,3.4986,3.6026,3.7586,3.9239,4.0717,0.0,0.0,0.0,0.0,0.0,0.0,0.0,4.7587,5.0787,5.4448,5.9428,6.6924,7.2042,7.5796,7.7921,8.0375,8.3008,8.5821,8.603,8.6738,8.8824,8.7307,8.611,8.581,8.4354,8.3348,8.3049,8.1463,8.0584,8.0584,7.9907,7.9219,7.8579,7.9088,7.9399,7.9548,7.9548,7.9297,7.8807,7.9225,7.9725,8.0453,8.3163,8.4737,8.5581,8.7709,8.8342,8.7989,8.782,8.7279,8.6623,8.6623,8.6163,8.552,0.0,0.0,0.0,0.0,0.0,0.0,0.0,0.0,0.0,0.0,0.0,0.0,0.0,0.0,0.0,0.0,0.0,0.0,0.0,0.0,0.0,0.0,0.0,0.0,0.0,4.1892,4.404,4.695,4.8505,4.8854,4.7881,4.277,3.7456,3.2052,0.0,0.0,0.0,0.0,0.0,0.0,0.0,0.0,0.0,0.0,0.0,0.0,0.0,0.0,0.0,0.0,0.0,0.0,0.0,0.0,3.7084,3.4787,3.4714,3.5914,3.8127,3.9495,4.0717,4.2622,0.0,0.0,0.0,0.0,0.0,5.078,0.0,5.376,5.467,6.0505,6.655,7.0845,7.5425,7.9375,8.1998,8.4074,8.591,8.7377,8.7008,8.6708,8.6888,8.5671,8.4354,8.3166,8.2956,8.2309,8.1063,8.0266,7.9878,7.9878,7.9238,7.8549,7.7891,7.7921,7.825,7.8867,7.8867,7.8867,7.8861,8.0492,8.087,8.049,8.3833,8.5343,8.5482,8.6606,8.7448,8.7922,8.7231,8.6535,8.5872,8.5872,8.5384,8.4695,0.0,0.0,0.0,0.0,0.0,0.0,0.0,0.0,0.0,0.0,0.0,0.0,0.0,0.0,0.0,0.0,0.0,0.0,0.0,0.0,0.0,0.0,0.0,3.7861,4.0085,4.6349,5.052,5.2476,5.153,4.9222,4.5548,4.0702,0.0,0.0,0.0,0.0,0.0,0.0,0.0,0.0,0.0,0.0,0.0,0.0,0.0,0.0,0.0,0.0,0.0,0.0,3.4567,3.6896,3.5818,3.6648,3.7703,3.6052,3.5236,3.5253,3.6987,3.8897,4.0965,4.3339,0.0,0.0,0.0,0.0,0.0,5.7543,5.9398,0.0,6.2241,6.5772,6.9736,7.3732,7.7562,8.0823,8.3068,8.4354,8.5432,8.6359,8.5851,8.5611,8.605,8.4523,8.3326,8.2836,8.2009,8.1153,8.0207,7.9937,7.9429,7.8591,7.831,7.835,7.8733,7.8719,7.8872,7.9099,7.8062,7.7544,7.7615,7.9339,8.0269,8.0697,8.3491,8.508,8.572,8.6558,8.6805,8.6548,8.5777,8.5303,8.5033,8.5033,8.4864,8.4614,0.0,0.0,0.0,0.0,0.0,0.0,0.0,0.0,0.0,0.0,0.0,0.0,0.0,0.0,0.0,0.0,0.0,0.0,0.0,0.0,0.0,0.0,0.0,3.8392,4.1191,4.9972,5.4348,5.4044,5.2373,4.8835,4.3469,0.0,0.0,0.0,0.0,0.0,0.0,0.0,0.0,0.0,0.0,0.0,0.0,0.0,0.0,0.0,0.0,0.0,0.0,0.0,3.396,3.6195,3.552,3.6255,3.7086,3.5882,3.5195,3.4962,3.5548,3.7547,4.0098,0.0,0.0,0.0,0.0,0.0,0.0,6.3378,6.4635,6.5503,6.7298,6.9064,7.1381,7.4988,7.8699,8.1721,8.3448,8.4275,8.4874,8.5342,8.4624,8.4265,8.4733,8.3206,8.2069,8.186,8.0794,7.9896,7.9189,7.898,7.8442,7.7514,7.7484,7.7971,7.8973,7.8471,7.8632,7.9451,7.7761,7.7167,7.7677,7.988,8.1092,8.1606,8.3826,8.5144,8.5838,8.6048,8.5878,8.5351,8.483,8.4614,8.4614,8.4614,8.4614,8.4614,0.0,0.0,0.0,0.0,0.0,0.0,0.0,0.0,0.0,0.0,0.0,0.0,0.0,0.0,0.0,0.0,0.0,0.0,0.0,0.0,0.0,0.0,0.0,3.798,4.4629,5.2163,5.4215,5.0451,5.0396,4.7471,4.1846,3.731,0.0,0.0,0.0,0.0,0.0,0.0,0.0,0.0,0.0,2.4114,2.5611,0.0,0.0,0.0,0.0,0.0,0.0,0.0,3.28,3.4114,3.4686,3.4977,3.4834,3.3732,3.443,3.5323,3.4308,3.5712,3.8093,4.0804,0.0,0.0,5.9325,6.115,6.2675,6.7986,6.7986,6.7448,6.8794,7.0081,7.1787,7.4467,7.8777,8.22,8.3478,8.4245,8.4664,8.4664,8.3566,8.2776,8.2776,8.156,8.0524,7.9848,7.9178,7.8489,7.7831,7.7155,7.6779,7.6779,7.6796,7.7292,7.8294,7.6742,7.7238,7.9773,7.8139,7.8019,7.9402,8.2763,8.3885,8.3285,8.5048,8.577,8.5736,8.4931,8.4614,8.4614,8.4614,8.4614,8.4614,8.4614,8.4614,8.4614,0.0,0.0,0.0,0.0,0.0,0.0,0.0,0.0,0.0,0.0,0.0,0.0,0.0,0.0,0.0,0.0,0.0,0.0,0.0,0.0,0.0,0.0,0.0,0.0,0.0,0.0,4.7533,5.4898,4.9934,4.4311,0.0,0.0,0.0,2.739,0.0,0.0,0.0,0.0,0.0,0.0,2.3298,2.4353,2.6194,0.0,0.0,0.0,0.0,0.0,0.0,0.0,0.0,0.0,3.3812,3.5993,3.7976,3.5249,3.6245,3.7874,3.6225,3.8266,4.1673,4.4766,5.09,5.7543,0.0,6.456,0.0,0.0,7.2698,7.1262,7.165,7.2445,7.3402,7.4676,7.7981,8.0704,8.1523,8.223,8.2469,8.202,8.1601,8.1411,8.1411,8.0184,7.9297,7.9118,7.8041,7.7305,7.7125,7.6898,7.6617,7.6168,7.724,7.836,7.9351,7.8864,7.9037,7.9803,8.0436,8.0375,7.9714,8.1843,8.2696,8.2584,8.4228,8.4965,8.4931,8.4681,8.4614,8.4614,8.4614,8.4614,8.4614,8.4614,8.4614,8.4614,0.0,0.0,0.0,0.0,0.0,0.0,0.0,0.0,0.0,0.0,0.0,0.0,0.0,0.0,0.0,0.0,0.0,0.0,0.0,0.0,0.0,0.0,0.0,0.0,0.0,3.8732,4.345,0.0,0.0,0.0,0.0,0.0,0.0,2.7943,0.0,2.7689,0.0,0.0,0.0,2.5072,2.4627,2.5658,2.7445,0.0,0.0,0.0,0.0,0.0,0.0,0.0,0.0,0.0,3.3239,3.5087,3.6873,3.5922,3.669,3.7875,3.8003,4.0385,4.3828,4.8177,5.4401,6.1014,6.6834,6.9377,7.1876,7.6617,7.551,7.3851,7.4373,7.436,7.4676,7.5874,7.816,8.0027,8.0704,8.1153,8.1242,8.0853,8.0554,8.0315,8.0016,7.9028,7.828,7.8041,7.7035,7.6437,7.6437,7.6168,7.6185,7.6466,7.7397,7.853,7.9773,7.9803,8.0122,8.0766,8.1737,8.2026,8.1734,8.2699,8.3138,8.3227,8.417,8.4614,8.4614,8.4614,8.4614,8.4614,8.4614,8.4614,8.4614,8.4614,8.4614,8.4614,0.0,0.0,0.0,0.0,0.0,0.0,0.0,0.0,0.0,0.0,0.0,0.0,0.0,0.0,0.0,0.0,0.0,0.0,0.0,0.0,0.0,0.0,0.0,0.0,0.0,0.0,0.0,0.0,0.0,0.0,0.0,0.0,3.3391,3.0468,0.0,3.0846,0.0,2.7282,2.694,2.7009,2.6639,2.7417,2.8876,2.9427,0.0,0.0,0.0,0.0,0.0,0.0,0.0,0.0,3.2697,3.3047,3.3436,3.5735,3.6219,3.6716,3.9738,4.2172,4.5315,5.1409,5.7077,6.3303,7.1411,7.4672,7.6514,7.834,7.6861,7.5604,7.6706,7.6006,7.5814,7.7532,7.892,8.0016,8.0554,8.0614,8.0614,8.0524,7.9937,7.9279,7.8669,7.8011,7.7365,7.6766,7.6138,7.5826,7.5826,7.5245,7.5597,7.7132,7.7259,7.8092,7.9677,7.9754,8.0525,8.1968,8.2112,8.297,8.4392,8.4526,8.4614,8.4614,8.4614,8.4614,8.4614,8.4614,8.4614,8.4614,8.4614,8.4614,8.4614,8.4614,8.4614,8.4614,0.0,0.0,0.0,0.0,0.0,0.0,0.0,0.0,0.0,0.0,0.0,0.0,0.0,0.0,0.0,0.0,0.0,0.0,0.0,0.0,0.0,0.0,0.0,0.0,0.0,0.0,0.0,0.0,0.0,0.0,0.0,0.0,0.0,3.1961,0.0,3.1648,2.8493,2.6569,2.6089,2.6616,2.6538,2.7204,2.8294,2.8423,2.8879,0.0,0.0,0.0,0.0,0.0,0.0,0.0,3.096,3.3289,3.5429,3.389,3.6608,4.0415,4.1622,4.4547,4.9056,5.6539,6.3931,7.05,7.4941,7.6317,7.6886,7.7831,7.7981,7.7861,7.7634,7.7801,7.7939,7.7831,7.9064,7.9849,7.9316,7.9238,7.9028,7.8519,7.7843,7.7394,7.7245,7.6676,7.6228,7.6108,7.5497,7.5125,7.5125,7.4976,7.5382,7.6402,7.701,7.7809,7.8864,7.95,7.997,8.0318,8.1607,8.2387,8.2741,8.4035,8.4614,8.4614,8.4614,8.4614,8.4614,8.4614,8.4614,8.4614,8.4614,8.4614,8.4614,8.4614,8.4614,8.4614,0.0,0.0,0.0,0.0,0.0,0.0,0.0,0.0,0.0,0.0,0.0,0.0,0.0,0.0,0.0,0.0,0.0,0.0,0.0,0.0,0.0,0.0,0.0,0.0,0.0,0.0,0.0,0.0,0.0,0.0,0.0,0.0,0.0,3.4061,0.0,3.2391,2.9934,2.8195,2.7845,2.8438,2.8173,2.8887,3.0014,2.978,2.9742,2.9856,3.0343,0.0,0.0,0.0,0.0,0.0,0.0,0.0,3.3964,3.3597,3.6254,3.9928,4.2807,4.7045,5.2917,6.2421,6.8854,7.3462,7.5839,7.6377,7.6557,7.7185,7.81,7.8579,7.7921,7.81,7.81,7.7424,7.7999,7.8376,7.7921,7.8022,7.795,7.7382,7.6845,7.6452,7.6377,7.6078,7.5766,7.5455,7.5095,7.4886,7.4886,7.5628,7.6128,7.6249,7.7402,7.7715,7.7036,7.9312,8.0085,7.9352,8.2047,8.3151,8.2845,8.4076,8.4614,8.4614,8.4614,8.4614,8.4614,8.4614,8.4377,8.412,8.4444,8.439,8.412,8.4478,8.4614,8.4486,0.0,0.0,0.0,0.0,0.0,0.0,0.0,0.0,0.0,0.0,0.0,0.0,0.0,0.0,0.0,0.0,0.0,0.0,0.0,0.0,0.0,0.0,0.0,0.0,0.0,0.0,0.0,0.0,0.0,0.0,0.0,0.0,0.0,3.5837,0.0,0.0,3.134,2.9995,2.9835,3.0417,2.9983,3.06,3.1727,3.1286,0.0,0.0,2.9814,2.9814,2.9814,2.9814,0.0,0.0,0.0,0.0,3.1566,3.3465,3.5432,3.8042,4.2905,4.9285,5.7077,6.7492,7.1996,7.424,7.5587,7.5916,7.6048,7.6676,7.7664,7.828,7.7741,7.7634,7.7454,7.6886,7.6731,7.6731,7.6779,7.6944,7.6949,7.6724,7.6255,7.5909,7.5749,7.5736,7.5497,7.4946,7.4886,7.4963,7.5102,7.6398,7.686,7.6353,7.7519,7.7327,7.5512,7.8896,8.0069,7.9062,8.2541,8.3917,8.3321,8.395,8.4289,8.4424,8.4546,8.4614,8.4614,8.4614,8.4153,8.3558,8.4323,8.4153,8.3565,8.4008,8.4184,8.3981,0.0,0.0,0.0,0.0,0.0,0.0,0.0,0.0,0.0,0.0,0.0,0.0,0.0,0.0,0.0,0.0,0.0,0.0,0.0,0.0,0.0,0.0,0.0,0.0,0.0,0.0,0.0,0.0,0.0,0.0,0.0,0.0,0.0,0.0,0.0,0.0,0.0,2.9095,2.8923,2.9909,2.9835,2.9938,3.0105,0.0,0.0,0.0,0.0,0.0,2.9814,2.9814,2.9814,0.0,0.0,0.0,3.1275,3.1556,3.4187,3.7648,4.0638,5.0543,6.1778,6.8958,7.2355,7.424,7.5587,7.5916,7.6048,7.6676,7.6946,7.7035,7.6946,7.6928,7.6916,7.6808,7.6524,7.6411,7.6731,7.5886,7.5511,7.6195,7.5562,7.5078,7.5035,7.5035,7.5006,7.4916,7.4886,7.5231,7.6,7.6229,7.637,7.6478,7.596,7.5883,7.6348,7.7571,7.8747,7.9866,8.1786,8.2631,8.253,8.2665,8.3037,8.3693,8.4323,8.4614,8.4614,8.4614,8.4153,8.3558,8.4323,8.4153,8.3413,8.2774,8.2515,8.2302,0.0,0.0,0.0,0.0,0.0,0.0,0.0,0.0,0.0,0.0,0.0,0.0,0.0,0.0,0.0,1.7868,1.912,2.0591,2.2094,2.5056,0.0,0.0,0.0,0.0,0.0,0.0,0.0,0.0,0.0,0.0,0.0,3.6838,3.8368,0.0,0.0,0.0,0.0,0.0,0.0,3.0221,2.9905,3.0166,0.0,0.0,0.0,0.0,0.0,0.0,0.0,2.9814,2.9814,2.9814,2.9814,0.0,0.0,0.0,3.3161,3.7995,4.6149,5.4309,6.2121,6.875,7.1593,7.3133,7.448,7.5078,7.5407,7.5677,7.5736,7.5856,7.6228,7.6288,7.6168,7.5796,7.5595,7.553,7.5689,7.5244,7.5047,7.5429,7.5113,7.4886,7.4886,7.4463,7.4236,7.4347,7.477,7.5244,7.5628,7.6525,7.6501,7.5265,7.4904,7.4718,7.4668,7.6304,7.8541,8.1357,8.1636,8.1765,8.1765,8.1765,8.2205,8.2902,8.324,8.3375,8.3375,8.3375,8.2936,8.2241,8.2134,8.1862,8.1424,8.0609,8.0528,8.0617,0.0,0.0,0.0,0.0,0.0,0.0,0.0,0.0,0.0,0.0,0.0,0.0,0.0,0.0,0.0,0.0,1.921,2.1197,2.42,2.5711,0.0,0.0,0.0,0.0,0.0,0.0,0.0,0.0,0.0,0.0,3.7043,3.7866,4.0539,0.0,3.886,0.0,0.0,0.0,0.0,0.0,0.0,0.0,0.0,0.0,0.0,0.0,0.0,0.0,0.0,0.0,2.9814,2.9814,2.9814,2.9814,0.0,0.0,0.0,3.733,4.8807,5.47,5.9219,6.6041,6.9199,7.1085,7.2744,7.3659,7.4197,7.4347,7.4527,7.4736,7.5078,7.5437,7.5467,7.4976,7.4886,7.4886,7.4886,7.4886,7.4826,7.4599,7.4766,7.4766,7.4437,7.395,7.385,7.4231,7.4849,7.5496,7.6112,7.6927,7.652,7.4619,7.4267,7.3941,7.3527,7.6038,7.8733,8.1549,8.0987,8.0627,8.0458,8.0458,8.0851,8.1583,8.2158,8.2395,8.2395,8.2395,8.1968,8.121,8.041,7.9938,7.9608,7.856,7.8489,7.8687,0.0,0.0,0.0,0.0,0.0,0.0,0.0,0.0,0.0,0.0,0.0,0.0,0.0,0.0,1.7729,1.7461,1.9461,2.2096,2.5294,2.6139,2.6528,0.0,0.0,0.0,0.0,0.0,0.0,0.0,0.0,0.0,3.8801,4.0359,4.4027,4.8987,4.2928,3.8069,3.4401,0.0,0.0,0.0,0.0,0.0,0.0,0.0,0.0,0.0,0.0,0.0,0.0,0.0,0.0,2.9814,2.9814,2.9814,2.9814,0.0,0.0,0.0,4.3393,4.8196,5.2462,5.9744,6.4425,6.7926,7.047,7.1577,7.2252,7.2877,7.3522,7.3762,7.3176,7.4091,7.4946,7.4916,7.4886,7.4886,7.4886,7.4886,7.4582,7.378,7.4386,7.4407,7.3133,7.3552,7.4268,7.5144,7.5211,7.6233,7.8592,7.7331,7.6242,7.5542,7.4127,7.3709,7.4419,7.745,7.9077,7.9283,7.9215,7.8855,7.8157,7.8157,7.8551,7.9384,8.1481,8.2395,8.2395,8.2395,8.1968,8.121,8.041,7.9683,7.883,7.7082,7.6457,7.6326,0.0,0.0,0.0,0.0,0.0,0.0,0.0,0.0,0.0,0.0,0.0,0.0,0.0,1.7208,1.7272,1.7732,2.0771,2.3665,2.6028,2.6382,2.6641,2.6995,0.0,0.0,0.0,0.0,0.0,0.0,0.0,3.0768,3.7815,3.8741,4.1204,4.4748,4.2169,4.0199,3.8529,3.3959,0.0,0.0,0.0,0.0,0.0,0.0,0.0,0.0,0.0,0.0,0.0,0.0,0.0,0.0,0.0,0.0,0.0,3.124,3.2681,3.5283,4.1715,4.5225,4.8585,5.5047,5.9638,6.3273,6.5862,6.8645,7.0875,7.1487,7.2146,7.2654,7.2847,7.3283,7.3612,7.3612,7.3971,7.4091,7.3672,7.3971,7.4001,7.3232,7.3148,7.3119,7.292,7.2355,7.2718,7.4453,7.5717,7.6521,7.6771,7.5831,7.473,7.351,7.1553,7.1595,7.3823,7.6862,7.8382,7.8382,7.8382,7.8259,7.7988,7.7988,7.8157,7.845,7.9722,8.0534,8.0987,8.0987,8.0237,7.899,7.7707,7.6691,7.5734,7.4083,7.3747,7.4117,0.0,0.0,0.0,0.0,0.0,0.0,0.0,0.0,0.0,0.0,0.0,0.0,0.0,0.0,1.8022,1.9768,2.2499,2.4821,2.64,2.6665,2.6601,2.6197,2.4964,0.0,0.0,0.0,0.0,0.0,0.0,0.0,0.0,0.0,3.9609,4.24,4.0864,0.0,0.0,0.0,0.0,3.4798,0.0,0.0,3.3007,0.0,0.0,0.0,0.0,0.0,0.0,0.0,0.0,0.0,0.0,0.0,0.0,0.0,0.0,0.0,3.9487,4.2331,4.5464,5.1636,5.4987,5.7992,6.263,6.5413,6.7388,6.8659,6.9812,7.0666,7.0889,7.1098,7.1607,7.2727,7.3266,7.3402,7.2967,7.3266,7.3313,7.2654,7.2491,7.2385,7.2232,7.1622,7.2192,7.4508,7.5538,7.5931,7.5672,7.46,7.3347,7.1958,7.0492,7.1193,7.4203,7.6227,7.7345,7.765,7.765,7.7481,7.721,7.6973,7.7142,7.765,7.7874,7.8674,7.9799,7.9544,7.8816,7.7705,7.5623,7.4436,7.3726,7.2409,7.2176,7.2654,0.0,0.0,0.0,0.0,0.0,0.0,0.0,0.0,0.0,0.0,0.0,0.0,0.0,0.0,0.0,2.3482,2.4552,2.5477,2.6467,2.6965,2.6272,2.4116,2.4483,0.0,0.0,0.0,0.0,0.0,0.0,0.0,0.0,0.0,3.9622,0.0,3.9421,3.9169,4.1063,0.0,3.8793,3.8592,0.0,3.3807,3.5079,0.0,0.0,0.0,3.824,3.7086,0.0,3.2265,0.0,0.0,0.0,0.0,0.0,0.0,0.0,0.0,0.0,0.0,0.0,4.9213,5.0398,5.2223,6.0729,6.1702,6.1598,6.4306,6.643,6.7628,6.7104,6.7523,6.9019,7.2189,7.2757,7.2817,7.2787,7.2817,7.2595,7.1893,7.2415,7.2309,7.0979,7.1493,7.2912,7.5367,7.4651,7.4577,7.5655,7.3679,7.2059,7.1107,7.1122,7.2563,7.5523,7.5615,7.6014,7.6792,7.6792,7.6386,7.5608,7.4886,7.5393,7.6792,7.6014,7.6937,7.8917,7.816,7.7808,7.7454,7.4452,7.3246,7.3108,7.2212,7.1863,7.1983,0.0,0.0,0.0,0.0,0.0,0.0,0.0,0.0,0.0,0.0,0.0,0.0,0.0,0.0,0.0,2.5266,2.5864,2.6412,2.7036,2.6079,2.5227,2.4619,2.3924,2.343,0.0,0.0,0.0,0.0,0.0,0.0,0.0,0.0,0.0,0.0,3.7462,3.7764,3.814,3.5278,0.0,0.0,3.4974,3.5189,0.0,0.0,0.0,0.0,0.0,3.6833,3.6369,3.5351,3.426,3.3058,0.0,0.0,0.0,0.0,0.0,0.0,3.5398,0.0,0.0,0.0,0.0,0.0,5.1301,5.3204,5.5525,6.106,6.2241,6.3243,6.6416,6.7164,6.7583,6.8465,6.9796,7.0573,7.0141,7.0889,7.1038,6.9931,7.038,7.047,6.9602,7.1241,7.283,7.3983,7.5832,7.5858,7.353,6.9897,6.7967,6.8231,6.9277,7.068,7.2502,7.357,7.4233,7.4436,7.4436,7.4334,7.4097,7.3894,7.4322,7.5258,7.5574,7.5784,7.5928,7.6247,7.5371,7.3756,7.291,7.2166,7.155,7.1277,7.1188,7.1278,0.0,0.0,0.0,0.0,0.0,0.0,0.0,0.0,0.0,0.0,0.0,0.0,0.0,0.0,0.0,0.0,2.7123,2.7138,2.6976,2.5602,2.4585,2.4103,2.3452,2.3101,0.0,0.0,0.0,0.0,0.0,0.0,0.0,0.0,0.0,0.0,0.0,0.0,0.0,0.0,0.0,0.0,3.7061,0.0,0.0,3.9508,3.9672,0.0,4.0225,4.0237,3.9998,3.8102,3.6219,0.0,0.0,0.0,0.0,0.0,0.0,0.0,0.0,0.0,0.0,0.0,0.0,0.0,4.717,4.8547,5.029,5.5825,5.7094,5.8304,6.1836,6.3153,6.3887,6.4455,6.6176,6.7717,6.8465,6.9229,6.9512,6.9064,6.9109,6.9347,6.9866,7.0627,7.1328,7.1943,7.3642,7.3017,6.9325,6.6866,6.6328,6.7959,6.8555,6.9943,7.2184,7.2767,7.3184,7.3488,7.3488,7.3488,7.3488,7.3184,7.3612,7.4581,7.439,7.3775,7.2939,7.335,7.2854,7.1836,7.1445,7.0985,7.0576,7.0799,7.0889,7.0949,0.0,0.0,0.0,0.0,0.0,0.0,0.0,0.0,0.0,0.0,0.0,0.0,0.0,0.0,0.0,0.0,2.8476,2.7755,2.6749,2.538,2.4157,2.3144,2.3101,2.3101,2.3101,0.0,0.0,0.0,0.0,0.0,0.0,0.0,0.0,0.0,0.0,0.0,0.0,0.0,0.0,3.7965,3.9634,4.0901,0.0,4.4468,4.5121,4.4754,4.5221,4.5095,4.4127,4.0413,3.7337,3.4502,0.0,0.0,0.0,0.0,3.4856,0.0,0.0,0.0,0.0,0.0,4.0367,0.0,4.5793,4.6063,4.6052,4.9871,5.1588,5.3139,5.5444,5.7406,5.9026,6.0162,6.2151,6.453,6.7284,6.7748,6.7972,6.8495,6.8092,6.856,7.0558,6.961,6.9166,6.979,6.9608,6.7952,6.4441,6.4596,6.6108,6.8973,6.8437,6.9738,7.3228,7.2597,7.2597,7.3251,7.3251,7.3251,7.3218,7.2563,7.2956,7.4043,7.2739,7.1366,7.0056,6.9975,7.0315,7.0764,6.9977,6.9812,7.0067,7.059,7.0829,7.0889,0.0,0.0,0.0,0.0,0.0,0.0,0.0,0.0,0.0,0.0,0.0,0.0,0.0,0.0,0.0,0.0,0.0,2.8462,0.0,0.0,2.3332,2.3123,2.3101,2.3101,2.3101,2.5337,0.0,0.0,0.0,0.0,0.0,0.0,0.0,0.0,0.0,0.0,0.0,0.0,0.0,3.6859,3.8542,4.1418,4.4694,4.4754,4.5006,4.5271,4.4905,4.5006,4.4869,4.1843,3.9283,3.6923,3.4513,3.3486,3.3419,3.4527,0.0,0.0,0.0,0.0,0.0,3.8871,4.0397,0.0,4.0616,4.1712,4.3768,4.6659,4.7467,4.8884,5.3049,5.4982,5.5867,5.5585,5.853,6.1972,6.5129,6.6056,6.6236,6.5847,6.6146,6.6808,6.7793,6.7683,6.8082,6.9313,6.7855,6.5875,6.3466,6.3423,6.4729,6.7515,6.7465,6.8784,7.1684,7.1605,7.1605,7.174,7.174,7.174,7.1706,7.1571,7.1382,7.1114,7.0816,6.9599,6.7829,6.7815,6.781,6.7863,6.8232,6.9049,7.0007,7.0127,7.047,7.0889,0.0,0.0,0.0,0.0,0.0,0.0,0.0,0.0,0.0,0.0,0.0,0.0,0.0,0.0,0.0,0.0,0.0,0.0,0.0,0.0,2.3446,2.3446,2.3229,2.3376,2.3951,2.5609,2.6748,0.0,0.0,0.0,0.0,0.0,0.0,0.0,0.0,0.0,0.0,0.0,3.46,3.672,4.0288,4.2911,4.4794,4.6175,4.6893,4.7069,4.6461,4.61,4.5397,4.2044,4.0538,3.9486,3.5957,3.6139,3.7581,3.7266,3.8592,4.0172,0.0,0.0,4.1254,4.0546,4.0896,0.0,0.0,3.9658,4.0735,4.3758,4.3559,4.4187,4.8457,4.9804,5.081,5.2444,5.491,5.7826,6.112,6.3288,6.4665,6.4964,6.474,6.5496,6.7969,6.6948,6.6464,6.7153,6.5602,6.4197,6.3158,6.3738,6.506,6.7125,6.7837,6.9193,7.1278,7.13,7.13,7.13,7.13,7.13,7.1278,7.0574,7.0256,7.0239,6.9193,6.7956,6.6713,6.6671,6.6414,6.6086,6.7104,6.8331,6.9558,6.9887,7.038,7.0889,0.0,0.0,0.0,0.0,0.0,0.0,0.0,0.0,0.0,0.0,0.0,0.0,0.0,0.0,0.0,0.0,0.0,0.0,0.0,0.0,2.3672,2.3683,2.3518,2.3825,2.4672,2.6086,2.7228,2.8094,0.0,0.0,0.0,0.0,0.0,0.0,0.0,0.0,0.0,0.0,0.0,3.7474,4.2333,4.3901,4.3714,4.717,4.84,4.8275,4.8008,4.728,4.5909,4.2345,4.1694,4.1636,3.7573,3.8986,4.1844,4.0472,4.1793,4.3519,4.2741,4.289,4.3279,4.3219,4.2342,4.1186,0.0,0.0,0.0,4.1044,4.0466,4.0567,4.3778,4.4566,4.5723,4.8824,5.1091,5.3246,5.5513,5.88,6.1687,6.3469,6.254,6.3396,6.7533,6.5651,6.4321,6.47,6.3236,6.2569,6.3063,6.436,6.5741,6.7151,6.8515,6.989,7.1289,7.13,7.13,7.13,7.13,7.1176,7.0848,6.9715,6.9247,6.9199,6.7536,6.6349,6.5601,6.5531,6.5319,6.5114,6.634,6.7717,6.9064,6.9618,7.026,7.0889,0.0,0.0,0.0,0.0,0.0,0.0,0.0,0.0,0.0,0.0,0.0,0.0,0.0,0.0,0.0,0.0,0.0,0.0,3.287,0.0,0.0,2.3275,2.4133,2.4493,2.4272,2.6684,2.7974,2.8094,0.0,0.0,0.0,0.0,0.0,0.0,3.1382,0.0,0.0,0.0,3.5401,3.9559,4.2146,4.2534,4.1991,4.5844,4.7014,4.6702,4.7566,4.7516,4.6647,4.4227,4.3201,4.2698,4.1359,4.0845,4.1179,4.341,4.453,4.5304,4.6352,4.8315,4.8854,4.3778,4.5783,4.7008,3.946,0.0,4.1745,3.8593,0.0,4.0427,4.0876,0.0,0.0,4.2541,4.6582,4.9247,4.7826,5.0978,5.479,5.8444,5.7766,5.8568,6.2623,6.1635,6.1471,6.3196,6.0962,6.0595,6.2974,6.436,6.5741,6.7151,6.8515,6.989,7.1289,7.13,7.13,7.13,7.13,7.0631,6.9421,6.9277,6.7939,6.5678,6.544,6.4612,6.3457,6.3457,6.4047,6.5084,6.5817,6.7298,6.9004,6.9093,6.9871,7.0889,0.0,0.0,0.0,0.0,0.0,0.0,0.0,0.0,0.0,0.0,0.0,0.0,0.0,0.0,0.0,0.0,0.0,3.3321,3.2706,0.0,0.0,0.0,2.5318,2.6009,2.6747,2.8286,2.9381,3.0016,3.1036,0.0,0.0,0.0,0.0,0.0,3.1853,3.253,3.4237,3.4098,3.5655,3.8454,4.0651,4.1078,4.0889,4.5733,4.7657,4.7773,4.7857,4.7767,4.7252,4.5271,4.4856,4.4954,4.39,4.4218,4.5142,4.5958,4.6607,4.717,4.7739,4.9213,4.974,4.6142,4.661,4.648,4.0965,4.0098,4.0208,3.932,0.0,0.0,0.0,0.0,0.0,0.0,4.3509,4.4966,4.5633,4.6183,4.8708,5.4551,5.4102,5.4571,5.7816,5.9047,5.9488,5.9114,5.874,5.9175,6.0685,6.3911,6.6182,6.7164,6.931,7.0711,7.1289,7.13,7.13,7.1289,7.0482,6.9763,6.9157,6.7546,6.6206,6.5073,6.4293,6.3832,6.3632,6.3632,6.4395,6.5607,6.5877,6.6999,6.8481,6.8854,6.9572,7.0426,0.0,0.0,0.0,0.0,0.0,0.0,0.0,0.0,0.0,0.0,0.0,0.0,4.4543,4.3327,0.0,0.0,3.9954,3.6584,3.4362,3.0763,2.7948,2.6223,2.7001,2.7789,2.8509,2.9804,3.0768,3.1396,3.1938,3.2204,0.0,0.0,0.0,0.0,3.2907,3.3811,3.5077,3.5944,3.7526,3.9609,4.104,4.1836,4.2477,4.576,4.7631,4.8476,4.7892,4.7666,4.7485,4.6079,4.6224,4.6861,4.626,4.705,4.8179,4.8127,4.8327,4.8607,4.8775,4.9901,5.0338,4.7489,4.667,4.5553,4.1723,4.0436,4.0107,4.0337,4.0088,0.0,0.0,0.0,3.9996,4.1592,0.0,4.1882,4.3219,4.2352,4.4008,5.0522,5.1247,5.2025,5.4174,5.5652,5.6323,5.5939,5.5914,5.6951,5.924,6.2996,6.5801,6.7388,6.9391,7.0532,7.0734,7.0378,7.0378,7.0722,6.9301,6.865,6.8577,6.6193,6.4909,6.4499,6.3507,6.3452,6.4006,6.4006,6.4784,6.5996,6.5996,6.67,6.7792,6.8525,6.9183,6.9798,0.0,2.311,0.0,0.0,0.0,0.0,3.1803,3.3244,3.5403,3.917,4.0199,4.2219,0.0,4.4593,0.0,0.0,4.3202,3.9179,3.998,3.4534,3.0066,2.7369,2.9303,2.9788,2.8347,3.0803,3.1897,3.1396,3.1938,3.2204,3.2204,3.2828,0.0,3.314,3.4703,3.6334,3.799,3.9609,4.2233,4.5185,4.4679,4.5972,4.7956,4.5599,4.606,4.7857,4.7324,4.7124,4.7076,4.6749,4.7105,4.7836,4.8755,4.8667,4.8439,4.973,4.9703,4.9396,4.9979,5.1576,5.1839,4.6661,4.6322,4.5892,4.0647,4.1874,4.3409,4.0905,4.3399,4.5264,4.279,4.2291,0.0,0.0,0.0,0.0,0.0,3.914,4.1246,4.5971,4.9291,5.1487,5.2217,5.0659,5.1191,5.4952,5.2252,5.3281,5.9705,6.1426,6.4018,6.7955,6.816,6.8549,6.9277,6.7962,6.7962,6.9253,6.7932,6.7254,6.7202,6.5754,6.4387,6.3165,6.3122,6.3452,6.4006,6.4006,6.4784,6.5996,6.5996,6.643,6.7134,6.7986,6.8615,6.9093,0.0,0.0,0.0,0.0,0.0,2.991,3.2857,3.583,3.8994,4.2495,4.4719,4.7396,5.1055,5.0987,5.1063,5.1983,4.8668,4.52,4.2151,3.8694,3.5434,3.2516,3.3274,3.3314,3.2362,3.3693,3.4115,3.3585,3.376,3.385,3.385,3.3696,3.3822,3.4187,3.5093,3.666,3.873,4.0753,4.2836,4.4914,4.6421,4.8758,5.0977,4.8241,4.8504,5.0318,5.0131,5.0092,5.0148,5.0588,5.0366,4.9968,5.0394,5.0384,5.0189,5.02,5.0679,5.1271,5.1468,5.2995,5.3456,4.9037,4.7948,4.6811,4.2381,4.291,4.3678,4.1513,4.3868,4.5613,4.3409,4.299,0.0,0.0,0.0,0.0,0.0,3.8332,3.949,4.1485,4.5403,4.7358,4.5864,4.6681,4.7698,4.8577,4.8416,5.0539,5.5724,5.9456,6.2608,6.515,6.7126,6.8016,6.7874,6.7419,6.7862,6.9181,6.6893,6.6312,6.7113,6.4813,6.3521,6.3108,6.3108,6.3452,6.4036,6.447,6.5188,6.6026,6.649,6.6789,6.7104,6.7986,6.8331,6.8481,2.3658,0.0,0.0,0.0,2.8207,3.0939,3.352,3.7701,4.1694,4.4805,4.7983,5.1222,5.4536,5.4705,5.4529,5.435,5.231,4.9001,4.435,4.2709,4.0262,3.6562,3.6921,3.6647,3.5418,3.6055,3.582,3.4703,3.5102,3.5102,3.4703,3.4137,3.4087,3.4488,3.6008,3.7513,3.9133,4.2861,4.4979,4.6085,4.8489,5.0791,5.2603,5.0793,5.09,5.1942,5.1444,5.114,5.1059,5.1866,5.165,5.1071,5.1445,5.1397,5.1128,5.0686,5.1187,5.1846,5.1846,5.3144,5.3695,5.0433,4.9284,4.7938,4.3978,4.4626,4.5454,4.3249,4.5225,4.698,4.5683,4.4655,0.0,0.0,0.0,0.0,0.0,3.7494,3.8212,3.8644,4.2362,4.4237,4.256,4.3698,4.4366,4.3938,4.5114,4.7727,5.2016,5.6519,6.027,6.3124,6.5213,6.633,6.6438,6.5981,6.643,6.7711,6.5477,6.5097,6.6391,6.4125,6.3108,6.3108,6.3108,6.3452,6.4066,6.474,6.5398,6.6071,6.6729,6.7014,6.7074,6.7643,6.7942,6.8241,2.4587,2.5915,2.6981,2.7633,3.0209,3.2631,3.3872,3.8718,4.3266,4.6125,4.99,5.359,5.6835,5.5842,5.5509,5.696,5.4142,5.0695,4.6863,4.6537,4.4367,3.9547,4.0275,3.9759,3.7575,3.7939,3.7099,3.4954,3.5942,3.5904,3.4803,3.4223,3.3947,3.4073,3.7361,3.8869,3.9373,4.5696,4.8496,4.8875,5.0954,5.2331,5.3195,5.3124,5.3022,5.2754,5.1405,5.0476,4.9987,5.0839,5.1088,5.1201,5.1957,5.1756,5.1236,5.1236,5.1307,5.1325,5.1295,5.2276,5.2827,5.0877,5.0327,4.925,4.5414,4.7051,4.8618,4.5943,4.754,4.9348,4.9187,4.7021,4.4855,0.0,0.0,0.0,3.596,3.6678,3.7486,3.7545,4.0296,4.2201,4.2171,4.1622,4.1254,4.1254,4.2382,4.4859,4.8833,5.2822,5.7109,6.1696,6.2586,6.3654,6.4988,6.3748,6.3761,6.507,6.3732,6.3803,6.5029,6.369,6.3108,6.3108,6.3108,6.3452,6.4066,6.474,6.5398,6.6071,6.6729,6.7014,6.7014,6.7014,6.7583,6.8405,2.6049,2.8589,3.0775,3.0951,3.1672,3.3133,3.5942,4.0024,4.4357,4.8771,5.3088,5.6853,5.9809,5.9753,5.9156,5.8334,5.6351,5.4017,5.1381,5.0051,4.8218,4.5698,4.5095,4.3951,4.2133,4.1014,3.9772,3.8417,3.7449,3.6847,3.6545,3.5141,3.4477,3.4589,3.6696,3.8388,3.9955,4.4598,4.8543,5.1836,5.3574,5.4998,5.5929,5.4997,5.5191,5.5814,5.4495,5.3295,5.2347,5.2548,5.2292,5.1938,5.2139,5.2097,5.1947,5.1947,5.2665,5.3312,5.2815,5.3665,5.4431,5.3431,5.2043,5.044,4.8457,4.9404,4.9972,4.7339,4.8895,4.9972,4.7508,4.6112,4.4566,0.0,0.0,0.0,3.7067,3.7614,3.8512,3.9499,3.9508,3.9248,3.8721,3.8969,3.9188,3.9188,3.9939,4.2292,4.6584,5.1193,5.5048,5.8054,6.1308,6.32,6.3605,6.3265,6.3761,6.507,6.3732,6.3803,6.5029,6.369,6.3108,6.3108,6.3108,6.3452,6.4066,6.474,6.5398,6.6071,6.6729,6.7014,6.7014,6.7014,6.7777,6.8824,2.7801,3.1234,3.4109,3.4349,3.578,3.7475,3.912,4.206,4.5713,5.0218,5.4418,5.7506,5.8855,6.0085,6.0136,5.8485,5.7029,5.5247,5.3046,5.2234,5.0979,4.9072,4.8184,4.6853,4.4945,4.2785,4.0927,3.9333,3.7914,3.6947,3.6421,3.5255,3.4577,3.4413,3.6093,3.8015,4.0366,4.585,5.037,5.3925,5.4832,5.5641,0.0,5.5461,5.5448,5.5748,5.5029,5.4084,5.3169,5.2857,5.2516,5.2247,5.2546,5.2648,5.2695,5.2995,5.3611,5.4119,5.3743,5.4413,5.5089,5.473,5.3803,5.2456,5.0552,5.069,5.0619,4.8607,4.8895,4.9172,4.8185,4.6031,4.3469,4.0556,3.888,3.7823,3.7456,3.7982,3.867,3.9448,3.911,3.8571,3.7913,3.7682,3.7682,3.7943,3.9679,4.1544,4.3455,4.9417,5.3522,5.517,5.9727,6.2453,6.3078,6.3662,6.4022,6.4223,6.3449,6.3492,6.4209,6.3421,6.3108,6.3108,6.3108,6.3273,6.3677,6.462,6.5203,6.5667,6.661,6.7014,6.7044,6.7313,6.7972,6.8764,3.0063,3.3877,3.6946,3.7248,4.069,4.3416,4.3405,4.5276,4.7973,5.159,5.5372,5.7562,5.7104,5.9062,5.9815,5.8353,5.7029,5.5447,5.3447,5.3658,5.2929,5.0904,5.0318,4.9038,4.6888,4.3994,4.1482,3.9446,3.7864,3.6584,3.5595,3.4929,3.4338,3.3983,3.5725,3.811,4.1231,4.8169,5.2545,5.4832,5.5102,5.5192,5.5192,5.5192,5.485,5.4299,5.4119,5.3623,5.2977,5.2498,5.2276,5.2336,5.3097,5.3336,5.3456,5.403,5.4269,5.4299,5.4209,5.47,5.5192,5.5192,5.5192,5.4551,5.2025,5.1546,5.1187,4.9845,4.8637,4.8226,4.9579,4.626,4.2352,3.9388,3.8362,3.7934,3.8024,3.8332,3.864,3.888,3.92,0.0,3.882,3.7563,3.6934,3.7366,4.0176,4.1433,4.0457,4.7429,5.1917,5.3037,5.8052,6.1523,6.3183,6.4231,6.4291,6.3333,6.3197,6.3108,6.3108,6.3108,6.3108,6.3108,6.3108,6.3123,6.3303,6.4411,6.4964,6.5278,6.652,6.7014,6.7104,6.7912,6.8301,6.8555,3.3676,3.669,3.8856,3.8015,4.2233,4.6627,4.9305,5.1565,5.3725,5.5749,5.9388,6.1748,6.1647,6.1291,6.0738,5.994,5.8033,5.6527,5.5673,5.4881,5.4052,5.3155,5.2611,5.1507,4.9724,4.606,4.3564,4.2286,3.8429,3.6443,3.6205,3.4726,3.3997,3.3991,3.617,3.9871,4.4767,4.9275,5.1792,5.2875,5.4533,5.5192,5.5192,5.5192,5.5132,5.488,5.3785,5.2935,5.2438,5.2887,5.2677,5.2426,5.3653,5.4012,5.4042,5.4179,5.4581,5.491,5.4359,5.47,5.5192,5.5192,5.5192,5.4803,5.3216,5.3264,5.3132,5.1247,5.0679,4.9961,4.8136,4.5343,4.2951,4.1862,4.1143,4.0894,4.1443,4.0197,3.9828,4.1502,4.0337,3.9789,4.0775,3.9188,3.7883,3.7426,3.8461,3.9478,4.0337,4.4815,4.8884,5.2276,5.6453,6.0312,6.3797,6.3572,6.3857,6.465,6.3602,6.3108,6.3108,6.3108,6.3108,6.3108,6.3108,6.3393,6.3857,6.4096,6.4844,6.5906,6.67,6.7014,6.7194,6.875,6.9123,6.8974,3.7551,3.9697,4.1594,4.2208,4.6411,5.0653,5.3406,5.6445,5.8102,5.7129,5.8616,5.9689,5.9413,6.0211,6.0392,5.9539,5.851,5.7512,5.6677,5.5591,5.4755,5.4202,5.3339,5.2134,5.0427,4.6572,4.394,4.2587,3.8429,3.6117,0.0,3.4689,3.4022,3.3618,3.6837,4.1135,4.6137,4.9347,5.1487,5.2857,5.4533,5.5192,5.5192,5.5192,5.5192,5.5072,5.4084,5.3503,5.3174,5.2827,5.2935,5.3341,5.4,5.4431,5.473,5.473,5.494,5.5132,5.482,5.494,5.5192,5.5192,5.5192,5.4952,5.3952,5.3982,5.3832,5.2516,5.1666,5.041,4.7777,4.5683,4.4127,4.3489,4.2571,4.2041,4.2351,4.1283,4.0546,4.0825,3.9999,3.952,3.9817,3.929,3.8631,3.7973,3.9179,3.9927,3.9879,4.3967,4.7796,5.1068,5.5333,5.9162,6.2466,6.3543,6.4066,6.4006,6.3393,6.3108,6.3108,6.3108,6.3108,6.3108,6.3108,6.3273,6.3572,6.4246,6.5308,6.655,6.6879,6.7224,6.7673,6.8854,6.9303,6.9423,4.1466,4.3087,4.4884,4.7004,5.0929,5.4552,5.6845,6.0385,6.1706,5.8623,5.824,5.8228,5.824,5.9602,6.0337,5.9915,5.9408,5.8542,5.7273,5.6526,5.5687,5.464,5.3733,5.2485,5.0804,4.6963,4.4116,4.2375,3.8479,3.5917,3.4703,3.4703,3.4515,3.4328,3.796,4.2119,4.656,4.9261,5.1487,5.3318,5.4653,5.5192,5.5192,5.5192,5.5192,5.5089,5.4431,5.4299,5.4239,5.3025,5.3234,5.4042,5.4311,5.467,5.5012,5.5162,5.5192,5.5192,5.5192,5.5192,5.5192,5.5192,5.5192,5.5029,5.4359,5.4209,5.4012,5.3348,5.2127,5.0499,4.8147,4.686,4.5853,4.4875,4.3868,4.3149,4.284,4.2241,4.1265,3.9789,3.9849,3.9559,3.8311,3.9041,3.9221,3.8251,3.9787,4.0496,3.9849,4.3409,4.6879,4.992,5.4376,5.8115,6.106,6.3423,6.4246,6.3512,6.3213,6.3108,6.3108,6.3108,6.3108,6.3108,6.3108,6.3168,6.3393,6.453,6.5697,6.6835,6.7104,6.7523,6.8107,6.8914,6.9363,6.9722,4.5332,4.7119,4.8802,5.0535,5.4042,5.7472,6.0065,6.3313,6.4662,6.2543,6.2275,6.2925,6.473,6.2637,6.1824,6.3536,6.1695,5.9683,5.7938,5.8285,5.7378,5.4718,5.4496,5.365,5.1975,4.8118,4.507,4.2939,3.9044,3.6282,3.4703,3.4703,3.5755,3.774,3.9872,4.2885,4.6509,4.9724,5.1917,5.3318,5.4653,5.5192,5.5192,5.5192,5.5192,5.5089,5.4431,5.4581,5.497,5.4251,5.3683,5.3528,5.4713,5.473,5.4418,5.5029,5.5192,5.5192,5.5192,5.5192,5.5192,5.5192,5.5192,5.5029,5.4359,5.4209,5.4012,5.3348,5.2127,5.0769,4.9366,4.9018,4.8319,4.642,4.6001,4.5493,4.4307,4.3549,4.2412,4.0537,4.1373,4.0904,3.7785,3.92,3.9529,3.7644,3.8212,3.9418,4.1134,4.2191,4.4796,4.9247,5.3276,5.7214,6.106,6.2555,6.3797,6.4815,6.3662,6.3108,6.3108,6.3108,6.3108,6.3108,6.3108,6.3422,6.3977,6.471,6.5413,6.6221,6.7433,6.7958,6.8167,6.9439,6.9798,6.9722,5.0447,5.1252,5.2922,5.7478,5.8271,5.9811,6.4454,6.5532,6.5961,6.639,6.579,6.5643,6.6431,6.476,6.3915,6.4744,6.393,6.275,6.13,6.0146,5.8526,5.6314,5.4834,5.3432,5.2126,4.928,4.6527,4.3966,4.1065,3.8479,3.6182,3.5506,3.6456,3.8842,4.0658,4.371,4.7638,4.971,5.1606,5.3318,5.4653,5.5192,5.5192,5.5192,5.5192,5.5162,5.491,5.497,5.5162,5.488,5.461,5.4503,5.5042,5.5012,5.485,5.5119,5.5192,5.5192,5.5192,5.5192,5.5192,5.5192,5.5192,5.5132,5.485,5.4491,5.4119,5.3862,5.2725,5.1528,5.0601,4.9475,4.8558,4.8158,4.7089,4.5971,4.5025,4.3967,4.2432,4.0079,3.9559,3.873,3.7024,3.7904,3.8781,3.9161,3.908,3.9529,4.0735,4.1433,4.3928,4.8558,5.2151,5.57,5.9251,6.1836,6.3363,6.3857,6.3333,6.3108,6.3108,6.3108,6.3108,6.3108,6.3108,6.3662,6.462,6.4874,6.5637,6.67,6.7613,6.8257,6.872,6.9648,7.0157,7.044,5.4682,5.5585,5.7564,6.3135,6.2783,6.3397,6.8389,6.8081,6.802,7.0102,6.9413,6.8576,6.8187,6.6689,6.5888,6.6306,6.5988,6.5091,6.3508,6.1697,5.9681,5.7403,5.5157,5.3457,5.236,5.0318,4.7908,4.5106,4.3034,4.0538,3.7688,3.7276,3.8314,4.0557,4.2578,4.5581,4.9224,5.0529,5.2127,5.3875,5.4832,5.5192,5.5192,5.5192,5.5192,5.5192,5.5192,5.5192,5.5192,5.5192,5.5192,5.5192,5.5192,5.5059,5.494,5.5132,5.5192,5.5192,5.5192,5.5192,5.5192,5.5192,5.5192,5.5192,5.5192,5.467,5.4089,5.37,5.3025,5.2217,5.1367,4.9901,4.8906,4.8977,4.7818,4.6461,4.5185,4.4366,4.2921,4.0298,3.932,3.8401,3.7182,3.7793,3.8862,4.0277,4.0148,4.0277,4.0945,4.1433,4.3708,4.8158,5.1869,5.5269,5.8367,6.1523,6.3108,6.3108,6.3108,6.3108,6.3108,6.3108,6.3183,6.3363,6.3363,6.4096,6.5293,6.5293,6.5981,6.7074,6.7748,6.8421,6.9064,6.9738,7.038,7.0889,5.749,6.0118,6.2895,6.6355,6.747,6.877,7.1453,7.1273,7.1563,7.3576,7.3246,7.2298,7.1007,6.8534,6.7539,6.8924,6.7835,6.6025,6.3567,6.289,6.0995,5.7444,5.5559,5.4052,5.2937,5.1256,4.9022,4.6286,4.4593,4.2096,3.8906,4.0219,4.1752,4.3563,4.6229,4.8834,5.1236,5.2576,5.3935,5.5192,5.5192,5.5192,5.5192,5.5192,5.5192,5.5192,5.5192,5.5192,5.5192,5.5192,5.5192,5.5192,5.5192,5.476,5.4329,5.5012,5.5192,5.5192,5.5192,5.5192,5.5192,5.5192,5.5192,5.5192,5.5192,5.467,5.382,5.2486,5.2737,5.2767,5.1457,5.0637,4.977,4.8517,4.8278,4.735,4.4696,4.4855,4.4297,4.1703,4.1952,4.1293,3.864,3.9589,4.0367,4.0397,4.1014,4.1682,4.2351,4.2381,4.4197,4.8158,5.2767,5.6436,5.9069,6.1746,6.3108,6.3108,6.3108,6.3108,6.3108,6.3108,6.3422,6.3977,6.3977,6.4755,6.5996,6.5996,6.64,6.7074,6.7748,6.8421,6.9064,6.9738,7.038,7.0889,6.3156,6.4755,6.6732,7.0392,7.0057,7.0191,7.2854,7.1936,7.1441,7.3001,7.3027,7.257,7.1673,7.0833,7.035,7.0347,6.9936,6.8446,6.5557,6.3684,6.108,5.7471,5.5157,5.3658,5.2937,5.2009,5.0393,4.7999,4.6687,4.4698,4.216,4.4186,4.5573,4.6525,4.9891,5.1815,5.2648,5.3994,5.4803,5.5192,5.5192,5.5192,5.5192,5.5192,5.5192,5.5192,5.5192,5.5192,5.5192,5.5192,5.5192,5.5281,5.5743,5.5431,5.491,5.5132,5.5521,5.588,5.588,5.588,5.588,5.588,5.5551,5.5192,5.5192,5.467,5.3952,5.3067,5.2677,5.2396,5.1977,5.0631,4.9445,4.9048,4.8218,4.683,4.4606,4.4087,4.298,4.0358,4.0208,3.9828,3.852,3.9619,4.0765,4.1703,4.1952,4.2361,4.299,4.4307,4.6461,4.9501,5.3695,5.7137,5.9771,6.1986,6.3108,6.3108,6.3108,6.3303,6.3722,6.4186,6.45,6.468,6.468,6.5188,6.5996,6.5996,6.64,6.7104,6.8241,6.8794,6.9123,7.0201,7.0739,7.0889,6.6281,6.7961,6.9779,7.2113,7.1905,7.1882,7.3324,7.2259,7.1564,7.2415,7.2535,7.2265,7.1593,7.1743,7.1623,7.0949,7.0889,6.9594,6.6496,6.4246,6.1326,5.7471,5.5183,5.3683,5.2937,5.2561,5.1423,4.9405,4.8263,4.6959,4.5568,4.7948,4.9437,5.0225,5.3065,5.4456,5.4713,5.5551,5.591,5.591,5.591,5.579,5.5581,5.5581,5.5431,5.5192,5.5192,5.5192,5.5192,5.5192,5.5371,5.5641,5.6072,5.606,5.588,5.5641,5.603,5.6492,5.6252,5.6372,5.6551,5.6551,5.6209,5.585,5.5641,5.5059,5.4401,5.3713,5.3037,5.2498,5.2247,5.081,4.9565,4.9348,4.8158,4.6591,4.4566,4.3718,4.2622,4.0756,4.0747,4.0627,3.9966,4.1304,4.2471,4.308,4.4287,4.5056,4.5174,4.6621,4.8495,5.0877,5.5059,5.8424,6.0819,6.2345,6.3108,6.3108,6.3333,6.3782,6.4381,6.4815,6.5144,6.5398,6.5398,6.5757,6.637,6.637,6.661,6.7074,6.7926,6.8435,6.8854,6.9842,7.05,7.0889,6.7306,6.9869,7.1863,7.1893,7.2924,7.3552,7.2924,7.2295,7.1893,7.1833,7.1833,7.1593,7.0979,7.1457,7.1593,7.0949,7.0889,6.9594,6.6496,6.4567,6.1682,5.7497,5.5533,5.4027,5.292,5.2895,5.2084,5.0402,4.9406,4.8933,4.9027,5.1427,5.3182,5.4376,5.5781,5.6658,5.7094,5.7167,5.7124,5.7094,5.7034,5.6688,5.6192,5.6162,5.5743,5.5192,5.5192,5.5192,5.5192,5.5192,5.5641,5.6222,5.6252,5.6688,5.7034,5.6432,5.6688,5.7047,5.6492,5.6748,5.7154,5.7154,5.7094,5.6898,5.6342,5.5671,5.5029,5.4389,5.3755,5.3067,5.2396,5.1176,5.0039,4.9337,4.8098,4.652,4.4506,4.3698,4.307,4.2461,4.306,4.328,4.267,4.4277,4.5155,4.4666,4.744,4.8989,4.8577,4.9366,5.0654,5.2426,5.6885,6.0176,6.2151,6.2794,6.3123,6.3168,6.3782,6.4411,6.5084,6.5114,6.5488,6.6056,6.6056,6.643,6.7014,6.7014,6.7014,6.7014,6.7074,6.7597,6.8375,6.8944,6.9871,7.0889,6.9902,7.0658,7.1308,7.1803,7.2162,7.2312,7.2162,7.2013,7.1713,7.1188,7.1128,7.1068,7.0919,7.1038,7.1068,7.0919,7.0889,6.9594,6.6496,6.4223,6.1278,5.7471,5.5106,5.3607,5.2895,5.2895,5.2084,5.0402,5.0945,5.1344,5.1652,5.3961,5.5542,5.6453,5.7799,5.7932,5.7124,5.7649,5.7573,5.7077,5.6611,5.6342,5.6132,5.5641,5.5341,5.5192,5.5192,5.5192,5.5192,5.5192,5.5641,5.6282,5.6748,5.7334,5.7739,5.7077,5.7363,5.7829,5.7679,5.7739,5.7859,5.7859,5.7124,5.6372,5.6222,5.5671,5.5162,5.4999,5.4431,5.3773,5.3097,5.1887,5.044,4.8787,4.7429,4.5822,4.3808,4.3389,4.307,4.2461,4.4287,4.5313,4.4686,4.5484,4.664,4.8019,4.7889,4.8805,5.1139,5.3815,5.5251,5.5264,5.874,6.1343,6.2854,6.3003,6.3333,6.3797,6.4441,6.5114,6.5787,6.6281,6.661,6.6759,6.6759,6.6849,6.7014,6.7014,6.7014,6.7074,6.7717,6.8106,6.8465,6.9931,7.0649,7.0889,7.0829,7.1158,7.1368,7.1427,7.1713,7.1803,7.1504,7.1427,7.1308,7.0949,7.0889,7.0889,7.0889,7.0889,7.0799,7.05,7.0486,6.8942,6.5288,6.3364,6.0467,5.6245,5.4535,5.3439,5.2895,5.2895,5.2717,5.2331,5.4159,5.5156,5.5377,5.7029,5.8035,5.8484,5.8919,5.871,5.8052,5.8397,5.8338,5.7992,5.7676,5.7347,5.7004,5.6316,5.591,5.5623,5.5311,5.5192,5.5251,5.5551,5.609,5.6718,5.7363,5.8008,5.8487,5.8112,5.8278,5.8487,5.8175,5.8324,5.8577,5.8577,5.7812,5.7064,5.7064,5.6329,5.5671,5.5671,5.488,5.4089,5.3713,5.2294,5.0559,4.8607,4.7179,4.5493,4.321,4.3399,4.3848,4.4147,4.6232,4.7758,4.7997,4.9153,4.9991,5.0163,5.1169,5.2306,5.3503,5.6974,5.8351,5.7094,6.0296,6.2375,6.3108,6.3108,6.3572,6.447,6.4829,6.5518,6.646,6.6819,6.7014,6.7014,6.7014,6.7014,6.7014,6.7014,6.7014,6.7044,6.7523,6.8076,6.8794,7.035,7.0889,7.0889,7.0889,7.1368,7.1577,7.1009,7.1368,7.1547,7.0979,7.0889,7.0889,7.0889,7.0889,7.0889,7.0889,7.0889,7.0649,7.0037,6.9917,6.8106,6.3996,6.2514,5.9731,5.507,5.4117,5.3439,5.2895,5.3145,5.3705,5.4597,5.7428,5.8738,5.858,5.9599,6.004,5.9921,5.9338,5.9099,5.9099,5.9099,5.9099,5.9099,5.9009,5.8607,5.8025,5.7244,5.6658,5.6132,5.5564,5.5341,5.5461,5.6102,5.6748,5.7363,5.7919,5.8577,5.9099,5.9099,5.9099,5.8979,5.8397,5.8667,5.9099,5.9099,5.8607,5.8085,5.8085,5.7184,5.6342,5.6342,5.5371,5.4478,5.4359,5.2713,5.0709,4.8757,4.716,4.5324,4.302,4.3778,4.5104,4.645,4.8727,5.0624,5.1696,5.3431,5.391,5.2504,5.5239,5.6718,5.6107,5.9279,6.0372,5.8743,6.1567,6.3123,6.3213,6.3257,6.3887,6.5144,6.5144,6.5787,6.7014,6.7014,6.7014,6.7014,6.7014,6.7074,6.7164,6.7164,6.7224,6.7298,6.7208,6.7942,6.9153,7.044,7.0889,7.0889,7.0889,7.0979,7.1009,7.0919,7.0979,7.1009,7.0919,7.0889,7.0889,7.0889,7.0889,7.0889,7.0889,7.0889,7.0649,7.0037,6.9482,6.778,6.4584,6.2752,6.0105,5.6282,5.4567,5.3439,5.2895,5.4282,5.4876,5.4597,5.7803,5.8838,5.7873,5.9392,5.9801,5.9249,5.9159,5.9099,5.9099,5.9099,5.9099,5.9069,5.8487,5.8175,5.7979,5.6778,5.6282,5.6192,5.6072,5.6042,5.6132,5.6748,5.7393,5.7965,5.8055,5.8577,5.9099,5.9099,5.9099,5.9069,5.8966,5.9026,5.9099,5.9099,5.8607,5.8085,5.8085,5.75,5.6958,5.6958,5.6389,5.5713,5.5162,5.3414,5.1409,4.9456,4.7081,4.5125,4.4127,4.5134,4.6491,4.7829,5.172,5.4354,5.4551,5.5371,5.6449,5.7769,5.6928,5.7466,6.0043,6.0761,6.121,6.1463,6.2525,6.3333,6.3871,6.3857,6.4545,6.5847,6.5847,6.6251,6.7014,6.7014,6.7014,6.7014,6.7014,6.7313,6.7822,6.7822,6.8181,6.8645,6.8256,6.8465,6.9153,7.044,7.0889,7.0889,7.0889,7.0889,7.0889,7.0889,7.0889,7.0889,7.0889,7.0889,7.0889,7.0889,7.0889,7.0889,7.0889,7.062,7.0157,6.9512,6.7955,6.5725,6.2704,6.1449,5.9225,5.559,5.4026,5.3578,5.4215,5.5912,5.7125,5.7786,6.0241,6.0954,6.0085,6.0825,6.0639,5.9651,5.9651,5.9428,5.9099,5.9099,5.9099,5.9056,5.8756,5.8637,5.8547,5.756,5.7214,5.7184,5.6808,5.6688,5.6778,5.7423,5.7859,5.8145,5.8517,5.8846,5.9099,5.9099,5.9099,5.9189,5.9548,5.9368,5.9189,5.9548,5.9115,5.8637,5.8637,5.8128,5.762,5.762,5.7124,5.6479,5.5863,5.3815,5.1917,5.1001,4.7739,4.5574,4.6352,4.698,4.8416,5.1139,5.4294,5.6795,5.8231,5.865,5.9069,5.9608,5.9129,5.9488,6.103,6.1419,6.1942,6.2614,6.2944,6.3393,6.3977,6.4006,6.4665,6.5996,6.637,6.67,6.7014,6.7373,6.7343,6.7014,6.7373,6.7703,6.8047,6.8391,6.8704,6.9004,6.9004,6.9123,6.9453,7.05,7.0889,7.1098,7.0889,7.0889,7.0889,7.0889,7.0889,7.0889,7.0889,7.0889,7.0889,7.0889,7.0889,7.0889,7.0889,7.0486,6.9887,6.9064,6.6736,6.405,6.0982,5.9764,5.7742,5.4537,5.3805,5.4089,5.537,5.7485,5.9197,6.0495,6.2248,6.2764,6.2091,6.2091,6.1463,6.034,6.016,5.9801,5.9308,5.9159,5.9099,5.9099,5.9099,5.9099,5.9039,5.8367,5.8085,5.8025,5.75,5.7334,5.7423,5.8098,5.8457,5.8637,5.9189,5.9428,5.9564,5.9564,5.9564,5.9638,6.001,5.9847,5.9697,6.0206,5.9937,5.9504,5.9368,5.8936,5.8577,5.8577,5.8022,5.7423,5.6958,5.4832,5.2977,5.2516,4.9194,4.7219,4.8757,4.9385,5.096,5.4461,5.6735,5.889,6.112,6.1479,6.1343,6.0848,6.1283,6.1628,6.1778,6.2271,6.2854,6.3512,6.3393,6.3692,6.4455,6.4455,6.5054,6.6251,6.6909,6.7164,6.7044,6.7852,6.7852,6.7284,6.7942,6.8301,6.8496,6.9019,6.9303,6.9482,6.9782,6.9901,6.9991,7.0649,7.1038,7.1487,7.0889,7.0889,7.0889,7.0889,7.0889,7.0889,7.0889,7.0889,7.0889,7.0889,7.0889,7.0889,7.0889,7.0859,7.035,6.9123,6.6797,6.4099,6.0982,5.8209,5.5797,5.3845,5.471,5.5271,5.5403,5.8625,6.0374,6.0495,6.2248,6.2764,6.2091,6.2091,6.1732,6.1,6.04,6.007,5.998,5.9368,5.9099,5.9099,5.9099,5.9099,5.9039,5.8367,5.8085,5.8085,5.8025,5.8038,5.8115,5.8786,5.9428,5.9951,6.001,6.0446,6.094,6.094,6.094,6.0821,6.025,6.0505,6.097,6.1,6.1,6.0791,6.016,5.998,5.9951,5.9951,5.9428,5.8949,5.889,5.7257,5.5294,5.3438,5.1798,5.0828,5.0978,5.2594,5.4538,5.6645,5.9219,6.112,6.1942,6.2584,6.2928,6.2884,6.2914,6.3213,6.3767,6.3827,6.4171,6.4845,6.4276,6.4545,6.5832,6.5862,6.6221,6.6939,6.7628,6.7583,6.7029,6.8345,6.8571,6.7958,6.863,6.9273,6.9858,6.9917,7.0277,7.0769,7.0799,7.0799,7.0829,7.0889,7.1427,7.2146,7.0829,7.0889,7.0889,7.0889,7.0889,7.0889,7.0889,7.0889,7.0889,7.0889,7.0889,7.0889,7.0889,7.0201,6.9542,6.9034,6.5061,6.2071,6.0888,5.7001,5.4268,5.3248,5.4595,5.5912,5.6973,5.9305,6.102,6.2101,6.2788,6.2764,6.2121,6.2525,6.2121,6.112,6.1283,6.0878,6.007,5.9831,5.9488,5.9099,5.9099,5.9099,5.9056,5.8816,5.8726,5.8756,5.9189,5.9338,5.9428,6.0103,6.0492,6.0715,6.0715,6.088,6.109,6.109,6.1389,6.1672,6.1403,6.1224,6.121,6.1613,6.1419,6.103,6.0775,6.0715,6.0715,6.0715,6.0521,6.0192,5.9787,5.8441,5.7393,5.7466,5.4999,5.376,5.5795,5.6047,5.6735,5.8723,6.0595,6.1972,6.2644,6.2944,6.3243,6.3632,6.3662,6.3947,6.459,6.462,6.4919,6.5607,6.5772,6.5922,6.5996,6.5996,6.655,6.7628,6.8301,6.8511,6.8256,6.9183,6.9259,6.866,6.9319,6.9768,7.0037,7.038,7.0679,7.0889,7.0889,7.0889,7.0979,7.1517,7.1846,7.2176,7.0829,7.0889,7.0889,7.0889,7.0889,7.0889,7.0889,7.0889,7.0889,7.0889,7.0889,7.0889,7.0889,6.9961,6.9007,6.8213,6.3846,6.0789,5.9996,5.6551,5.4278,5.3717,5.5314,5.7021,5.8731,6.0448,6.191,6.3108,6.3108,6.2854,6.2435,6.2884,6.2614,6.1732,6.2002,6.1583,6.0699,6.0519,6.0146,5.9727,5.9727,5.9727,5.9727,5.9727,5.9727,5.9787,6.0236,6.0416,6.0475,6.094,6.1239,6.1419,6.1419,6.1539,6.1732,6.1732,6.2061,6.2405,6.2405,6.2061,6.1852,6.2315,6.2061,6.1672,6.1449,6.1419,6.1419,6.1419,6.1419,6.1283,6.0819,5.9967,5.9444,5.9741,5.7693,5.6855,5.9099,5.88,5.9009,6.0819,6.2016,6.2869,6.3333,6.3572,6.3857,6.4276,6.4291,6.462,6.5278,6.5906,6.6355,6.661,6.7268,6.7418,6.6969,6.6924,6.7298,6.8017,6.89,6.9183,6.9034,6.9871,6.9947,6.9333,7.0007,7.0277,7.0306,7.0739,7.0889,7.0889,7.0889,7.1038,7.1278,7.1876,7.2265,7.2731,7.0889,7.0889,7.0889,7.0889,7.0889,7.0889,7.0889,7.0889,7.0889,7.0889,7.0889,7.0889,7.0889,7.035,6.8974,6.65,6.3525,6.0742,5.8248,5.695,5.6036,5.5462,5.7112,5.8793,6.0465,6.2219,6.3108,6.3108,6.3108,6.3108,6.3108,6.3108,6.3108,6.3063,6.2405,6.2091,6.2061,6.1389,6.109,6.109,6.109,6.109,6.109,6.109,6.109,6.109,6.112,6.112,6.112,6.112,6.1539,6.2121,6.2121,6.2555,6.3108,6.3108,6.3108,6.3108,6.3108,6.3108,6.3108,6.3108,6.3108,6.2928,6.2241,6.2121,6.2121,6.2121,6.2121,6.2121,6.2121,6.2121,6.1463,5.9458,5.9681,6.013,6.013,6.0715,6.1613,6.2944,6.3632,6.4006,6.4006,6.462,6.4994,6.5024,6.5024,6.5338,6.5996,6.7926,6.872,6.8047,6.866,6.9004,6.9004,6.9004,6.866,6.8047,6.9349,6.9648,6.9064,7.032,7.056,7.0037,7.0649,7.0889,7.0889,7.0889,7.0889,7.0889,7.0889,7.1308,7.1893,7.1923,7.2744,7.3881,7.0709,7.0889,7.0889,7.0889,7.0889,7.0889,7.0889,7.0889,7.0889,7.0889,7.0889,7.0739,7.0306,6.9708,6.8293,6.579,6.2844,5.9899,5.7016,5.6511,5.7101,5.8887,5.9475,5.9994,6.0495,6.2219,6.3108,6.3108,6.3108,6.3108,6.3108,6.3108,6.3108,6.3108,6.2884,6.2555,6.2091,6.1882,6.1523,6.109,6.109,6.109,6.109,6.109,6.109,6.115,6.1628,6.1792,6.1882,6.2331,6.2644,6.2794,6.2794,6.2944,6.3108,6.3108,6.3108,6.3108,6.3108,6.3108,6.3108,6.3108,6.3108,6.3048,6.2854,6.2794,6.2794,6.2794,6.2794,6.2794,6.2794,6.2794,6.2614,6.2016,6.2076,6.221,6.221,6.2375,6.2824,6.3617,6.3887,6.4171,6.465,6.4874,6.5203,6.5667,6.658,6.7388,6.8076,6.8675,6.8914,6.8704,6.9349,6.9498,6.9004,6.9004,6.9123,6.9409,6.9798,7.0127,7.035,7.0739,7.0799,7.0649,7.0829,7.0889,7.0889,7.0889,7.0889,7.0889,7.0889,7.1308,7.1953,7.2445,7.3163,7.3988,7.0739,7.0889,7.0889,7.0889,7.0889,7.0889,7.0889,7.0889,7.0889,7.0889,7.0889,7.0769,7.0396,6.9542,6.7814,6.4892,6.0967,5.8081,5.6722,5.7051,5.8244,6.0418,6.1169,6.154,6.154,6.2555,6.3108,6.3108,6.3108,6.3108,6.3108,6.3108,6.3108,6.3108,6.3108,6.2854,6.2495,6.2495,6.2241,6.1882,6.1882,6.1882,6.1882,6.1882,6.1882,6.1942,6.2345,6.2495,6.2555,6.2944,6.3108,6.3108,6.3108,6.3108,6.3108,6.3108,6.3273,6.3452,6.3452,6.3662,6.3857,6.3857,6.3482,6.3108,6.3108,6.3108,6.3108,6.3108,6.3108,6.3108,6.3108,6.3108,6.3197,6.3422,6.3452,6.3542,6.3797,6.3857,6.3977,6.4351,6.4635,6.4949,6.5368,6.5637,6.6056,6.6729,6.8032,6.884,6.9004,6.9482,6.9632,6.9393,7.0021,7.0141,6.9752,6.9752,6.9842,7.0007,7.0247,7.056,7.0889,7.0889,7.0889,7.0889,7.0889,7.0889,7.0889,7.0889,7.0889,7.0919,7.1188,7.1534,7.2013,7.2954,7.3552,7.4001,7.0889,7.0889,7.0889,7.0889,7.0889,7.0889,7.0889,7.0889,7.0889,7.0889,7.0889,7.0859,7.0739,6.9564,6.7321,6.3738,5.8647,5.6077,5.7195,5.8347,5.9532,6.0674,6.2263,6.3108,6.3108,6.3108,6.3108,6.3108,6.3108,6.3108,6.3108,6.3108,6.3108,6.3108,6.3108,6.3108,6.3108,6.3108,6.3108,6.3108,6.3108,6.3108,6.3108,6.3108,6.3108,6.3108,6.3108,6.3108,6.3108,6.3108,6.3108,6.3108,6.3108,6.3108,6.3108,6.3153,6.3572,6.4006,6.4066,6.453,6.4994,6.4994,6.4126,6.3273,6.3273,6.3213,6.3183,6.3243,6.3213,6.3183,6.3243,6.3273,6.3452,6.4006,6.4096,6.4291,6.4904,6.4994,6.5024,6.5084,6.5637,6.6056,6.6161,6.6789,6.7463,6.8137,6.9289,6.9768,6.9213,7.032,7.0709,7.0097,7.0679,7.0949,7.0889,7.0889,7.062,7.0097,7.0649,7.0889,7.0889,7.0889,7.0889,7.0889,7.0889,7.0889,7.0889,7.0889,7.0889,7.0949,7.1577,7.1863,7.2042,7.3253,7.3762,7.3911,7.0799,7.0889,7.0889,7.0889,7.0889,7.0889,7.0889,7.0889,7.0889,7.0889,7.0889,7.053,6.9512,6.7912,6.5577,6.2329,5.9166,5.7661,5.8369,5.9885,6.1293,6.2468,6.289,6.3108,6.3108,6.3108,6.3108,6.3108,6.3108,6.3108,6.3108,6.3108,6.3108,6.3108,6.3108,6.3108,6.3108,6.3108,6.3108,6.3108,6.3108,6.3108,6.3108,6.3108,6.3108,6.3108,6.3108,6.3108,6.3108,6.3108,6.3108,6.3108,6.3108,6.3108,6.3183,6.3662,6.3887,6.4126,6.465,6.4874,6.4994,6.4994,6.48,6.459,6.459,6.4171,6.3947,6.447,6.4171,6.3977,6.45,6.459,6.462,6.4755,6.48,6.4815,6.4964,6.4994,6.5203,6.5727,6.5906,6.64,6.7463,6.8166,6.8824,6.9528,6.9828,7.0157,7.047,7.1248,7.1368,7.0739,7.1338,7.1444,7.0919,7.0889,7.0829,7.0709,7.0829,7.0889,7.0889,7.0889,7.0889,7.0889,7.0889,7.0889,7.0889,7.0889,7.0889,7.0919,7.1068,7.1427,7.1953,7.2222,7.2654,7.3283,7.0366,7.047,7.056,7.0859,7.0889,7.0889,7.0889,7.0889,7.0889,7.0889,7.0889,7.053,6.9572,6.7588,6.4687,6.0654,5.8594,5.7974,5.9115,6.0281,6.1578,6.3036,6.3108,6.3108,6.3108,6.3108,6.3108,6.3108,6.3108,6.3108,6.3108,6.3108,6.3108,6.3108,6.3108,6.3108,6.3108,6.3108,6.3108,6.3108,6.3108,6.3108,6.3108,6.3108,6.3108,6.3108,6.3108,6.3108,6.3108,6.3108,6.3108,6.3168,6.3452,6.3542,6.3662,6.4306,6.471,6.5024,6.5398,6.5936,6.643,6.643,6.6654,6.6565,6.5293,6.474,6.459,6.4934,6.474,6.459,6.4934,6.5263,6.5577,6.5906,6.5936,6.6071,6.64,6.643,6.655,6.6909,6.7238,6.7717,6.8421,6.8794,6.9273,6.9947,7.0277,7.0709,7.1338,7.1713,7.1743,7.1398,7.2026,7.1906,7.0919,7.1218,7.1218,7.0889,7.0889,7.0889,7.0889,7.0889,7.0889,7.0889,7.0889,7.0889,7.0889,7.0889,7.0889,7.0949,7.1591,7.1667,7.1547,7.2505,7.303,7.3373,6.9887,7.0067,7.0277,7.0679,7.0739,7.0739,7.0739,7.0739,7.0739,7.0739,7.0739,7.0387,6.9473,6.6768,6.3336,5.913,5.8018,5.8221,5.9818,6.0576,6.16,6.305,6.3183,6.3227,6.3108,6.3183,6.3183,6.3108,6.3108,6.3108,6.3108,6.3108,6.3108,6.3108,6.3108,6.3108,6.3108,6.3108,6.3108,6.3108,6.3108,6.3108,6.3108,6.3108,6.3108,6.3108,6.3108,6.3108,6.3108,6.3213,6.3243,6.3363,6.3977,6.4186,6.4291,6.4979,6.5577,6.6056,6.6281,6.7164,6.8017,6.8122,6.86,6.8435,6.6206,6.5518,6.5353,6.5488,6.5338,6.5278,6.5622,6.6026,6.655,6.7238,6.7328,6.7553,6.8092,6.8167,6.8167,6.8167,6.878,6.9183,6.9183,6.9273,6.9602,7.0277,7.0799,7.1368,7.2042,7.2192,7.2192,7.2056,7.2714,7.2488,7.1248,7.1683,7.1607,7.1068,7.1068,7.1068,7.1068,7.1068,7.1068,7.1068,7.1098,7.1038,7.0889,7.0889,7.0889,7.1009,7.2129,7.195,7.1278,7.3073,7.3689,7.3705,6.9977,7.0426,7.0649,7.0217,7.0127,7.0127,7.0127,7.0127,7.0127,7.0127,7.0127,6.9282,6.7036,6.2671,5.9426,5.8303,5.8853,5.9822,6.1154,6.2188,6.2846,6.3093,6.3602,6.3632,6.3108,6.3602,6.3632,6.3108,6.3108,6.3108,6.3108,6.3108,6.3108,6.3108,6.3108,6.3108,6.3108,6.3108,6.3108,6.3108,6.3108,6.3108,6.3108,6.3108,6.3108,6.3108,6.3108,6.3108,6.3197,6.3707,6.3887,6.4006,6.465,6.4845,6.4994,6.5667,6.5936,6.6251,6.7403,6.7868,6.8122,6.8704,6.8944,6.8914,6.8555,6.7567,6.6879,6.7463,6.667,6.64,6.8136,6.8062,6.7942,6.8615,6.8734,6.8764,6.8854,6.8854,6.8854,6.8854,6.9468,6.9858,6.9858,7.032,7.0919,7.1593,7.1713,7.2056,7.2727,7.3313,7.3373,7.2787,7.3432,7.3402,7.2638,7.2146,7.1863,7.1773,7.1773,7.1773,7.1773,7.1773,7.1773,7.1773,7.1966,7.1607,7.0889,7.0889,7.0889,7.0919,7.1098,7.1398,7.1863,7.2714,7.3253,7.3556,6.9379,6.9662,6.9991,7.0426,7.0217,7.0097,7.044,7.0217,7.0007,7.0007,7.0007,6.8904,6.6041,6.1644,5.8797,5.8577,5.9521,6.0824,6.2399,6.3547,6.4156,6.4156,6.4411,6.4441,6.4186,6.4411,6.4441,6.4156,6.3452,6.3108,6.3108,6.3108,6.3108,6.3108,6.3108,6.3108,6.3108,6.3108,6.3108,6.3108,6.3108,6.3108,6.3108,6.3108,6.3108,6.3108,6.3108,6.3303,6.3632,6.3917,6.4246,6.468,6.5338,6.5577,6.5757,6.6819,6.7134,6.7343,6.8301,6.884,6.9169,6.9498,6.9812,6.9961,6.9632,6.9109,6.866,6.8571,6.8076,6.7956,6.8824,6.9079,6.9199,6.9498,6.9558,6.9558,6.9558,6.9558,6.9662,7.0021,7.0037,7.0127,7.047,7.044,7.0815,7.1833,7.1893,7.2372,7.3402,7.3732,7.3762,7.3462,7.4091,7.3941,7.2907,7.2984,7.2834,7.2445,7.2445,7.2265,7.1923,7.2295,7.2445,7.2445,7.2295,7.198,7.1607,7.1098,7.0889,7.0889,7.0889,7.1996,7.3509,7.3073,7.3043,7.3073]}]]